     2.11           OBSERVATION DATA    G (GPS)             RINEX VERSION / TYPE
teqc 2010Oct21 OPUS Account 20111027 19:26:30UTC            PGM / RUN BY / DATE
L 1526                                                      MARKER NAME
3045                                                        MARKER NUMBER
CSMIDDLETON NGS                                             OBSERVER / AGENCY
0220390627 TRIMBLE R7 2.32                                  REC # / TYPE / VERS
60124849 TRM41249.00 NONE                                   ANT # / TYPE
  -753267.8237 -5568984.1124  3006491.1664                  APPROX POSITION XYZ
        2.0010        0.0000        0.0000                  ANTENNA: DELTA H/E/N
     1     1                                                WAVELENGTH FACT L1/2
     5    L1    L2    C1    P1    P2                        # / TYPES OF OBSERV
    15                                                      LEAP SECONDS
  2011     8    19    15    44   30.0000000     GPS         TIME OF FIRST OBS
                                                            END OF HEADER
 11  8 19 15 44 30.0000000  0  9G03G06G07G10G13G16G19G20G23
    -79884.38758    -55813.28956  20783225.4224                   20783223.4804
     18119.24257     12344.63755  22225274.1174                   22225271.9454
   -283772.61357   -196200.35955  22767926.5634                   22767924.5864
   -141192.49256    -94185.63753  23862515.5704                   23862515.9654
   -222227.71958   -154485.46156  20244860.8444                   20244858.4104
    177360.80957    122078.16455  22266004.3754                   22266001.5514
   -301078.93457   -208946.18456  21579951.5634                   21579948.2894
    180638.32856    118495.04753  23997068.6094                   23997068.3714
    -42021.81258    -29338.08657  19989183.7504                   19989179.4804
 11  8 19 15 45  0.0000000  0 10G03G06G07G08G10G13G16G19G20G23
   -103776.32848    -74430.40246  20778679.3674                   20778677.1604
     24203.35247     17085.48045  22226431.8054                   22226430.0514
   -371795.83647   -264789.88745  22751175.9774                   22751173.8554
   -114755.01255    -69786.69553  24777919.7894                   24777921.1564
   -185374.76646   -128613.42243  23854108.7034                   23854108.4494
   -290422.81248   -207624.51246  20231883.6954                   20231881.3324
    231673.55547    164399.73845  22276339.6954                   22276337.1844
   -393521.67647   -280979.48446  21562360.2894                   21562356.8244
    236396.10946    161942.57043  24007679.2344                   24007678.9774
    -54416.25048    -38996.11747  19986824.8914                   19986820.4534
 11  8 19 15 45 30.0000000  0 10G03G06G07G08G10G13G16G19G20G23
   -127102.61348    -92606.74646  20774240.5314                   20774238.7584
     30749.10247     22186.04745  22227677.3754                   22227675.9064
   -459875.33247   -333423.24645  22734414.9224                   22734413.6334
   -209471.73445   -143591.89143  24759895.2814                   24759896.5744
   -229119.41846   -162700.19943  23845783.9064                   23845784.0594
   -358197.07448   -260435.64146  20218986.8914                   20218984.1994
    286056.46947    206775.97345  22286688.8594                   22286685.3634
   -485586.08247   -352717.98446  21544841.3204                   21544838.2934
    292036.23446    205298.39143  24018266.4844                   24018267.3754
    -66309.64148    -48263.72347  19984561.8674                   19984557.1374
 11  8 19 15 46  0.0000000  0 10G03G06G07G08G10G13G16G19G20G23
   -149842.85248   -110326.43746  20769913.0864                   20769910.9454
     37776.11347     27661.60545  22229014.4304                   22229013.1524
   -547990.52047   -402084.41045  22717647.2424                   22717645.6214
   -304285.30145   -217472.55542  24741852.5164                   24741854.3634
   -272406.62946   -196430.53543  23837546.8134                   23837546.9844
   -425528.19548   -312901.46546  20206174.0554                   20206170.8484
    340527.51247    249220.89845  22297054.4534                   22297051.5634
   -577249.31648   -424143.87546  21527398.2344                   21527394.8914
    347576.09046    248576.07843  24028836.3284                   24028836.0394
    -77681.79748    -57125.17247  19982397.9454                   19982393.3244
 11  8 19 15 46 30.0000000  0 10G03G06G07G08G10G13G16G19G20G23
   -172008.03548   -127598.00446  20765695.1804                   20765693.3674
     45272.18447     33502.66445  22230440.6804                   22230439.4734
   -636151.91047   -470781.58645  22700870.8134                   22700869.0594
   -399207.39845   -291437.73442  24723790.2194                   24723791.3404
   -315247.50446   -229813.05943  23829394.6254                   23829394.1134
   -492424.80548   -365028.71146  20193443.8444                   20193441.3284
    395073.71547    291724.36345  22307434.0084                   22307431.1844
   -668519.13348   -495263.21946  21510030.4064                   21510027.2584
    403002.45746    291765.33643  24039382.9614                   24039382.6094
    -88543.13348    -65588.59047  19980331.1174                   19980326.5664
 11  8 19 15 47  0.0000000  0 10G03G06G07G08G10G13G16G19G20G23
   -193591.83248   -144416.53946  20761587.7034                   20761585.8794
     53242.38747     39713.16045  22231957.8594                   22231956.4064
   -724353.93447   -539510.39145  22684086.9454                   22684085.0514
   -494232.28545   -365483.03943  24705707.0864                   24705708.6024
   -357636.25046   -262843.28544  23821328.0634                   23821328.3134
   -558878.75448   -416811.02346  20180798.6254                   20180795.9104
    449698.56347    334289.13745  22317828.6644                   22317826.1844
   -759386.91448   -566069.28146  21492738.9694                   21492735.4694
    458318.77346    334868.85943  24049909.7584                   24049909.3914
    -98887.44948    -73649.13347  19978362.3914                   19978357.9064
 11  8 19 15 47 30.0000000  0 10G03G06G07G08G10G13G16G19G20G23
   -214593.89148   -160781.78946  20757591.3594                   20757589.3364
     61686.09047     46292.64545  22233564.6094                   22233563.2854
   -812595.66847   -608270.18045  22667294.5004                   22667293.0474
   -589360.09046   -439608.56643  24687604.7974                   24687605.6724
   -399573.04746   -295521.32843  23813347.5784                   23813348.0234
   -624887.92248   -468246.75046  20168237.3594                   20168234.4654
    504400.57847    376914.02745  22328238.5944                   22328235.3164
   -849849.62147   -636559.70746  21475524.7194                   21475520.9804
    513522.80546    377884.87543  24060415.1414                   24060414.4414
   -108714.21948    -81306.38347  19976492.5004                   19976488.2034
 11  8 19 15 48  0.0000000  0 10G03G06G07G08G10G13G16G19G20G23
   -235018.28548   -176696.90246  20753704.5634                   20753702.4494
     70598.65647     53237.45745  22235260.5004                   22235259.0864
   -900880.20747   -677063.31645  22650494.4144                   22650493.3834
   -684594.25046   -513816.88343  24669483.1334                   24669483.1094
   -441061.39846   -327849.94544  23805453.0084                   23805452.4494
   -690453.50048   -519336.82046  20155760.8754                   20155757.6174
    559174.14147    419594.69145  22338661.2894                   22338658.6024
   -939907.43048   -706734.62146  21458386.8834                   21458383.2854
    568608.68446    420808.81643  24070897.5084                   24070896.7504
   -118026.63348    -88562.84047  19974720.4064                   19974715.9884
 11  8 19 15 48 30.0000000  0 10G03G06G07G08G10G13G16G19G20G23
   -254860.84848   -192158.64846  20749929.1724                   20749927.0744
     79983.04747     60549.94545  22237046.1644                   22237044.7274
   -989203.40647   -745886.57045  22633687.6954                   22633685.7504
   -779930.86346   -588105.12943  24651340.2194                   24651340.9024
   -482097.83647   -359826.42644  23797643.8984                   23797643.9184
   -755569.27048   -570076.40246  20143369.3134                   20143366.5984
    614020.37547    462331.97745  22349098.2034                   22349095.1884
  -1029553.89148   -776589.01646  21441327.5554                   21441324.2464
    623577.75046    463641.76243  24081356.9774                   24081356.6094
   -126820.51248    -95415.23847  19973047.2114                   19973042.5084
 11  8 19 15 49  0.0000000  0 10G03G06G07G08G10G13G16G19G20G23
   -274120.55148   -207166.22346  20746263.7664                   20746261.7154
     89839.28147     68230.07845  22238921.6414                   22238920.6454
  -1077563.61347   -814738.66845  22616873.1804                   22616871.4064
   -875369.73446   -662473.04743  24633179.8524                   24633180.2854
   -522681.75046   -391450.28144  23789920.3674                   23789921.0274
   -820231.99648   -620462.95746  20131064.5314                   20131061.6254
    668938.27747    505125.09045  22359548.7504                   22359546.1134
  -1118785.11347   -846119.83646  21424347.6564                   21424344.1914
    678428.63746    506382.59443  24091795.1804                   24091795.2624
   -135094.71548   -101862.70747  19971472.6954                   19971468.4304
 11  8 19 15 49 30.0000000  0 10G03G06G07G08G10G13G16G19G20G23
   -292797.68748   -221719.85546  20742709.8444                   20742708.1484
    100165.97347     76276.82045  22240886.9224                   22240885.8364
  -1165961.08647   -883619.80145  22600051.5004                   22600049.6254
   -970911.32046   -736920.97743  24614998.3594                   24614998.3754
   -562813.80946   -422722.02744  23782284.2424                   23782283.9104
   -884439.89548   -670495.09446  20118846.1724                   20118843.2624
    723925.68447    547972.37945  22370012.7664                   22370010.0434
  -1207598.34848   -915324.95346  21407446.8204                   21407443.2894
    733158.74646    549029.33643  24102210.6414                   24102209.5784
   -142849.30548   -107905.28147  19969996.8364                   19969992.4964
 11  8 19 15 50  0.0000000  0 10G03G06G07G08G10G13G16G19G20G23
   -310889.28948   -235817.22746  20739266.9534                   20739264.9304
    110964.98847     84691.60945  22242942.1484                   22242940.5274
  -1254392.27347   -952527.20745  22583224.0704                   22583222.1484
  -1066552.38746   -811446.46943  24596798.5004                   24596798.3284
   -602491.35946   -453639.62544  23774733.8754                   23774733.8444
   -948188.10248   -720169.03946  20106715.1484                   20106712.5004
    778983.43447    590874.46945  22380489.9774                   22380487.1524
  -1295987.91448   -984199.92646  21390627.1484                   21390623.0354
    787768.53546    591582.27043  24112602.1174                   24112602.0084
   -150081.17248   -113540.53547  19968621.0164                   19968616.5474
 11  8 19 15 50 30.0000000  0 10G03G06G07G08G10G13G16G19G20G23
   -328400.24648   -249462.14846  20735934.7974                   20735933.0204
    122230.31347     93469.77045  22245085.6414                   22245084.4574
  -1342861.94147  -1021464.60545  22566388.3594                   22566386.4414
  -1162298.31646   -886053.67643  24578578.3914                   24578579.5744
   -641719.54746   -484207.07443  23767269.2894                   23767268.7704
  -1011479.16848   -769486.76646  20094671.2814                   20094668.4964
    834104.63747    633826.02745  22390978.8984                   22390976.0984
  -1383956.08248  -1052746.54346  21373886.8594                   21373883.7154
    842250.64146    634035.77743  24122968.8984                   24122969.9734
   -156795.16448   -118772.25046  19967343.4224                   19967338.6994
 11  8 19 15 51  0.0000000  0 10G03G06G07G08G10G13G16G19G20G23
   -345334.21148   -262657.47346  20732712.1094                   20732710.7704
    133957.51647    102607.82445  22247317.8674                   22247315.9534
  -1431373.02047  -1090434.29745  22549545.3524                   22549543.0554
  -1258152.95746   -960745.54343  24560338.6334                   24560338.5634
   -680502.63746   -514427.68044  23759888.6564                   23759888.6764
  -1074314.41448   -818449.31246  20082714.0004                   20082711.4614
    889283.70747    676822.64145  22401479.2974                   22401476.8204
  -1471503.55148  -1120965.34446  21357227.1254                   21357223.9804
    896599.27346    676385.22443  24133312.3134                   24133312.0594
   -162994.57848   -123602.99246  19966163.4304                   19966158.9304
 11  8 19 15 51 30.0000000  0 10G03G06G07G08G10G13G16G19G20G23
   -361681.22348   -275395.43446  20729601.7734                   20729599.6884
    146155.90247    112113.04745  22249638.4614                   22249637.5704
  -1519914.60947  -1159427.74245  22532695.8524                   22532694.1724
  -1354105.68046  -1035513.90243  24542078.9694                   24542079.3484
   -718830.40646   -544293.52044  23752595.4384                   23752595.2234
  -1136681.36348   -867046.94946  20070846.2194                   20070843.4264
    944528.87147    719870.77345  22411992.4224                   22411989.7934
  -1558616.66048  -1188845.67246  21340650.1804                   21340646.6334
    950822.54346    718637.01643  24143630.4064                   24143630.5434
   -168668.62548   -128024.35946  19965083.7034                   19965079.2114
 11  8 19 15 52  0.0000000  0 10G03G06G07G08G10G13G16G19G20G23
   -377444.96548   -287678.89546  20726601.7974                   20726600.0044
    158820.10247    121981.21145  22252049.0394                   22252047.6134
  -1608490.35247  -1228447.79345  22515841.0004                   22515838.5704
  -1450160.83246  -1110362.02743  24523800.5314                   24523800.4304
   -756707.13346   -573807.85543  23745387.3364                   23745387.3834
  -1198581.89548   -915281.14846  20059067.2114                   20059063.8714
    999833.87547    762965.52745  22422516.2664                   22422513.9884
  -1645296.86747  -1256388.68446  21324155.4614                   21324152.0984
   1004914.05146    760786.11743  24153924.2274                   24153924.2424
   -173821.45748   -132039.57846  19964103.2194                   19964098.9534
 11  8 19 15 52 30.0000000  0 10G03G06G07G08G10G13G16G19G20G23
   -392621.31648   -299504.64546  20723713.8984                   20723712.0984
    171953.91047    132215.32045  22254548.1884                   22254546.4384
  -1697095.06247  -1297490.40645  22498980.2734                   22498977.8984
  -1546313.73046  -1185286.31643  24505503.2974                   24505502.9614
   -794128.58646   -602967.48444  23738267.4224                   23738266.3634
  -1260009.30948   -963146.68446  20047377.7114                   20047375.1214
   1055201.76247    806109.27345  22433052.3284                   22433050.1954
  -1731536.88748  -1323588.68046  21307745.0704                   21307741.2384
   1058876.31346    802834.53943  24164192.8134                   24164192.2504
   -178448.14548   -135644.82046  19963222.8204                   19963218.3484
 11  8 19 15 53  0.0000000  0 10G03G06G07G08G10G13G16G19G20G23
   -407213.83648   -310875.45746  20720937.0864                   20720935.0044
    185552.48847    142811.57445  22257135.7194                   22257134.2894
  -1785731.67247  -1366557.86745  22482112.9224                   22482110.8164
  -1642567.82846  -1260289.48843  24487185.9924                   24487186.3794
   -831098.85946   -631775.52044  23731231.2274                   23731231.0124
  -1320964.83648  -1010644.52046  20035778.6334                   20035775.4064
   1110626.91847    849297.66045  22443599.3134                   22443596.7624
  -1817337.48448  -1390446.28146  21291417.4454                   21291413.8634
   1112703.28546    844777.50843  24174435.4384                   24174435.8984
   -182552.50448   -138843.05546  19962441.9384                   19962437.7704
 11  8 19 15 53 30.0000000  0 10G03G06G07G08G10G13G16G19G20G23
   -421224.88748   -321793.17246  20718270.9924                   20718268.9184
    199612.30547    153767.24245  22259811.4454                   22259810.0234
  -1874402.28947  -1435651.84845  22465239.4614                   22465237.1994
  -1738925.53946  -1335373.41443  24468849.8914                   24468850.1564
   -867620.87146   -660234.27743  23724281.3204                   23724281.3054
  -1381449.17248  -1057775.18446  20024268.6254                   20024265.6174
   1166104.85947    892527.15245  22454156.6954                   22454153.8674
  -1902698.03148  -1456960.98046  21275173.5634                   21275170.4104
   1166390.50046    886611.58243  24184652.6024                   24184652.2584
   -186136.38748   -141635.71546  19961759.3594                   19961755.1844
 11  8 19 15 54  0.0000000  0 10G03G06G07G08G10G13G16G19G20G23
   -434650.30948   -332254.55946  20715716.3054                   20715714.5434
    214137.02047    165085.15645  22262575.2734                   22262573.7584
  -1963101.79747  -1504768.32845  22448360.8594                   22448358.7934
  -1835382.28946  -1410534.44943  24450495.0474                   24450495.2544
   -903690.30846   -688340.34944  23717417.2894                   23717417.4304
  -1441455.22348  -1104533.16046  20012849.8134                   20012847.3524
   1221638.40247    935800.00045  22464724.9694                   22464722.1994
  -1987611.10248  -1523126.99646  21259015.6024                   21259011.8594
   1219939.77346    928338.13743  24194842.4844                   24194842.6054
   -189195.32448   -144019.33247  19961177.6174                   19961173.3954
 11  8 19 15 54 30.0000000  0 10G03G06G07G08G10G13G16G19G20G23
   -447490.59848   -342259.98846  20713272.8984                   20713270.8594
    229125.31647    176764.31345  22265427.3674                   22265425.8054
  -2051829.59447  -1573906.86745  22431476.2504                   22431474.1174
  -1931938.43046  -1485772.94942  24432120.8984                   24432120.5514
   -939307.55546   -716094.10544  23710640.1484                   23710639.9144
  -1500981.44948  -1150917.24246  20001522.1484                   20001519.5274
   1277225.55147    979114.59045  22475302.6254                   22475299.5634
  -2072074.01248  -1588942.23446  21242942.5004                   21242939.1604
   1273349.49246    969955.99243  24205006.4924                   24205005.8364
   -191729.39148   -145993.95746  19960695.6334                   19960691.2234
 11  8 19 15 55  0.0000000  0 10G03G06G07G08G10G13G16G19G20G23
   1115669.59448    875786.89846  21010732.1414                   21010730.5634
   1819990.72747   1416399.66445  22568158.8594                   22568157.5664
   -565166.93047   -415468.40245  22714378.6804                   22714376.9654
   -453175.75046   -333490.28542  24713519.3674                   24713519.8914
    600942.84846    484101.00044  24003739.8284                   24003740.0944
     15391.87548     30672.34446  20290078.1094                   20290075.8554
   2908277.88747   2250064.41845  22785681.9454                   22785678.6994
   -580666.31248   -426806.35946  21526748.1094                   21526744.5664
   2902030.49646   2239057.94543  24514933.8754                   24514934.3634
   1381676.62548   1080036.68846  20260104.6024                   20260100.2274
 11  8 19 15 55 30.0000000  0 10G03G06G07G08G10G13G16G19G20G23
   1103993.04348    866688.27746  21008510.4614                   21008508.3284
   1835896.69947   1428793.90645  22571185.8914                   22571184.6414
   -653955.44547   -484654.24245  22697482.7504                   22697481.1764
   -549936.89146   -408888.54742  24695106.0704                   24695106.9304
    566221.84046    457045.64144  23997132.9304                   23997132.2504
    -43173.38748    -14962.93046  20278933.9694                   20278931.0864
   2963960.52047   2293453.43445  22796277.5944                   22796275.1374
   -664227.09048   -491918.63746  21510846.6484                   21510843.5634
   2955147.82846   2280447.94543  24525042.7194                   24525041.7544
   1380186.10548   1078875.21946  20259821.0164                   20259816.7074
 11  8 19 15 56  0.0000000  0 10G03G06G07G08G10G13G16G19G20G23
   1092905.29748    858048.46146  21006400.3834                   21006399.0044
   1852266.69947   1441549.71145  22574300.8594                   22574300.2894
   -742766.51647   -553857.66045  22680582.0634                   22680580.8484
   -646793.87946   -484361.48442  24676674.7734                   24676675.9414
    531955.45746    430344.53944  23990611.8754                   23990612.2274
   -101248.43048    -60216.21946  20267882.7504                   20267879.6764
   3019694.96147   2336882.82845  22806883.8134                   22806880.7814
   -747325.54748   -556670.67646  21495033.8364                   21495030.1254
   3008122.82046   2321727.03143  24535122.9774                   24535123.1214
   1379224.54348   1078125.91846  20259638.0084                   20259633.7504
 11  8 19 15 56 30.0000000  0 10G03G06G07G08G10G13G16G19G20G23
   1082409.10548    849869.59446  21004403.2584                   21004401.4924
   1869103.20747   1454669.04345  22577504.4384                   22577503.4774
   -831595.84847   -623075.28545  22663678.8984                   22663677.3324
   -743742.87146   -559906.14143  24658226.9454                   24658227.1024
    498146.97746    404000.22743  23984178.7344                   23984178.1214
   -158827.40248   -105082.96146  20256925.6564                   20256923.2114
   3075483.18047   2380354.12545  22817499.8444                   22817496.5274
   -829955.19548   -621057.40646  21479309.6174                   21479306.2304
   3060957.04346   2362896.44543  24545176.9384                   24545176.6884
   1378795.89848   1077791.89146  20259556.8134                   20259552.1454
 11  8 19 15 57  0.0000000  0 10G03G06G07G08G10G13G16G19G20G23
   1072493.64848    842143.24246  21002515.9844                   21002514.3674
   1886394.56647   1468142.80145  22580795.4924                   22580793.7424
   -920453.35247   -692314.87545  22646769.9534                   22646768.0204
   -840793.97346   -635530.32843  24639757.7664                   24639758.1254
    464784.64846    378003.57044  23977829.9144                   23977830.2934
   -215918.94548   -149569.89146  20246061.4924                   20246058.9614
   3131312.80147   2423857.69144  22828123.6484                   22828120.8134
   -912124.01648   -685085.05146  21463673.4454                   21463670.4774
   3113637.43846   2403946.02343  24555201.9384                   24555201.6054
   1378889.23048   1077864.59046  20259574.3754                   20259569.7034
 11  8 19 15 57 30.0000000  0 10G03G06G07G08G10G13G16G19G20G23
   1063163.87148    834873.25846  21000740.9924                   21000739.1214
   1904144.53947   1481973.89545  22584173.3444                   22584171.4654
  -1009333.39547   -761572.03945  22629856.4304                   22629854.7304
   -937942.05146   -711230.11343  24621270.8914                   24621271.6644
    431873.48447    352358.47744  23971567.1644                   23971567.2464
   -272515.86348   -193671.40246  20235291.7344                   20235289.1524
   3187187.21547   2467396.14145  22838756.5164                   22838753.8594
   -993824.07848   -748747.43746  21448126.7504                   21448123.3054
   3166166.90246   2444877.96543  24565197.5004                   24565197.8054
   1379509.60548   1078347.97746  20259692.3754                   20259688.0084
 11  8 19 15 58  0.0000000  0 10G03G06G07G08G10G13G16G19G20G23
   1054418.96148    828059.01245  20999076.8984                   20999075.1214
   1922351.33247   1496160.95745  22587638.0944                   22587636.6374
  -1098235.52347   -830846.41045  22612938.9304                   22612937.1954
  -1035187.77046   -787005.97743  24602765.7584                   24602766.8754
    399412.41446    327064.09844  23965389.7194                   23965390.0664
   -328616.50848   -237386.19546  20224616.2114                   20224613.3674
   3243103.94547   2510967.57444  22849396.1484                   22849394.2704
  -1075053.16848   -812042.82846  21432669.1804                   21432665.4224
   3218543.30946   2485690.62142  24575164.9694                   24575164.6914
   1380656.32848   1079241.50046  20259910.5314                   20259906.2814
 11  8 19 15 58 30.0000000  0 10G03G06G07G08G10G13G16G19G20G23
   1046259.41048    821700.91046  20997523.7034                   20997522.4414
   1941014.74647   1510703.85245  22591189.6254                   22591188.4224
  -1187158.35947   -900136.93445  22596017.3054                   22596015.3674
  -1132529.94546   -862857.00043  24584242.5704                   24584242.8954
    367401.51246    302120.50444  23959298.7814                   23959298.9384
   -384217.89548   -280711.96546  20214035.6564                   20214033.0004
   3299061.81347   2554571.05544  22860045.1644                   22860042.5824
  -1155808.27048   -874968.87546  21417301.8674                   21417298.3444
   3270765.59046   2526383.16442  24585103.0634                   24585102.4344
   1382330.38348   1080545.93046  20260229.4454                   20260224.7304
 11  8 19 15 59  0.0000000  0 10G03G06G07G08G10G13G16G19G20G23
   1038684.71548    815798.52346  20996082.6954                   20996080.4614
   1960133.30547   1525601.39145  22594827.7034                   22594825.8874
  -1276101.23847   -969443.06645  22579092.0634                   22579090.6604
  -1229968.35646   -938782.98643  24565700.1564                   24565701.3834
    335840.41046    277527.40244  23953292.7504                   23953293.0784
   -439318.50448   -323647.51646  20203550.1884                   20203547.5784
   3355059.35547   2598205.46144  22870701.3594                   22870699.0784
  -1236086.13348   -937523.04746  21402025.5474                   21402021.8204
   3322831.14146   2566953.61742  24595010.0164                   24595010.9454
   1384531.33648   1082260.93046  20260648.1484                   20260643.8874
 11  8 19 15 59 30.0000000  0 10G03G06G07G08G10G13G16G19G20G23
   1031690.89848    810348.76646  20994751.4694                   20994749.7274
   1979702.32447   1540849.96545  22598551.4144                   22598550.0864
  -1365067.15647  -1038767.15245  22562162.7664                   22562161.0704
  -1327506.86346  -1014786.94143  24547139.6094                   24547139.9224
    304724.41446    253281.12144  23947371.9064                   23947371.1484
   -493919.79748   -366193.98446  20193159.7814                   20193157.1134
   3411091.15247   2641866.54744  22881363.7344                   22881361.7154
  -1315888.23848   -999706.50446  21386840.0554                   21386835.9844
   3374734.19946   2607397.43042  24604886.6884                   24604887.6524
   1387255.68848   1084383.77046  20261166.8444                   20261162.0234
 11  8 19 16  0  0.0000000  0 10G03G06G07G08G10G13G16G19G20G23
   1025278.57048    805352.12145  20993531.1954                   20993529.7154
   1999721.77047   1556449.49645  22602361.6024                   22602359.6764
  -1454053.99647  -1108107.53145  22545228.8834                   22545227.0904
  -1425144.01246  -1090867.81643  24528559.3594                   24528560.2734
    274054.67646    229382.62544  23941535.6414                   23941535.2664
   -548018.61348   -408348.91446  20182865.3204                   20182862.6804
   3467156.85947   2685554.06644  22892032.3984                   22892030.2664
  -1395210.00448  -1061515.66446  21371745.5084                   21371741.9024
   3426474.41846   2647714.34442  24614733.0704                   24614733.4774
   1390504.83648   1086915.53946  20261784.9384                   20261780.2234
 11  8 19 16  0 30.0000000  0 10G03G06G07G08G10G13G16G19G20G23
   1019446.73448    800807.80945  20992421.8524                   20992419.9344
   2020189.66047   1572398.47745  22606255.8444                   22606254.2664
  -1543061.62947  -1177464.12945  22528291.4534                   22528289.1564
  -1522880.49246  -1167026.03543  24509961.3364                   24509961.4924
    243829.90246    205830.82444  23935783.6484                   23935783.7934
   -601613.37148   -450111.07446  20172666.5004                   20172664.0204
   3523253.85947   2729265.96144  22902708.1334                   22902705.4694
  -1474049.70748  -1122949.19146  21356742.8594                   21356739.5474
   3478049.07046   2687902.25043  24624547.7814                   24624548.0984
   1394277.26648   1089855.06646  20262502.6094                   20262498.7234
 11  8 19 16  1  0.0000000  0 10G03G06G07G08G10G13G16G19G20G23
   1014195.17248    796715.65245  20991422.2664                   20991420.5234
   2041105.16447   1588696.24645  22610236.0394                   22610234.3834
  -1632088.72347  -1246835.87145  22511349.9614                   22511348.1174
  -1620715.69146  -1243261.21943  24491344.2504                   24491344.6374
    214049.77746    182625.53544  23930117.1564                   23930116.9774
   -654701.63748   -491478.55946  20162564.1414                   20162561.4104
   3579381.23447   2773001.51644  22913388.5164                   22913386.1914
  -1552404.37948  -1184004.77046  21341832.3364                   21341828.6054
   3529456.27746   2727959.62943  24634329.5704                   24634330.6844
   1398573.84048   1093203.02046  20263320.3914                   20263316.0904
 11  8 19 16  1 30.0000000  0 10G03G06G07G08G10G13G16G19G20G23
   1009530.17248    793080.55946  20990534.8674                   20990533.1604
   2062473.79347   1605347.08245  22614302.9534                   22614300.8594
  -1721127.70347  -1316216.87945  22494406.2344                   22494404.7304
  -1718642.36346  -1319567.66043  24472708.6644                   24472708.9064
    184720.49647    159771.51244  23924536.5704                   23924535.5784
   -707274.87148   -532444.73446  20152559.9304                   20152556.9614
   3635543.79747   2816764.49244  22924075.5394                   22924073.6484
  -1630264.58648  -1244675.04346  21327016.1024                   21327012.3874
   3580700.95746   2767890.41843  24644081.6094                   24644082.8594
   1403400.91448   1096964.33646  20264239.2504                   20264234.7814
 11  8 19 16  2  0.0000000  0 10G03G06G07G08G10G13G16G19G20G23
   1005440.28148    789893.59445  20989756.6724                   20989754.5594
   2084283.14547   1622341.34845  22618452.6564                   22618451.0234
  -1810189.06647  -1385615.32845  22477458.6484                   22477456.8674
  -1816671.51246  -1395953.94143  24454054.8674                   24454055.2734
    155830.28146    137259.64844  23919038.5084                   23919038.0904
   -759342.30948   -573016.76646  20142651.8284                   20142649.1604
   3691729.16047   2860545.23845  22934768.1174                   22934765.3874
  -1707638.76648  -1304966.59446  21312292.4924                   21312288.4304
   3631770.10246   2807684.43843  24653800.2814                   24653800.2704
   1408747.20348   1101130.25846  20265256.7974                   20265251.7504
 11  8 19 16  2 30.0000000  0 10G03G06G07G08G10G13G16G19G20G23
   1001926.39548    787155.46145  20989087.9144                   20989085.9104
   2106533.37547   1639679.15645  22622686.7424                   22622685.3594
  -1899270.53147  -1455029.43445  22460506.9534                   22460504.7734
  -1914801.75446  -1472418.99643  24435380.6254                   24435381.5664
    127379.62946    115090.27043  23913624.2274                   23913623.4884
   -810900.66048   -613192.11747  20132840.6954                   20132837.8204
   3747936.75447   2904343.29745  22945463.6174                   22945461.8364
  -1784523.00048  -1364876.35946  21297661.4064                   21297658.2504
   3682663.00846   2847341.08643  24663484.7194                   24663485.1174
   1414614.07048   1105701.81346  20266372.9614                   20266368.4144
 11  8 19 16  3  0.0000000  0 10G03G06G07G08G10G13G16G19G20G23
    998999.96548    784875.09045  20988531.1414                   20988529.1644
   2129234.99647   1657368.69145  22627006.4694                   22627005.6024
  -1988359.05548  -1524449.05545  22443554.1564                   22443552.0434
  -2013020.78146  -1548953.23043  24416690.4844                   24416690.6294
     99380.09846     93272.42643  23908296.5554                   23908296.2114
   -861935.93048   -652959.87147  20123128.7274                   20123125.9654
   3804177.29747   2948167.05544  22956165.9454                   22956163.6994
  -1860902.85548  -1424393.11346  21283127.0004                   21283123.3484
   3733389.83246   2886868.36743  24673138.2424                   24673138.2894
   1421013.19548   1110688.11746  20267590.6094                   20267586.3594
 11  8 19 16  3 30.0000000  0 10G03G06G07G08G10G13G16G19G20G23
    996652.94948    783046.21946  20988084.1174                   20988082.3914
   2152379.32447   1675403.18445  22631410.8594                   22631410.0234
  -2077461.48447  -1593879.50045  22426598.3984                   22426596.2384
  -2111335.93046  -1625562.36743  24397981.2034                   24397981.9344
     71823.20746     71799.46944  23903051.6804                   23903051.7344
   -912453.65248   -692324.34047  20113515.7664                   20113513.2424
   3860441.32847   2992009.08644  22966872.7974                   22966870.2114
  -1936783.28148  -1483520.69946  21268687.4844                   21268683.7704
   3783941.13347   2926258.86743  24682758.0234                   24682758.4734
   1427936.55948   1116082.91446  20268908.0314                   20268903.5824
 11  8 19 16  4  0.0000000  0 10G03G06G07G08G10G13G16G19G20G23
    994887.53947    781670.55146  20987748.2974                   20987747.0314
   2175968.02347   1693783.94545  22635899.7344                   22635898.4104
  -2166573.90247  -1663317.73845  22409640.6414                   22409638.8554
  -2209743.40646  -1702243.45743  24379255.3054                   24379255.4304
     44711.62946     50673.54744  23897892.0164                   23897892.4694
   -962449.03548   -731281.80146  20104002.0084                   20103999.0784
   3916730.38747   3035870.62544  22977584.6954                   22977582.0204
  -2012158.39548  -1542254.54746  21254344.0004                   21254340.2774
   3834318.09846   2965513.53543  24692344.1644                   24692344.8754
   1435387.18448   1121888.55946  20270325.8914                   20270321.5004
 11  8 19 16  4 30.0000000  0 10G03G06G07G08G10G13G16G19G20G23
    993690.73847    780737.95745  20987520.6484                   20987519.0314
   2199987.17247   1712500.10545  22640470.3984                   22640468.9494
  -2255707.92647  -1732772.80145  22392679.3054                   22392677.5704
  -2308255.95746  -1779006.44943  24360509.0864                   24360508.5004
     18031.86746     29884.07443  23892815.6024                   23892816.5904
  -1011932.75848   -769840.55546  20094585.3134                   20094582.6334
   3973030.57447   3079740.84044  22988298.3754                   22988295.5004
  -2087038.46148  -1600602.65246  21240094.6644                   21240091.4344
   3884506.16447   3004621.00843  24701894.9694                   24701895.6844
   1443352.15248   1128094.99646  20271841.5474                   20271836.9454
 11  8 19 16  5  0.0000000  0 10G03G06G07G08G10G13G16G19G20G23
    993069.68847    780254.00445  20987402.6804                   20987400.7274
   2224443.62147   1731557.04345  22645124.5554                   22645123.2734
  -2344854.57447  -1802237.70345  22375715.3914                   22375713.2034
  -2406865.32446  -1855844.85243  24341744.1174                   24341743.7934
     -8208.52346      9437.01244  23887822.6644                   23887822.7304
  -1060894.76248   -807992.77346  20085268.3594                   20085265.5864
   4029348.43447   3123624.82844  22999014.9384                   22999012.0394
  -2161412.85248  -1658556.72746  21225941.9064                   21225938.1764
   3934511.69546   3043586.23443  24711409.8834                   24711410.9494
   1451839.26648   1134708.30146  20273456.8594                   20273452.1914
 11  8 19 16  5 30.0000000  0 10G03G06G07G08G10G13G16G19G20G23
    993029.64548    780222.78545  20987394.9844                   20987393.2154
   2249341.52747   1750957.96145  22649862.4694                   22649861.1374
  -2434006.99247  -1871707.10245  22358750.1724                   22358748.3794
  -2505565.51646  -1932754.03943  24322962.1334                   24322962.1094
    -34004.92246    -10664.12143  23882914.0394                   23882913.7234
  -1109327.45348   -845732.55546  20076052.1024                   20076049.1214
   4085687.97347   3167525.70744  23009736.2734                   23009733.4694
  -2235273.34048  -1716110.35946  21211886.6254                   21211882.7274
   3984338.56346   3082412.22743  24720891.8914                   24720893.2274
   1460854.05548   1141732.78546  20275172.0554                   20275167.7464
 11  8 19 16  6  0.0000000  0 10G03G06G07G08G10G13G16G19G20G23
    993562.06348    780637.63345  20987496.0864                   20987494.5824
   2274671.85247   1770695.82045  22654682.5004                   22654681.2934
  -2523172.14147  -1941186.43745  22341782.4694                   22341780.1684
  -2604364.07446  -2009739.89543  24304161.3594                   24304161.7664
    -59365.85546    -30425.93744  23878087.7664                   23878087.5394
  -1157237.19948   -883064.83646  20066934.9454                   20066932.0904
   4142039.96947   3211436.28944  23020459.5554                   23020456.9574
  -2308625.08248  -1773267.56646  21197928.2034                   21197924.1994
   4033977.20346   3121091.59442  24730338.4844                   24730339.2074
   1470388.21548   1149161.96546  20276986.4144                   20276981.8484
 11  8 19 16  6 30.0000000  0 10G03G06G07G08G10G13G16G19G20G23
    994671.76248    781502.31645  20987707.4304                   20987706.0084
   2300438.97347   1790774.05545  22659586.0704                   22659584.9454
  -2612343.37547  -2010670.51245  22324813.6024                   22324811.8094
  -2703254.50846  -2086797.32443  24285342.9304                   24285343.1764
    -84286.00046    -49844.23844  23873345.9694                   23873345.8524
  -1204616.33248   -919983.65647  20057919.1884                   20057916.5514
   4198408.78547   3255359.97344  23031185.9534                   23031183.5234
  -2381460.07448  -1830022.11346  21184068.2734                   21184064.3404
   4083431.39546   3159627.18442  24739748.8754                   24739750.5514
   1480446.98448   1156999.94146  20278900.5394                   20278896.0124
 11  8 19 16  7  0.0000000  0 10G03G06G07G08G10G13G16G19G20G23
    996359.87148    782817.71145  20988028.6954                   20988026.6094
   2326642.93047   1811192.67645  22664572.2114                   22664571.4144
  -2701518.16447  -2080157.34845  22307844.3054                   22307842.0944
  -2802235.22346  -2163925.10543  24266507.2974                   24266506.8874
   -108765.01647    -68918.84444  23868687.2034                   23868687.5554
  -1251461.37148   -956486.30946  20049004.5784                   20049002.1684
   4254794.15647   3299296.57044  23041916.4924                   23041913.4804
  -2453774.32448  -1886370.87546  21170307.2424                   21170303.7704
   4132700.62546   3198018.65242  24749124.7274                   24749126.2814
   1491031.61348   1165247.66846  20280914.8594                   20280910.5164
 11  8 19 16  7 30.0000000  0 10G03G06G07G08G10G13G16G19G20G23
    998620.14148    784578.94545  20988459.0234                   20988456.9614
   2353277.09047   1831946.52345  22669640.5864                   22669639.2344
  -2790701.01247  -2149650.48445  22290873.2814                   22290871.1454
  -2901311.21946  -2241127.14543  24247653.6254                   24247653.8554
   -132808.82446    -87654.30144  23864112.1414                   23864112.5474
  -1297775.83648   -992575.51647  20040191.5474                   20040188.6334
   4311189.52047   3343240.95344  23052647.7584                   23052645.0314
  -2525570.56648  -1942316.00446  21156645.2584                   21156641.0634
   4181778.21946   3236260.78942  24758463.8204                   24758466.8094
   1502136.74648   1173900.99246  20283028.1724                   20283023.7664
 11  8 19 16  8  0.0000000  0  9G03G06G07G08G10G13G16G19G23
   1001448.94948    786783.20745  20988997.3914                   20988995.3484
   2380336.69947   1853031.89144  22674790.0234                   22674789.1334
  -2879893.93447  -2219151.46145  22273900.3054                   22273898.4694
  -3000485.14546  -2318405.45743  24228781.6414                   24228781.9494
   -156421.41046   -106053.75844  23859618.6024                   23859618.9924
  -1343561.30148  -1028252.52346  20031478.6724                   20031475.8204
   4367590.39547   3387189.63344  23063379.9224                   23063377.9494
  -2596849.76648  -1997858.23846  21143080.7504                   21143077.4064
   1513758.46148   1182956.84046  20285239.3364                   20285235.5554
 11  8 19 16  8 30.0000000  0  9G03G06G07G08G10G13G16G19G23
   1004844.48448    789429.06345  20989642.9924                   20989641.3794
   2407819.25847   1874446.81645  22680019.8204                   22680018.3554
  -2969097.25047  -2288660.52045  22256925.4304                   22256923.5904
  -3099757.93046  -2395760.79743  24209891.0554                   24209890.5904
   -179604.55147   -124118.58244  23855208.0864                   23855207.5234
  -1388816.82048  -1063516.57446  20022866.8204                   20022864.2304
   4423994.06347   3431140.48444  23074113.3754                   23074111.6054
  -2667610.52748  -2052996.49646  21129615.4924                   21129611.6914
   1525895.30548   1192414.09046  20287549.2114                   20287545.0164
 11  8 19 16  9  0.0000000  0  9G03G06G07G08G10G13G16G19G23
   1008804.87148    792515.05945  20990397.1954                   20990395.0354
   2435723.18047   1896190.10245  22685330.1094                   22685328.7974
  -3058309.60547  -2358176.62945  22239949.0394                   22239946.8634
  -3199129.49247  -2473193.13743  24190980.9144                   24190981.2584
   -202360.10547   -141850.20744  23850877.3364                   23850877.4534
  -1433541.47748  -1098366.97746  20014356.0704                   20014353.2074
   4480398.73047   3475092.12144  23084847.1884                   23084845.1644
  -2737850.85248  -2107729.22746  21116249.5164                   21116245.8094
   1538546.39148   1202272.04746  20289956.4454                   20289952.8054
 11  8 19 16  9 30.0000000  0  9G03G06G07G08G10G13G16G19G23
   1013341.62948    796050.17245  20991260.7274                   20991258.6684
   2464058.73447   1918269.71945  22690722.0394                   22690720.8284
  -3147518.89147  -2427690.34445  22222973.0314                   22222970.5434
  -3298587.43446  -2550692.75443  24172054.3984                   24172054.4064
   -224676.68047   -159239.74644  23846630.3054                   23846630.9264
  -1477721.40648  -1132792.91046  20005949.0394                   20005946.1764
   4536815.20347   3519052.96544  23095582.5314                   23095581.0044
  -2807556.33248  -2162045.19146  21102984.8284                   21102981.2854
   1551723.04748   1212539.53546  20292463.9534                   20292460.2854
 11  8 19 16 10  0.0000000  0  9G03G06G07G08G10G13G16G19G23
   1018445.25048    800026.99245  20992231.3594                   20992229.7504
   2492816.03547   1940677.95344  22696194.1644                   22696193.1844
  -3236732.22347  -2497207.20745  22205996.6804                   22205994.1294
  -3398140.17646  -2628266.24243  24153110.1484                   24153110.0864
   -246563.66847   -176294.59844  23842465.6884                   23842465.5554
  -1521363.65648  -1166799.86746  19997644.1414                   19997641.3524
   4593233.18447   3563014.97344  23106319.0234                   23106317.0864
  -2876733.25048  -2215949.29346  21089820.8054                   21089817.2664
   1565416.50848   1223209.73446  20295069.7974                   20295065.6684
 11  8 19 16 10 30.0000000  0  9G03G06G07G08G10G13G16G19G23
   1024113.07048    804443.44545  20993309.9844                   20993308.3754
   2521991.96947   1963412.43445  22701746.6804                   22701744.4844
  -3325949.90647  -2566727.46145  22189018.9694                   22189016.7424
  -3497788.85546  -2705914.49643  24134148.0864                   24134148.0204
   -268023.58647   -193016.60944  23838381.7584                   23838381.8834
  -1564468.16848  -1200387.81246  19989441.5234                   19989438.8164
   4649649.84847   3606975.95744  23117054.8834                   23117052.4804
  -2945381.07448  -2269441.10946  21076757.5944                   21076753.8674
   1579624.47348   1234280.83646  20297773.8134                   20297769.6684
 11  8 19 16 11  0.0000000  0  9G03G06G07G08G10G13G16G19G23
   1030350.21548    809303.51645  20994496.5634                   20994495.2504
   2551590.87547   1986476.48045  22707378.4844                   22707377.9454
  -3415165.40248  -2636246.02045  22172041.6414                   22172039.4494
  -3597527.17246  -2783632.62144  24115167.9224                   24115168.1914
   -289051.66846   -209402.15644  23834380.1564                   23834380.1524
  -1607027.45348  -1233550.91046  19981342.8134                   19981340.2624
   4706069.73447   3650939.45344  23127791.2034                   23127788.6484
  -3013491.88748  -2322514.46946  21063796.6724                   21063793.0314
   1594352.33648   1245757.05946  20300576.1174                   20300571.9804
 11  8 19 16 11 30.0000000  0  9G03G06G07G08G10G13G16G19G23
   1037147.78948    814600.29745  20995790.6254                   20995788.7274
   2581603.02347   2009862.55145  22713090.0704                   22713089.0434
  -3504385.63748  -2705768.26645  22155063.4774                   22155061.1954
  -3697362.83646  -2861426.60243  24096169.6884                   24096169.8834
   -309656.93747   -225458.21944  23830459.5164                   23830459.3754
  -1649047.96548  -1266294.18446  19973346.4844                   19973343.9104
   4762483.16847   3694897.91444  23138526.2974                   23138524.3594
  -3081071.19948  -2375173.68446  21050936.7344                   21050933.2624
   1609591.26248   1257631.50446  20303476.1254                   20303471.8134
 11  8 19 16 12  0.0000000  0  9G03G06G07G08G10G13G16G19G23
   1044506.44548    820334.28145  20997190.7894                   20997188.8484
   2612028.98847   2033571.07845  22718879.7734                   22718879.1024
  -3593607.46547  -2775291.75845  22138085.0394                   22138083.2154
  -3797293.52746  -2939294.59844  24077153.7974                   24077153.8594
   -329838.60547   -241184.21944  23826618.6804                   23826618.4414
  -1690526.28148  -1298614.96146  19965453.5554                   19965451.0514
   4818890.69147   3738851.75444  23149260.1334                   23149258.4694
  -3148114.76648  -2427415.42646  21038178.6254                   21038175.0354
   1625342.71148   1269905.31646  20306473.8364                   20306469.4884
 11  8 19 16 12 30.0000000  0  9G03G06G07G08G10G13G16G19G23
   1052424.65248    826504.29345  20998697.3364                   20998695.9264
   2642866.22747   2057600.06645  22724748.0164                   22724746.7774
  -3682830.89848  -2844816.50445  22121106.6724                   22121104.4494
  -3897319.79746  -3017237.09843  24058119.0004                   24058119.5824
   -349598.31246   -256581.44143  23822858.5164                   23822858.6134
  -1731461.71948  -1330512.71946  19957663.8284                   19957661.1414
   4875290.62147   3782799.70744  23159993.0474                   23159991.0704
  -3214621.74248  -2479239.04346  21025522.7974                   21025519.2584
   1641605.06648   1282577.25046  20309568.0784                   20309563.9414
 11  8 19 16 13  0.0000000  0  9G03G06G07G08G10G13G16G19G23
   1060903.27748    833110.98845  21000311.0704                   21000309.3134
   2674115.35947   2081950.00445  22730694.2974                   22730693.6454
  -3772052.62548  -2914339.90645  22104128.0394                   22104125.9884
  -3997438.85546  -3095251.88344  24039067.8754                   24039067.6524
   -368935.16046   -271649.11743  23819179.1484                   23819179.0864
  -1771850.48448  -1361984.49646  19949977.8834                   19949975.3594
   4931683.25847   3826741.96144  23170724.2424                   23170721.6724
  -3280587.45348  -2530640.89846  21012970.0234                   21012966.2234
   1658379.83248   1295648.45346  20312760.5704                   20312756.1484
 11  8 19 16 13 30.0000000  0  9G03G06G07G08G10G13G16G19G23
   1069938.05548    840151.05145  21002030.5234                   21002028.9734
   2705771.51247   2106617.11945  22736719.0784                   22736717.4804
  -3861274.58647  -2983863.49645  22087150.2584                   22087148.1724
  -4097653.54346  -3173341.19943  24019997.3134                   24019997.0704
   -387853.02346   -286390.35944  23815579.2034                   23815579.2154
  -1811694.44948  -1393031.75446  19942396.1334                   19942393.1804
   4988064.35947   3870675.22744  23181453.3754                   23181450.7584
  -3346012.89848  -2581621.77346  21000520.0634                   21000516.3324
   1675663.09048   1309115.90246  20316049.5704                   20316045.1804
 11  8 19 16 14  0.0000000  0  9G03G06G07G08G10G13G16G19G23
   1079521.52347    847618.65645  21003854.0164                   21003852.3634
   2737826.94947   2131595.34445  22742818.6644                   22742817.8484
  -3950502.29748  -3053391.57845  22070170.3594                   22070168.5044
  -4197969.94146  -3251509.77743  24000908.0784                   24000907.3204
   -406359.68746   -300811.16043  23812057.3594                   23812057.5474
  -1850998.27748  -1423658.12546  19934916.5394                   19934913.9774
   5044426.19947   3914593.48844  23192178.1724                   23192176.4694
  -3410902.55948  -2632185.14546  20988171.8834                   20988168.6294
   1693447.77748   1322974.05946  20319433.7504                   20319429.8554
 11  8 19 16 14 30.0000000  0 11G03G06G07G08G10G13G16G19G11G23G28
   1089662.41848    855520.62145  21005783.7894                   21005782.0084
   2770289.63747   2156890.92645  22748996.4224                   22748994.9654
  -4039724.79347  -3122915.57445  22053191.6724                   22053189.8914
  -4298378.11346  -3329749.85543  23981800.1024                   23981800.5474
   -424446.40646   -314904.73843  23808615.0634                   23808615.4774
  -1889751.24248  -1453855.23846  19927542.1954                   19927539.4884
   5100776.87547   3958503.04344  23202901.8284                   23202900.0784
  -3475244.61348  -2682321.81246  20975928.4924                   20975924.4924
   1447095.34856   1160256.21953  24673223.1884                   24673223.3094
   1711743.09448   1337230.11746  20322915.1644                   20322911.2894
   1445466.30157   1164051.61753  24554107.3834                   24554107.7344
 11  8 19 16 15  0.0000000  0 11G03G06G07G08G10G13G16G19G11G23G28
   1100355.41848    863852.80945  21007818.5944                   21007816.9024
   2803153.75447   2182499.27745  22755249.3914                   22755248.5004
  -4128945.07047  -3192437.84445  22036214.0394                   22036211.8794
  -4398881.52746  -3408064.17244  23962675.5394                   23962674.7814
   -442118.48847   -328675.21544  23805252.4844                   23805252.7234
  -1927955.85548  -1483625.07046  19920272.2974                   19920269.4734
   5157110.99647   4002399.68044  23213621.5084                   23213619.6884
  -3539041.11748  -2732033.38346  20963788.0784                   20963784.4454
   1340263.47746   1077010.62943  24652893.5704                   24652894.4304
   1730544.10248   1351880.22746  20326493.0634                   20326489.0084
   1338319.81347   1080560.88343  24533718.1484                   24533718.4884
 11  8 19 16 15 30.0000000  0 11G03G06G07G08G10G13G16G19G11G23G28
   1111594.29348    872610.33645  21009957.1024                   21009955.6334
   2836412.66047   2208415.27744  22761579.2114                   22761577.4104
  -4218166.99247  -3261961.39546  22019235.1174                   22019233.6294
  -4499484.54346  -3486456.07043  23943530.4224                   23943531.0274
   -459382.20747   -342127.53544  23801967.0944                   23801967.7664
  -1965615.40248  -1512970.17646  19913106.0554                   19913103.0044
   5213422.48847   4046278.69144  23224337.6954                   23224335.7814
  -3602294.93448  -2781322.07046  20951751.0704                   20951747.1954
   1233241.74646    993617.12143  24632527.8674                   24632529.0864
   1749844.95348   1366919.82846  20330165.7344                   20330161.6294
   1231354.12547    997211.00443  24513363.0084                   24513362.9064
 11  8 19 16 16  0.0000000  0 11G03G06G07G08G10G13G16G19G11G23G28
   1123366.19148    881783.21945  21012197.9694                   21012195.9414
   2870053.05947   2234628.52344  22767980.3674                   22767979.2114
  -4307401.07047  -3331494.42645  22002254.3364                   22002252.6214
  -4600198.52846  -3564934.45943  23924365.4454                   23924365.8324
   -476250.47346   -355271.68743  23798757.7734                   23798757.8984
  -2002739.97347  -1541898.41446  19906041.3754                   19906038.3244
   5269698.33247   4090129.94144  23235046.4224                   23235044.6644
  -3665015.83648  -2830195.50846  20939815.3834                   20939812.0704
   1126020.93047    910068.44943  24612124.2034                   24612124.7624
   1769632.93048   1382338.99646  20333931.2274                   20333927.0784
   1124558.45347    913993.61743  24493039.9844                   24493039.9844
 11  8 19 16 16 30.0000000  0 11G03G06G07G08G10G13G16G19G11G23G28
   1135677.18048    891376.17245  21014540.1174                   21014538.3204
   2904080.46547   2261143.35544  22774455.5234                   22774454.6484
  -4396639.12547  -3401030.55945  21985273.0554                   21985271.4774
  -4701016.27046  -3643493.69944  23905180.9384                   23905180.5824
   -492717.34847   -368103.05943  23795624.0004                   23795624.2974
  -2039322.25047  -1570404.09446  19899079.8984                   19899077.3164
   5325944.43046   4133958.00844  23245750.0394                   23245747.3984
  -3727194.76248  -2878646.62546  20927983.8134                   20927979.7074
   1018611.02246    826372.41543  24591685.2894                   24591685.5394
   1789914.44948   1398142.75046  20337790.9844                   20337786.7114
   1017940.48847    830914.65643  24472751.9454                   24472751.9414
 11  8 19 16 17  0.0000000  0 11G03G06G07G08G10G13G16G19G11G23G28
   1148539.69948    901398.89545  21016987.7974                   21016986.1214
   2938506.86347   2287969.07444  22781006.8444                   22781005.2894
  -4485866.18447  -3470558.12545  21968293.7034                   21968292.3754
  -4801922.94146  -3722122.27743  23885978.8914                   23885978.6374
   -508770.00846   -380611.68444  23792569.3914                   23792569.4454
  -2075346.53548  -1598474.96946  19892224.7664                   19892222.0824
   5382173.11347   4177772.50844  23256449.9064                   23256447.4064
  -3788815.99248  -2926663.16046  20916257.4694                   20916253.5634
    911028.60246    742541.99243  24571212.8674                   24571213.2584
   1810702.45748   1414341.18046  20341746.7584                   20341742.7424
    911515.92246    747986.44743  24452499.6804                   24452499.6294
 11  8 19 16 17 30.0000000  0 11G03G06G07G08G10G13G16G19G11G23G28
   1161944.27748    911844.00045  21019538.9064                   21019537.2974
   2973322.43447   2315098.04344  22787631.7734                   22787630.7624
  -4575089.32047  -3540082.64146  21951315.3204                   21951313.1374
  -4902926.52347  -3800826.33643  23866758.2274                   23866757.6374
   -524418.02347   -392804.97343  23789591.8134                   23789591.5944
  -2110819.64148  -1626116.35946  19885474.3594                   19885471.8554
   5438375.04747   4221566.14844  23267144.9614                   23267142.5664
  -3849885.77048  -2974250.00846  20904636.4144                   20904632.2734
    803268.16446    658572.86743  24550706.2734                   24550706.9774
   1831987.84448   1430927.16846  20345797.0004                   20345792.9224
    805276.46546    665202.42242  24432283.1884                   24432283.5594
 11  8 19 16 18  0.0000000  0 11G03G06G07G08G10G13G16G19G11G23G28
   1175882.73448    922705.14145  21022191.2974                   21022190.0124
   3008518.83647   2342523.75844  22794329.5944                   22794328.3754
  -4664314.34847  -3609608.62145  21934336.2034                   21934334.1214
  -5004033.32446  -3879610.85543  23847518.1024                   23847517.7704
   -539669.29346   -404689.14544  23786689.5944                   23786690.2584
  -2145747.53548  -1653332.91446  19878827.6884                   19878824.8014
   5494542.37947   4265332.86744  23277833.0554                   23277831.4064
  -3910408.97348  -3021410.94946  20893118.8834                   20893115.1414
    695325.40246    574461.62143  24530165.1254                   24530165.6174
   1853763.19948   1447894.94946  20349940.9614                   20349936.8524
    699216.57746    582558.39443  24412100.6334                   24412101.0354
 11  8 19 16 18 30.0000000  0 11G03G06G07G08G10G13G16G19G11G23G28
   2765767.85948   2161576.64845  21324736.2584                   21324734.6684
   4619507.15247   3597839.27344  23100890.5314                   23100889.5164
  -3178122.49648  -2451537.03945  22217148.9064                   22217146.9534
  -3529825.02347  -2730877.06643  24128050.8834                   24128050.5084
   1020889.64847    811330.78944  24083653.8914                   24083654.1724
   -604713.16448   -452526.92246  20172077.0634                   20172074.3014
   7126086.16046   5536665.60544  23588305.7814                   23588303.4734
  -2394967.38348  -1840547.36746  21181497.9774                   21181494.3754
   2162620.96546   1717808.86743  24809382.8914                   24809383.2074
   3451440.91048   2692838.59446  20653968.7114                   20653964.5704
   2168754.82446   1727653.15243  24691744.5474                   24691745.0664
 11  8 19 16 19  0.0000000  0 11G03G06G07G08G10G13G16G19G11G23G28
   2780776.82848   2173271.94545  21327592.4924                   21327590.6454
   4655466.31347   3625859.35944  23107733.8284                   23107732.2544
  -3267340.49248  -2521057.54345  22200171.2344                   22200169.5904
  -3631129.62946  -2809815.69143  24108773.4304                   24108773.3284
   1006434.68047    800067.13343  24080903.8054                   24080903.5594
   -638539.75448   -478885.30946  20165640.2114                   20165637.5044
   7182186.68047   5580380.22744  23598981.1724                   23598979.2114
  -2454385.23048  -1886846.98446  21170191.4454                   21170187.5474
   2054328.48046   1633425.14143  24788774.3594                   24788775.7734
   3474199.57848   2710572.59446  20658299.4454                   20658295.5354
   2063063.19546   1645296.05942  24671632.0314                   24671632.0234
 11  8 19 16 19 30.0000000  0 11G03G06G07G08G10G13G16G19G11G23G28
   2796320.12548   2185383.59845  21330549.9614                   21330548.6024
   4691805.01247   3654175.18844  23114648.4844                   23114647.6254
  -3356552.45347  -2590573.34045  22183194.7424                   22183193.1804
  -3732531.71947  -2888830.28544  24089477.7734                   24089476.9224
    992376.84847    789112.94143  24078228.5634                   24078228.9924
   -671812.78948   -504812.35946  20159308.5084                   20159305.8204
   7238252.89846   5624068.14844  23609650.2734                   23609648.6414
  -2513247.14848  -1932713.39846  21158990.0864                   21158986.4414
   1945866.17246   1548909.09442  24768135.5554                   24768135.6914
   3497449.28148   2728689.20746  20662724.3594                   20662720.0274
   1957557.76646   1563084.09443  24651554.9144                   24651554.6844
 11  8 19 16 20  0.0000000  0 11G03G06G07G08G10G13G16G19G11G23G28
   2812388.51248   2197904.38745  21333607.9224                   21333606.3444
   4728514.12947   3682779.63344  23121633.9064                   23121633.0004
  -3445764.45747  -2660089.17646  22166218.3444                   22166216.4064
  -3834038.03147  -2967926.08644  24070160.7894                   24070161.2464
    978707.15247    778461.21543  24075627.1954                   24075628.1214
   -704538.91048   -530313.25046  20153080.7034                   20153077.8324
   7294276.12546   5667722.53944  23620310.6804                   23620309.3874
  -2571558.67248  -1978150.93746  21147893.7344                   21147890.1954
   1837229.33646   1464257.09843  24747462.6024                   24747463.3284
   3521181.48848   2747181.81346  20667240.3524                   20667236.1414
   1852232.01245   1481012.12543  24631512.0864                   24631512.2304
 11  8 19 16 20 30.0000000  0 11G03G06G07G08G10G13G16G19G11G23G28
   2828990.74248   2210841.15645  21336767.2194                   21336765.5394
   4765601.67647   3711678.99244  23128691.8834                   23128690.3204
  -3534965.93747  -2729596.82045  22149243.9144                   22149242.0904
  -3935638.65247  -3047095.34444  24050827.1564                   24050826.2774
    965434.12146    768118.54343  24073101.5784                   24073101.6914
   -736707.18047   -555379.44146  20146959.3914                   20146956.5824
   7350265.02046   5711350.18444  23630966.0394                   23630963.5554
  -2629307.97348  -2023150.39546  21136904.2974                   21136900.5354
   1728430.46946   1379478.83643  24726759.2114                   24726758.7504
   3545405.01648   2766057.25446  20671849.7034                   20671845.9734
   1747096.62146   1399088.56643  24611505.2274                   24611505.4104
 11  8 19 16 21  0.0000000  0 11G03G06G07G08G10G13G16G19G11G23G28
   2846123.94548   2224191.67245  21340027.7974                   21340026.0704
   4803064.48047   3740870.75044  23135820.6954                   23135819.8524
  -3624156.59847  -2799096.03145  22132271.6564                   22132269.2154
  -4037334.30547  -3126338.67643  24031474.5164                   24031474.5474
    952555.10247    758082.93043  24070650.9224                   24070650.3834
   -768317.96147   -580011.23846  20140944.2664                   20140941.2584
   7406217.09446   5754949.15244  23641612.5864                   23641611.0474
  -2686494.91848  -2067711.65246  21126022.0004                   21126018.4344
   1619470.86746   1294575.35943  24706024.1724                   24706024.5904
   3570117.55548   2785313.73446  20676552.2194                   20676548.1884
   1642151.10546   1317312.92643  24591534.8364                   24591535.0904
 11  8 19 16 21 30.0000000  0 11G03G06G07G08G10G13G16G19G11G23G28
   2863782.14148   2237951.27345  21343387.8674                   21343386.0594
   4840896.40247   3770350.14544  23143019.4694                   23143018.0824
  -3713339.62947  -2868589.29745  22115300.4924                   22115298.2664
  -4139128.71547  -3205658.94944  24012103.7814                   24012103.4844
    940064.26647    748349.75043  24068274.1724                   24068274.3164
   -799374.63348   -604211.25446  20135034.2734                   20135031.4344
   7462126.70346   5798515.00844  23652252.1954                   23652250.4884
  -2743122.26647  -2111836.85246  21115246.6414                   21115242.0664
   1510349.05546   1209545.51243  24685259.1024                   24685259.5704
   3595313.64548   2804947.01646  20681346.9304                   20681342.9694
   1537391.74246   1235682.33243  24571599.5314                   24571599.9104
 11  8 19 16 22  0.0000000  0 11G03G06G07G08G10G13G16G19G11G23G28
   2881967.90248   2252121.95345  21346848.4304                   21346847.3404
   4879099.52347   3800118.78944  23150288.8444                   23150288.4184
  -3802510.26647  -2938072.88745  22098332.0554                   22098329.7464
  -4241018.00047  -3285053.14143  23992715.2194                   23992714.8324
    927964.09847    738921.02344  24065971.7664                   24065971.4774
   -829872.31248   -627975.70346  20129230.9384                   20129227.9654
   7517996.25847   5842049.68044  23662883.8054                   23662882.0124
  -2799184.37948  -2155521.60946  21104577.7424                   21104574.2194
   1401071.41446   1124394.16443  24664463.7504                   24664464.6414
   3620995.94148   2824959.16046  20686234.1334                   20686229.8204
   1432822.93046   1154200.24643  24551700.8364                   24551700.6914
 11  8 19 16 22 30.0000000  0 11G03G06G07G08G10G13G16G19G11G23G28
   2900695.11348   2266714.55145  21350412.4844                   21350410.5944
   4917687.30547   3830187.14144  23157632.2894                   23157631.7504
  -3891651.66848  -3007533.71146  22081368.9924                   22081366.6994
  -4342985.90647  -3364508.59044  23973310.8134                   23973311.0784
    916268.45347    729807.52044  24063746.2114                   24063746.4304
   -859794.45348   -651291.68046  20123536.6884                   20123533.5744
   7573840.22347   5885564.37544  23673510.3594                   23673509.3634
  -2854664.39148  -2198752.78146  21094020.5864                   21094016.5124
   1291656.28946   1039135.77743  24643643.2114                   24643643.3164
   3647178.72748   2845361.30146  20691216.5474                   20691212.3714
   1328461.09046   1072879.43444  24531841.1094                   24531841.5314
 11  8 19 16 23  0.0000000  0 11G03G06G07G08G10G13G16G19G11G23G28
   2919942.64148   2281712.57845  21354075.0084                   21354073.2814
   4956638.29747   3860538.53544  23165044.4224                   23165043.5944
  -3980782.31647  -3076986.18445  22064408.2974                   22064406.0554
  -4445051.24646  -3444039.99244  23953889.2034                   23953888.6294
    904956.59047    720993.05544  24061593.0554                   24061593.0164
   -889159.56648   -674173.60246  20117948.5784                   20117945.8634
   7629637.87147   5929042.98044  23684128.9064                   23684127.3054
  -2909580.12948  -2241544.25446  21083570.1024                   21083566.5044
   1182086.78146    953757.03542  24622792.0474                   24622792.7624
   3673841.41048   2866137.37946  20696290.2974                   20696286.4964
   1224287.30546    991705.14143  24512017.4224                   24512017.7584
 11  8 19 16 23 30.0000000  0 11G03G06G07G08G10G13G16G19G11G23G28
   2939700.55148   2297108.30945  21357834.6174                   21357833.3284
   4995942.43447   3891165.09444  23172523.9384                   23172523.1414
  -4069909.20747  -3146435.67245  22047447.6024                   22047445.6764
  -4547221.77047  -3523653.34044  23934446.8834                   23934446.5554
    894018.48447    712469.80543  24059512.2894                   24059512.7504
   -917974.90248   -696627.14146  20112465.2424                   20112462.6054
   7685379.80147   5972478.19944  23694736.0704                   23694734.1994
  -2963938.53148  -2283901.45346  21073225.9924                   21073222.5354
   1072357.50446    868253.80943  24601911.6564                   24601911.5274
   3700974.25448   2887279.81646  20701453.7424                   20701449.6414
   1120294.16047    910671.63343  24492228.1414                   24492227.9534
 11  8 19 16 24  0.0000000  0 11G03G06G07G08G10G13G16G19G11G23G28
   2959982.50448   2312912.37945  21361694.6644                   21361692.7114
   5035613.12947   3922077.28944  23180073.0784                   23180072.2584
  -4159015.64547  -3215869.25045  22030491.1334                   22030489.3244
  -4649481.85246  -3603336.45343  23914986.9304                   23914986.8874
    883467.86347    704248.50443  24057504.7344                   24057504.6294
   -946224.51248   -718639.84046  20107089.7664                   20107087.0634
   7741080.14846   6015880.98844  23705335.9694                   23705334.7274
  -3017722.66848  -2325811.14846  21062991.2344                   21062987.9144
    962486.51246    782640.13343  24581003.5634                   24581003.9804
   3728591.58648   2908799.78546  20706709.1724                   20706705.1214
   1016497.25847    829791.01643  24472476.5394                   24472476.0904
 11  8 19 16 24 30.0000000  0 11G03G06G07G08G10G13G16G19G11G23G28
   2980786.36747   2329123.13745  21365653.1484                   21365651.6024
   5075647.76247   3953273.05544  23187691.6414                   23187691.0234
  -4248101.00447  -3285286.40245  22013538.9384                   22013536.8754
  -4751831.43047  -3683089.34844  23895510.5864                   23895510.2814
    873302.86746    696327.69543  24055569.6564                   24055570.0434
   -973908.07048   -740211.46946  20101821.5004                   20101818.8524
   7796737.11346   6059249.97744  23715926.7424                   23715925.2114
  -3070931.68748  -2367272.71946  21052865.9454                   21052862.3834
    852475.89546    696917.68043  24560069.9694                   24560069.8874
   3756691.53948   2930695.80946  20712056.5314                   20712052.0634
    912897.20347    749063.79343  24452761.7894                   24452762.1254
 11  8 19 16 25  0.0000000  0 11G03G06G07G08G10G13G16G19G11G23G28
   3002108.38748   2345737.64845  21369710.6954                   21369708.9654
   5116042.48847   3984749.41444  23195378.6094                   23195377.9224
  -4337166.07447  -3354687.74246  21996590.3444                   21996588.4304
  -4854271.90247  -3762913.02044  23876017.1024                   23876016.3364
    863519.67647    688704.40243  24053707.8914                   24053708.3634
  -1001026.84848   -761343.00046  20096661.4534                   20096658.4924
   7852347.57046   6102582.73444  23726509.2504                   23726507.5354
  -3123565.94948  -2408286.41846  21042850.1484                   21042846.1644
    742326.41046    611087.02043  24539109.0164                   24539108.8364
   3785270.80948   2952965.33246  20717494.4924                   20717490.9104
    809492.53147    668488.81643  24433084.0004                   24433084.0514
 11  8 19 16 25 30.0000000  0 11G03G06G07G08G10G13G16G19G11G23G28
   3023941.48047   2362750.41445  21373865.8284                   21373863.7074
   5156789.94947   4016500.63744  23203132.3364                   23203131.3794
  -4426215.11747  -3424076.61346  21979645.1884                   21979643.1024
  -4956808.43747  -3842811.59443  23856505.0004                   23856504.0904
    854111.38746    681373.23043  24051917.0314                   24051917.9654
  -1027585.05548   -782037.72746  20091607.4144                   20091604.5004
   7907904.68047   6145873.91844  23737081.7194                   23737080.1644
  -3175629.59448  -2448855.49246  21032942.6804                   21032938.9344
    632035.61346    525146.18843  24518120.5864                   24518121.1454
   3814322.62948   2975603.07846  20723023.0944                   20723019.2734
    706278.00047    588062.01243  24413443.3834                   24413443.4144
 11  8 19 16 26  0.0000000  0 11G03G06G07G08G10G13G16G19G11G23G28
   3046279.75048   2380156.82445  21378116.2814                   21378114.8594
   5197883.41447   4048521.46944  23210952.3524                   23210951.2274
  -4515251.56647  -3493455.65246  21962701.8364                   21962699.8834
  -5059444.97347  -3922788.05944  23836973.2194                   23836973.0044
    845071.97746    674329.46143  24050197.7734                   24050197.7154
  -1053587.30548   -802299.23846  20086659.1724                   20086656.3714
   7963402.95347   6189119.23444  23747643.1094                   23747640.6134
  -3227126.00448  -2488982.57046  21023143.5634                   21023139.6604
    521601.39846    439093.62543  24497105.5704                   24497106.4804
   3843841.03548   2998604.39146  20728640.2274                   20728636.0084
    603249.88647    507780.39143  24393837.6094                   24393837.8164
 11  8 19 16 26 30.0000000  0 11G03G06G07G08G10G13G16G19G11G23G28
   3069137.27047   2397967.84845  21382465.8754                   21382464.1094
   5239337.06647   4080822.96544  23218841.1094                   23218840.1024
  -4604258.09847  -3562811.37946  21945764.5394                   21945762.2974
  -5162165.01647  -4002829.61744  23817426.6954                   23817425.3204
    836415.76646    667584.32443  24048549.7664                   24048550.7624
  -1079016.24248   -822114.01646  20081820.4694                   20081817.3754
   8018857.10546   6232330.20744  23758195.5004                   23758192.9804
  -3278038.07048  -2528654.30946  21013455.1954                   21013451.3954
    411042.54746    352943.93843  24476067.3754                   24476068.0744
   3873840.93848   3021980.89146  20734348.9614                   20734345.2974
    500425.05146    427657.16843  24374270.8754                   24374271.1454
 11  8 19 16 27  0.0000000  0 11G03G06G07G08G10G13G16G19G11G23G28
   3092500.24247   2416172.74245  21386911.6094                   21386910.5204
   5281137.11747   4113394.37544  23226795.6334                   23226794.2034
  -4693245.18747  -3632151.94946  21928830.7894                   21928829.2074
  -5264979.71147  -4082944.93744  23797862.1804                   23797860.9304
    828129.13346    661127.18843  24046973.5634                   24046974.0514
  -1103883.34448   -841491.00046  20077088.4144                   20077085.6484
   8074254.18047   6275496.68444  23768737.0944                   23768735.0274
  -3328376.10248  -2567878.74646  21003876.1644                   21003872.2424
    300350.23046    266690.24643  24455003.4534                   24455003.5394
   3904308.94148   3045722.14846  20740147.2894                   20740143.3634
    397791.90646    347683.31642  24354740.7734                   24354739.9774
 11  8 19 16 27 30.0000000  0 11G03G06G07G08G10G13G16G19G11G23G28
   3116369.30947   2434772.00845  21391453.8204                   21391452.3554
   5323283.92247   4146235.98444  23234815.4454                   23234814.2974
  -4782209.45348  -3701474.73846  21911901.2194                   21911899.1024
  -5367886.37147  -4163131.92243  23778279.1174                   23778278.0234
    820212.53946    654958.36743  24045467.1884                   24045467.4344
  -1128185.50848   -860427.76646  20072464.0704                   20072461.1054
   8129595.41847   6318619.66844  23779268.2894                   23779265.8794
  -3378136.51648  -2606653.09846  20994407.0784                   20994403.7344
    189529.43446    180336.48443  24433914.8054                   24433915.1484
   3935245.77348   3069828.73046  20746034.1724                   20746030.6724
    295353.32846    267861.07043  24335246.8524                   24335246.7384
 11  8 19 16 28  0.0000000  0 11G03G06G07G08G10G13G16G19G11G23G28
   3140743.22347   2453764.65245  21396092.1484                   21396090.2384
   5365775.76247   4179346.46144  23242901.6254                   23242900.8324
  -4871149.02047  -3770778.27746  21894977.0394                   21894974.8324
  -5470883.88347  -4243389.68443  23758679.1024                   23758678.2624
    812665.12946    649077.21543  24044031.0394                   24044031.4774
  -1151921.52748   -878923.39546  20067947.2274                   20067944.0204
   8184880.38747   6361698.77744  23789788.4844                   23789786.4654
  -3427317.48448  -2644975.92646  20985048.3754                   20985044.6764
     78583.62946     93885.24243  24412802.9224                   24412801.8914
   3966650.65248   3094300.02046  20752010.4694                   20752006.4024
    193110.57446    188191.45743  24315790.3134                   24315790.4304
 11  8 19 16 28 30.0000000  0 11G03G06G07G08G10G13G16G19G11G23G28
   3165619.59847   2473148.82045  21400825.8364                   21400824.4844
   5408610.32447   4212723.98444  23251052.8204                   23251051.2234
  -4960063.18048  -3840062.02345  21878057.0864                   21878054.8524
  -5573971.93447  -4323717.99243  23739061.9924                   23739061.3914
    805484.94946    643482.22343  24042664.2734                   24042664.9184
  -1175091.30948   -896977.78946  20063537.7274                   20063535.1294
   8240107.16046   6404732.55943  23800297.0084                   23800296.0434
  -3475918.35948  -2682846.73046  20975800.0164                   20975796.0904
    -32485.21946      7338.17243  24391666.4384                   24391666.3914
   3998521.58648   3119134.47746  20758075.3054                   20758071.3134
     91063.62146    108674.39143  24296371.6334                   24296371.4144
 11  8 19 16 29  0.0000000  0 11G03G06G07G08G10G13G16G19G11G23G28
   3190997.12548   2492923.50045  21405655.1174                   21405653.5554
   5451785.93047   4246367.26644  23259268.2034                   23259267.9264
  -5048950.14847  -3909324.57045  21861142.4924                   21861140.0784
  -5677149.68747  -4404116.19143  23719428.1334                   23719427.4774
    798670.70346    638172.38743  24041368.1564                   24041368.5354
  -1197693.89548   -914590.22346  20059237.1024                   20059234.1994
   8295275.45346   6447720.78543  23810796.1724                   23810794.0514
  -3523937.37948  -2720264.14846  20966661.5784                   20966658.3674
   -143673.44146    -79301.91443  24370507.4064                   24370508.2074
   4030857.82448   3144331.50446  20764228.8054                   20764224.9534
    -10786.21146     29310.92643  24276990.2734                   24276989.9414
 11  8 19 16 29 30.0000000  0 11G03G06G07G08G10G13G16G19G11G23G28
   3216871.93448   2513085.66045  21410578.9144                   21410577.2624
   5495298.53947   4280273.14844  23267549.0864                   23267548.3134
  -5137810.75047  -3978566.57846  21844232.3364                   21844230.7464
  -5780418.55147  -4484585.41843  23699776.5864                   23699775.8364
    792218.25446    633144.46143  24040139.6334                   24040140.7194
  -1219730.85548   -931761.90246  20055043.5164                   20055040.6684
   8350381.79746   6490660.69943  23821282.9224                   23821280.9454
  -3571375.85548  -2757229.19546  20957634.8674                   20957630.7424
   -254980.38746   -166034.49643  24349326.7584                   24349326.8444
   4063655.72348   3169888.26646  20770470.0474                   20770466.0164
   -112440.64546    -49900.25443  24257646.3524                   24257645.6764
 11  8 19 16 30  0.0000000  0 11G03G06G07G08G10G13G16G19G11G23G28
   3243238.85548   2533631.28945  21415596.4304                   21415594.7854
   5539142.82047   4314437.48044  23275892.5314                   23275891.2274
  -5226646.60247  -4047789.30146  21827327.8134                   21827325.4804
  -5883781.26246  -4565127.73843  23680106.8444                   23680106.9804
    786122.80546    628394.75043  24038980.3594                   24038980.9384
  -1241204.73048   -948494.81646  20050956.8834                   20050954.2894
   8405422.27747   6533549.33643  23831756.0474                   23831754.5984
  -3618235.34048  -2793743.09046  20948717.7114                   20948713.7074
   -366406.69547   -252860.06243  24328123.2194                   24328122.7464
   4096910.44148   3195801.00046  20776798.2424                   20776793.9964
   -213902.49246   -128961.39843  24238337.9924                   24238338.1914
 11  8 19 16 30 30.0000000  0 11G03G06G07G08G10G13G16G19G11G23G28
   3270102.99647   2554564.36345  21420708.5634                   21420707.1374
   5583323.80147   4348864.16444  23284299.0864                   23284298.3554
  -5315449.75847  -4116986.54346  21810429.3674                   21810427.0204
  -5987230.46546  -4645737.45744  23660421.3134                   23660421.1254
    780389.26646    623926.99643  24037889.4694                   24037889.7774
  -1262108.33248   -964783.35946  20046979.2734                   20046976.0664
   8460402.09046   6576390.68043  23842218.6884                   23842217.1454
  -3664507.99248  -2829799.70346  20939912.2584                   20939908.4774
   -477942.51247   -339771.00843  24306898.2114                   24306898.6134
   4130627.38348   3222073.90646  20783214.1954                   20783210.3164
   -315164.50047   -207866.79743  24219068.9614                   24219069.0744
 11  8 19 16 31  0.0000000  0 11G03G06G07G08G10G13G16G19G11G23G28
   3297460.50447   2575881.87545  21425914.5394                   21425912.9534
   5627837.40247   4383550.02744  23292770.7814                   23292769.5004
  -5404220.74647  -4186158.72746  21793536.2814                   21793534.0434
  -6090767.12946  -4726415.32444  23640718.7814                   23640718.6914
    775014.66846    619738.98043  24036867.0784                   24036867.3284
  -1282442.44948   -980628.14146  20043109.5704                   20043107.1094
   8515318.62946   6619182.74244  23852668.9694                   23852667.3444
  -3710194.73448  -2865399.75446  20931218.5474                   20931214.7854
   -589586.55946   -426766.23443  24285653.7584                   24285653.2424
   4164803.39848   3248704.52746  20789717.9304                   20789713.6214
   -416227.62947   -286617.23843  24199836.7114                   24199836.9884
 11  8 19 16 31 30.0000000  0 11G03G06G07G08G10G13G16G19G11G23G28
   3325313.14147   2597585.19945  21431214.7734                   21431213.2664
   5672685.39147   4418496.48444  23301304.2894                   23301303.8244
  -5492954.24648  -4255301.70346  21776650.9224                   21776648.6644
  -6194386.83647  -4807157.92244  23621000.7194                   23621000.8714
    770000.39146    615831.73043  24035911.9224                   24035912.6454
  -1302203.32448   -996026.24646  20039349.5004                   20039346.5204
   8570174.89846   6661927.81643  23863108.1884                   23863106.3244
  -3755291.02048  -2900539.71946  20922637.0474                   20922633.1524
   -701332.47346   -513840.86743  24264388.4924                   24264388.5084
   4199440.21148   3275694.21546  20796309.4224                   20796305.6094
   -517087.81647   -365209.56643  24180644.1804                   24180644.1454
 11  8 19 16 32  0.0000000  0 11G03G06G07G08G10G13G16G19G11G23G28
   3353649.75047   2619665.64145  21436607.0314                   21436605.6684
   5717856.00847   4453694.31344  23309900.6024                   23309900.0904
  -5581658.80948  -4324422.12946  21759771.7114                   21759768.9614
  -6298098.65647  -4887972.28944  23601265.4064                   23601264.9414
    765335.01246    612196.33243  24035024.1954                   24035025.0864
  -1321400.37548  -1010985.00446  20035696.3134                   20035693.4734
   8624959.91846   6704617.37143  23873532.7424                   23873531.6484
  -3799805.23048  -2935226.10946  20914166.1484                   20914162.4144
   -813186.84446   -601000.01643  24243102.5554                   24243103.1914
   4234527.07848   3303034.59046  20802986.2814                   20802982.4384
   -617754.11346   -443650.77043  24161488.6024                   24161487.6844
 11  8 19 16 32 30.0000000  0 11G03G06G07G08G10G13G16G19G11G23G28
   3382470.66847   2642123.46945  21442091.0864                   21442089.5314
   5763349.85547   4489144.02344  23318557.6644                   23318556.6804
  -5670330.43047  -4393516.88746  21742897.6724                   21742894.5744
  -6401899.08247  -4968855.68744  23581512.5084                   23581512.5204
    761019.79746    608833.80143  24034202.9614                   24034203.8484
  -1340030.19948  -1025501.76246  20032151.2814                   20032148.6644
   8679675.47746   6747252.79343  23883945.5634                   23883943.8164
  -3843733.59448  -2969455.99646  20905806.7734                   20905802.9264
   -925144.33646   -688239.52743  24221798.3364                   24221798.7074
   4270064.87548   3330726.34446  20809748.7584                   20809744.7034
   -718223.59046   -521938.60543  24142369.5944                   24142369.1334
 11  8 19 16 33  0.0000000  0 11G03G06G07G08G10G13G16G19G11G23G28
   3411767.40247   2664952.05945  21447666.4144                   21447664.7234
   5809158.43447   4524838.98444  23327274.2584                   23327273.7344
  -5758974.33248  -4462590.05546  21726029.0634                   21726026.7034
  -6505794.39147  -5049813.03144  23561742.4144                   23561741.7344
    757046.07046    605737.37543  24033447.0314                   24033447.2974
  -1358099.06248  -1039581.41046  20028713.1724                   20028710.0164
   8734313.99646   6789828.19944  23894342.9774                   23894341.0434
  -3887081.79748  -3003233.79746  20897557.7194                   20897554.4224
  -1037208.65246   -775562.27043  24200473.8134                   24200473.3954
   4306045.43448   3358763.09846  20816595.2424                   20816591.1844
   -818502.21146   -600077.75843  24123286.7194                   24123286.5434
 11  8 19 16 33 30.0000000  0 11G03G06G07G08G10G13G16G19G11G23G28
   3441547.09847   2688156.99245  21453333.2894                   21453331.6414
   5855288.54747   4560784.48444  23336052.6024                   23336052.0394
  -5847580.01248  -4531633.43046  21709167.7584                   21709165.9064
  -6609774.66847  -5130836.57444  23541955.7344                   23541955.0594
    753420.94146    602912.60243  24032757.4304                   24032757.5744
  -1375597.48848  -1053216.55546  20025382.7584                   20025380.5434
   8788883.88346   6832350.09443  23904727.5864                   23904725.2664
  -3929840.09048  -3036551.93046  20889421.4534                   20889417.6484
  -1149367.81646   -862958.90243  24179129.8444                   24179129.6804
   4342476.13348   3387150.60946  20823527.8914                   20823524.0554
   -918580.59046   -678060.85543  24104242.2894                   24104241.8554
 11  8 19 16 34  0.0000000  0 11G03G06G07G08G10G13G16G19G11G23G28
   3471796.96947   2711728.27745  21459089.7274                   21459088.4144
   5901727.26246   4596970.44144  23344889.8524                   23344889.3954
  -5936156.68448  -4600654.20746  21692312.4304                   21692310.3244
  -6713850.09847  -5211934.27344  23522150.3674                   23522149.5274
    750131.84846    600349.64543  24032131.3984                   24032131.7894
  -1392536.05948  -1066415.45346  20022159.7344                   20022157.0664
   8843372.48846   6874808.66044  23915095.8054                   23915094.2704
  -3972018.07848  -3069417.88346  20881395.1414                   20881391.2034
  -1261629.70346   -950435.62943  24157767.1024                   24157767.0634
   4379344.55548   3415879.21146  20830543.6414                   20830539.8324
  -1018468.85946   -755895.81644  24085234.5554                   24085234.6254
 11  8 19 16 34 30.0000000  0 11G03G06G07G08G10G13G16G19G11G23G28
   3502537.35548   2735681.80145  21464939.3204                   21464937.9454
   5948494.90646   4633412.70744  23353789.9924                   23353789.0204
  -6024680.65648  -4669633.93446  21675466.6884                   21675464.4574
  -6817997.59046  -5293088.10944  23502331.5394                   23502331.0864
    747199.48846    598064.66843  24031573.1484                   24031574.3134
  -1408892.12548  -1079160.44946  20019047.5084                   20019044.1174
   8897801.77346   6917221.02743  23925453.6954                   23925451.7344
  -4013592.75048  -3101813.72746  20873483.5004                   20873479.5234
  -1373968.80546  -1037972.48443  24136389.3134                   24136389.0594
   4416671.41848   3444965.03546  20837647.3914                   20837643.1484
  -1118144.12946   -833564.78943  24066266.5554                   24066266.4654
 11  8 19 16 35  0.0000000  0 11G03G06G07G08G10G13G16G19G11G23G28
   3533742.73447   2759997.64145  21470877.5704                   21470876.4844
   5995565.80446   4670091.28244  23362746.8754                   23362746.3594
  -6113174.35948  -4738590.05946  21658626.9534                   21658624.7114
  -6922240.20747  -5374316.06244  23482494.6804                   23482493.7544
    744598.10246    596037.58643  24031078.6174                   24031078.9884
  -1424689.03148  -1091469.73846  20016041.0234                   20016038.3554
   8952147.13346   6959567.97744  23935795.5314                   23935793.9534
  -4054586.86348  -3133757.19146  20865682.8054                   20865679.2894
  -1486405.95747  -1125585.75443  24114993.3914                   24114993.7194
   4454431.43048   3474388.37546  20844832.4844                   20844828.3094
  -1217629.88746   -911086.09443  24047335.8134                   24047334.5744
 11  8 19 16 35 30.0000000  0 11G03G06G07G08G10G13G16G19G11G23G28
   3565405.03148   2784669.52345  21476903.1334                   21476901.3954
   6042932.09846   4707000.02744  23371760.6094                   23371759.7774
  -6201641.82848  -4807525.75446  21641792.3284                   21641789.7814
  -7026582.73847  -5455621.88743  23462638.8984                   23462638.3594
    742320.32446    594262.66443  24030644.9304                   24030645.3094
  -1439932.40248  -1103347.70346  20013140.2814                   20013137.8594
   9006401.78946   7001844.23443  23946119.9774                   23946117.6804
  -4095005.30948  -3165252.08646  20857991.3284                   20857987.4774
  -1598943.89846  -1213277.59443  24093578.1484                   24093578.1724
   4492617.23448   3504143.50046  20852099.1414                   20852095.4184
  -1316931.41446   -988463.80543  24028438.5944                   24028438.8444
 11  8 19 16 36  0.0000000  0 11G03G06G07G08G10G13G16G19G11G23G28
   3597534.71947   2809705.62945  21483016.7114                   21483015.2854
   6090604.05546   4744146.95744  23380832.6254                   23380831.6334
  -6290069.33648  -4876430.29346  21624964.8594                   21624962.7034
  -7131012.43447  -5536995.62143  23442766.3364                   23442765.8284
    740376.60546    592748.03943  24030275.7584                   24030275.4184
  -1454609.55148  -1114784.45346  20010347.4064                   20010344.6684
   9060577.19946   7044058.76244  23956428.8134                   23956427.4454
  -4134834.84448  -3196288.08246  20850412.0314                   20850407.9614
  -1711567.58646  -1301036.22343  24072146.0784                   24072146.1374
   4531239.59448   3534238.80546  20859448.4614                   20859444.5474
  -1416036.00846  -1065688.09443  24009579.7664                   24009579.4844
 11  8 19 16 36 30.0000000  0 11G03G06G07G08G10G13G16G19G11G23G28
   3630133.90247   2835107.55945  21489220.5864                   21489218.7854
   6138583.59446   4781533.54344  23389962.6414                   23389961.4844
  -6378451.68048  -4945299.65246  21608146.5164                   21608144.3524
  -7235524.50446  -5618433.53144  23422877.9064                   23422877.6954
    738768.80546    591495.18843  24029968.9924                   24029969.6914
  -1468715.96948  -1125776.48046  20007663.1804                   20007660.5044
   9114676.43446   7086213.94543  23966724.3984                   23966721.9774
  -4174070.62548  -3226861.43046  20842945.8284                   20842941.8134
  -1824269.70346  -1388855.97743  24050699.9694                   24050699.4694
   4570300.62548   3564675.92246  20866881.7274                   20866877.9224
  -1514938.90646  -1142755.24243  23990759.1564                   23990758.1134
 11  8 19 16 37  0.0000000  0 11G03G06G07G08G10G13G16G19G11G23G28
   3663191.60947   2860866.78945  21495511.0234                   21495509.6914
   6186859.35546   4819150.96544  23399149.2504                   23399148.6094
  -6466796.33248  -5014139.62946  21591335.2344                   21591332.7234
  -7340127.28146  -5699942.17244  23402973.0164                   23402972.5434
    737485.90246    590495.48443  24029724.6254                   24029725.6804
  -1482261.12148  -1136331.15246  20005085.6174                   20005083.3324
   9168689.50846   7128301.95343  23977002.2894                   23977000.3404
  -4212721.46148  -3256978.95746  20835590.6094                   20835586.6914
  -1937056.67246  -1476741.87943  24029237.5864                   24029236.9224
   4609789.19948   3595446.20346  20874396.1724                   20874392.2384
  -1613649.29746  -1219672.33243  23971974.7114                   23971974.1994
 11  8 19 16 37 30.0000000  0 11G03G06G07G08G10G13G16G19G11G23G28
   3696700.99247   2886977.98045  21501887.5634                   21501885.8674
   6235424.97346   4856994.26644  23408390.8444                   23408389.4494
  -6555106.25048  -5082952.54746  21574530.1174                   21574527.9734
  -7444824.15647  -5781524.10544  23383049.6724                   23383049.7464
    736521.92646    589744.30543  24029541.6724                   24029542.1524
  -1495248.82848  -1146451.46146  20002614.0864                   20002611.3164
   9222611.26246   7170318.85943  23987263.1334                   23987261.6024
  -4250790.49248  -3286643.13746  20828346.3204                   20828342.3874
  -2049929.60946  -1564694.75443  24007758.4144                   24007758.1214
   4649699.45348   3626545.06346  20881991.2974                   20881986.9304
  -1712170.94946  -1296442.40643  23953226.8364                   23953225.8594
 11  8 19 16 38  0.0000000  0 11G03G06G07G08G10G13G16G19G11G23G28
   3730673.88347   2913450.33645  21508352.4774                   21508351.1134
   6284292.22347   4895072.57044  23417690.3284                   23417688.8284
  -6643365.75448  -5151726.16446  21557734.7034                   21557732.8094
  -7549600.79747  -5863168.21144  23363111.5944                   23363111.1994
    735888.69546    589250.82043  24029420.9534                   24029421.8484
  -1507665.37948  -1156126.71546  20000251.3674                   20000248.7274
   9276454.99246   7212274.91043  23997509.4384                   23997508.1024
  -4288263.71148  -3315843.05146  20821215.6254                   20821211.5204
  -2162871.79346  -1652701.58243  23986265.7814                   23986265.6804
   4690043.75448   3657982.12946  20889668.4144                   20889664.1484
  -1810489.76246  -1373054.36343  23934517.4694                   23934516.3204
 11  8 19 16 38 30.0000000  0 11G03G06G07G08G10G13G16G19G11G23G28
   3765103.81647   2940278.81645  21514904.3134                   21514903.4184
   6333454.54346   4933380.80944  23427044.6724                   23427044.2584
  -6731577.85548  -5220462.85546  21540948.7584                   21540946.5904
  -7654460.28947  -5944876.88744  23343157.5004                   23343156.8754
    735579.87546    589010.16443  24029362.8594                   24029362.7854
  -1519514.52348  -1165359.82846  19997996.1334                   19997993.8594
   9330215.13746   7254165.87943  24007739.0704                   24007738.5704
  -4325144.71548  -3344581.48846  20814197.2344                   20814193.3094
  -2275884.64146  -1740763.46943  23964760.4844                   23964759.6334
   4730815.83248   3689752.53146  20897427.1334                   20897423.3324
  -1908609.28146  -1449511.08643  23915846.0474                   23915845.0864
 11  8 19 16 39  0.0000000  0 11G03G06G07G08G10G13G16G19G11G23G28
   3799989.11747   2967462.13745  21521542.8834                   21521541.8284
   6382910.17647   4971917.60944  23436456.2114                   23436455.9144
  -6819741.10948  -5289161.48046  21524172.0474                   21524169.7664
  -7759401.94547  -6026649.59044  23323187.7274                   23323187.0084
    735593.93046    589021.07843  24029365.1414                   24029365.3134
  -1530796.35548  -1174150.88346  19995849.9144                   19995847.1214
   9383890.88747   7295991.05944  24017953.5164                   24017952.6374
  -4361432.15648  -3372857.42646  20807292.0004                   20807288.4224
  -2388964.71947  -1828877.77743  23943242.2664                   23943241.2154
   4772014.02748   3721854.98846  20905266.8914                   20905263.2194
  -2006529.24246  -1525812.30943  23897212.5234                   23897211.3714
 11  8 19 16 39 30.0000000  0 11G03G06G07G08G10G13G16G19G11G23G28
   3835321.80147   2994994.06645  21528266.4694                   21528264.7194
   6432651.49647   5010677.02044  23445921.3594                   23445920.7894
  -6907859.18048  -5357824.89146  21507403.6884                   21507401.6844
  -7864430.19547  -6108489.75844  23303201.5394                   23303201.3484
    735923.54346    589277.89543  24029427.7974                   24029428.5664
  -1541516.19948  -1182504.02746  19993809.7034                   19993806.8364
   9437476.09446   7337745.68043  24028151.5004                   24028149.4574
  -4397131.04348  -3400674.74646  20800498.3914                   20800494.4224
  -2502114.64547  -1917046.46943  23921710.2974                   23921709.5124
   4813631.19548   3754283.90246  20913186.6174                   20913182.3524
  -2104254.71946  -1601961.94943  23878615.1254                   23878614.8834
 11  8 19 16 40  0.0000000  0 11G03G06G07G08G10G13G16G19G11G23G28
   3871107.16447   3022878.73045  21535076.2814                   21535074.5124
   6482683.30147   5049662.78544  23455442.5314                   23455442.2734
  -6995923.28948  -5426446.25846  21490645.2194                   21490643.1174
  -7969537.18747  -6190391.27744  23283200.4304                   23283199.4414
    736573.39146    589784.21943  24029551.7194                   24029552.4304
  -1551667.03148  -1190413.79346  19991877.7814                   19991875.4344
   9490977.18846   7379434.80543  24038331.6334                   24038330.1804
  -4432233.90248  -3428027.63746  20793819.0164                   20793815.2854
  -2615324.28147  -2005261.69943  23900167.5084                   23900166.4964
   4855672.72348   3787043.47746  20921186.8984                   20921182.7344
  -2201778.12546  -1677954.15643  23860058.1954                   23860056.9384
 11  8 19 16 40 30.0000000  0 11G03G06G07G08G10G13G16G19G11G23G28
   3907334.14547   3051107.52045  21541969.9844                   21541968.4924
   6532994.66847   5088866.37144  23465017.6094                   23465016.5084
  -7083941.25848  -5495031.65646  21473896.1024                   21473893.8524
  -8074731.24647  -6272360.64844  23263182.1644                   23263182.3324
    737532.63346    590531.66843  24029735.2274                   24029734.6484
  -1561257.77748  -1197887.11746  19990052.8204                   19990050.6374
   9544384.24646   7421050.62543  24048494.4924                   24048493.6414
  -4466749.18748  -3454922.67246  20787250.6644                   20787246.6724
  -2728599.17647  -2093527.77343  23878611.2734                   23878611.2034
   4898127.52048   3820125.08246  20929265.8364                   20929261.4614
  -2299108.45746  -1753795.92643  23841536.2734                   23841535.7734
 11  8 19 16 41  0.0000000  0 11G03G06G07G08G10G13G16G19G11G23G28
   5519420.20747   4307278.44145  21848739.8204                   21848738.7114
   8159002.82047   6355885.66844  23774436.0234                   23774435.1094
  -5596487.47748  -4335976.72746  21756949.2664                   21756946.9884
  -6604586.78547  -5126793.49244  23542941.8054                   23542941.1564
   2314220.56646   1819119.60543  24329767.3594                   24329768.1914
      5132.92248     22677.03946  20288126.9614                   20288124.3714
  11173115.91446   8690192.11743  24358431.7734                   24358430.6764
  -2925254.06248  -2253757.64846  21080587.7114                   21080583.7974
  -1266511.61747   -954238.71143  24156837.1804                   24156836.9534
   6516413.38348   5081127.00846  21237215.0234                   21237211.5744
   -820820.59046   -601883.23444  24122844.7114                   24122844.3404
 11  8 19 16 41 30.0000000  0 11G03G06G07G08G10G13G16G19G11G23G28
   5556523.99248   4336190.46145  21855800.6414                   21855799.1294
   8209867.25847   6395520.24644  23784114.9614                   23784114.6644
  -5684407.60548  -4404485.89546  21740218.7194                   21740216.4964
  -6709951.34447  -5208895.69944  23522891.5704                   23522890.9694
   2315793.66446   1820345.37543  24330066.7974                   24330068.0704
     -3337.18048     16076.94146  20286515.2584                   20286512.7234
  11226333.44546   8731660.25443  24368559.0554                   24368557.7584
  -2958591.89148  -2279735.18446  21074243.7114                   21074240.2234
  -1379907.89147  -1042599.38343  24135258.4774                   24135258.1454
   6559689.85548   5114848.89146  21245450.2814                   21245446.7624
   -917762.49246   -677422.32843  24104397.1414                   24104396.9384
 11  8 19 16 42  0.0000000  0 11G03G06G07G08G10G13G16G19G11G23G28
   5594071.44148   4365448.16845  21862945.3754                   21862943.8914
   8261013.22747   6435374.18044  23793847.7894                   23793846.7664
  -5772268.30548  -4472948.75846  21723499.2194                   21723497.0314
  -6815391.76247  -5291057.01644  23502827.3284                   23502826.5824
   2317678.65646   1821814.15244  24330425.9064                   24330426.4774
    -11238.87948      9919.75046  20285011.6884                   20285009.3444
  11279463.04346   8773059.87543  24378669.5944                   24378667.9654
  -2991332.24248  -2305247.14546  21068013.5084                   21068009.7734
  -1493352.16847  -1130997.47743  24113671.7194                   24113670.6134
   6603382.51648   5148895.06646  21253764.9774                   21253761.1884
  -1014501.84446   -752803.58244  24085987.9224                   24085988.0514
 11  8 19 16 42 30.0000000  0 11G03G06G07G08G10G13G16G19G11G23G28
   5632053.47348   4395044.53545  21870173.3594                   21870171.8364
   8312432.17646   6475440.83644  23803632.0164                   23803632.0984
  -5860074.50048  -4541369.14546  21706790.2034                   21706787.8284
  -6920913.48047  -5373281.67244  23482746.6094                   23482745.9614
   2319867.07446   1823519.39543  24330842.4064                   24330842.6564
    -18578.65248      4200.42646  20283614.9454                   20283612.5744
  11332497.33646   8814385.24243  24388761.9224                   24388760.2734
  -3023481.40648  -2330298.43446  21061895.6884                   21061891.9224
  -1606847.94547  -1219435.68043  24092073.6644                   24092072.5554
   6647482.74248   5183258.82846  21262156.8284                   21262153.0984
  -1111044.69146   -828031.73044  24067616.4844                   24067616.6884
 11  8 19 16 43  0.0000000  0 11G03G06G07G08G10G13G16G19G11G23G28
   5670476.51247   4424984.51645  21877484.8914                   21877483.9494
   8364130.05946   6515724.85244  23813471.4924                   23813469.8874
  -5947816.37148  -4609739.41446  21690093.1174                   21690091.0354
  -7026507.93747  -5455563.01244  23462652.6094                   23462652.1094
   2322365.07846   1825465.83643  24331317.8284                   24331318.6134
    -25348.50848     -1074.82046  20282326.7344                   20282324.5514
  11385443.90146   8855642.19443  24398836.9614                   24398835.9924
  -3055030.51248  -2354882.15646  21055892.1174                   21055888.1134
  -1720383.71147  -1307905.05143  24070468.1174                   24070467.7304
   6691997.23048   5217945.39146  21270628.0004                   21270623.9304
  -1207382.54346   -903100.13744  24049284.3754                   24049283.9414
 11  8 19 16 43 30.0000000  0 11G03G06G07G08G10G13G16G19G11G23G28
   5709327.28947   4455257.81645  21884878.0004                   21884877.1094
   8416094.14546   6556216.28944  23823358.9454                   23823358.6724
  -6035502.95348  -4678066.59446  21673407.0864                   21673405.0474
  -7132184.00447  -5537907.96944  23442543.3754                   23442542.5354
   2325160.13747   1827643.76643  24331849.7194                   24331850.1054
    -31559.16448     -5914.30946  20281144.8984                   20281142.3794
  11438291.91046   8896822.43843  24408893.7424                   24408892.2854
  -3085989.55948  -2379006.08246  21050000.3204                   21049996.5434
  -1833966.70747  -1396411.21543  24048854.6564                   24048853.0514
   6736913.84448   5252945.29746  21279175.2814                   21279171.6134
  -1303525.59846   -978016.73044  24030988.4844                   24030988.2584
 11  8 19 16 44  0.0000000  0 11G03G06G07G08G10G13G16G19G11G23G28
   5748596.11747   4485856.85945  21892350.8204                   21892348.9734
   8468314.91846   6596907.76644  23833296.6024                   23833295.9344
  -6123139.91848  -4746355.12546  21656730.4534                   21656728.2504
  -7237948.91847  -5620322.15244  23422416.9844                   23422415.4224
   2328242.52346   1830045.60543  24332436.1024                   24332436.7384
    -37218.29748    -10324.04346  20280067.8834                   20280065.3134
  11491032.47746   8937918.90643  24418930.2894                   24418928.6684
  -3116365.96948  -2402676.02046  21044220.1334                   21044216.3204
  -1947601.73446  -1484957.90643  24027230.2194                   24027229.6604
   6782222.47748   5288250.66446  21287796.9844                   21287793.1174
  -1399481.00447  -1052787.12944  24012729.3594                   24012728.6484
 11  8 19 16 44 30.0000000  0 11G03G06G07G08G10G13G16G19G11G23G28
   5788294.21147   4516790.41045  21899904.5474                   21899904.1024
   8520803.38346   6637807.80544  23843283.9774                   23843284.0704
  -6210712.40648  -4814593.41046  21640066.0634                   21640063.8244
  -7343788.23447  -5702794.31244  23402276.0164                   23402275.2894
   2331623.51646   1832680.08643  24333079.5634                   24333080.4574
    -42313.03948    -14293.99646  20279098.7734                   20279096.1024
  11543678.39846   8978941.63743  24428948.5314                   24428947.1414
  -3146145.90648  -2425881.18046  21038553.5084                   21038549.2664
  -2061272.34846  -1573532.33243  24005599.3444                   24005598.3284
   6827934.80148   5323870.60246  21296495.7974                   21296491.9844
  -1495235.55146  -1127400.96144  23994508.0784                   23994506.6844
 11  8 19 16 45  0.0000000  0 11G03G06G07G08G10G13G16G19G11G23G28
   5828406.89847   4548047.00845  21907538.4304                   21907536.4184
   8573545.11746   6678905.22744  23853320.6254                   23853321.0634
  -6298231.20348  -4882789.86346  21623411.4844                   21623409.3674
  -7449713.49247  -5785333.43744  23382119.3834                   23382118.3054
   2335288.83646   1835536.14543  24333777.1174                   24333777.8244
    -46855.60948    -17833.68746  20278234.5944                   20278232.0274
  11596216.94146   9019880.64843  24438946.2894                   24438945.0824
  -3175341.67248  -2448631.14146  21032997.4614                   21032993.5124
  -2174987.43447  -1662141.42243  23983959.5234                   23983959.3594
   6874036.21548   5359793.72346  21305268.7734                   21305265.0474
  -1590801.03146  -1201867.49644  23976322.0784                   23976321.6414
 11  8 19 16 45 30.0000000  0 11G03G06G07G08G10G13G16G19G11G23G28
   5868946.27747   4579636.11345  21915252.1414                   21915250.9694
   8626551.82046   6720209.09443  23863408.0394                   23863407.2934
  -6385680.82848  -4950932.41846  21606770.5634                   21606768.2194
  -7555709.99247  -5867928.09444  23361948.9384                   23361947.4964
   2339250.09446   1838622.79744  24334531.0784                   24334531.6604
    -50832.45348    -20932.54346  20277477.6414                   20277474.9414
  11648661.08646   9060746.17243  24448925.7974                   24448924.8874
  -3203939.09048  -2470914.85546  21027555.6024                   21027551.8834
  -2288730.25847  -1750772.13343  23962315.2734                   23962315.0004
   6920538.96148   5396029.57446  21314118.1174                   21314114.4384
  -1686163.31246  -1276175.70743  23958174.6804                   23958174.9964
 11  8 19 16 46  0.0000000  0 11G03G06G07G08G10G13G16G19G11G23G28
   5909893.33247   4611542.87945  21923044.7974                   21923043.7934
   8679805.20746   6761705.19544  23873542.0084                   23873541.0744
  -6473075.74248  -5019032.34446  21590139.8284                   21590137.2544
  -7661792.07847  -5950589.41844  23341762.1954                   23341761.0394
   2343489.19546   1841925.93043  24335338.4144                   24335338.7034
    -54259.97348    -23603.35546  20276825.3054                   20276823.2584
  11700994.06646   9101525.04943  24458884.7114                   24458883.8164
  -3231953.94948  -2492744.62546  21022224.7734                   21022220.6254
  -2402513.70746  -1839434.50043  23940663.5234                   23940662.6954
   6967424.82848   5432563.95346  21323039.9924                   21323036.3874
  -1781338.65347  -1350338.21443  23940064.1414                   23940062.8134
 11  8 19 16 46 30.0000000  0 11G03G06G07G08G10G13G16G19G11G23G28
   5951248.94147   4643767.98045  21930914.3984                   21930912.8324
   8733305.97346   6803394.06644  23883722.4774                   23883722.0164
  -6560411.34048  -5087086.04746  21573520.4774                   21573518.2814
  -7767956.44547  -6033314.86344  23321559.5004                   23321558.7194
   2348006.83246   1845446.10544  24336197.2974                   24336197.7194
    -57135.93448    -25844.39146  20276278.0314                   20276275.3954
  11753217.98446   9142218.95343  24468822.5944                   24468821.2074
  -3259383.35548  -2514118.19946  21017005.2114                   21017001.2304
  -2516331.74246  -1928123.81243  23919003.6414                   23919003.3324
   7014694.64148   5469397.52346  21332035.2584                   21332031.4064
  -1876323.43446  -1424352.27044  23921988.4694                   23921988.4924
 11  8 19 16 47  0.0000000  0 11G03G06G07G08G10G13G16G19G11G23G28
   5993013.53147   4676311.77345  21938861.8284                   21938860.2074
   8787054.80146   6845276.22343  23893950.3914                   23893949.5434
  -6647683.05948  -5155089.97746  21556913.3364                   21556910.5784
  -7874199.53947  -6116101.66044  23301342.0704                   23301341.4344
   2352803.73846   1849183.91043  24337111.0944                   24337111.2384
    -59457.78548    -27653.64846  20275836.5704                   20275833.6094
  11805334.76646   9182829.35543  24478740.4224                   24478738.9964
  -3286224.09448  -2535033.06646  21011897.3364                   21011893.3794
  -2630178.50847  -2016835.52343  23897339.7664                   23897338.9384
   7062349.26248   5506530.93446  21341103.8054                   21341100.0084
  -1971114.80946  -1498215.59043  23903950.3594                   23903949.7274
 11  8 19 16 47 30.0000000  0 11G03G06G07G08G10G13G16G19G11G23G28
   6035197.93047   4709182.68445  21946889.1414                   21946887.8554
   8841062.71946   6887360.27044  23904228.1564                   23904227.5394
  -6734876.09848  -5223032.60246  21540321.1484                   21540318.6024
  -7980506.85247  -6198938.48844  23281112.3674                   23281111.1994
   2357891.41046   1853148.30543  24338078.1024                   24338079.1804
    -61212.60948    -29021.06246  20275502.4144                   20275499.9654
  11857357.05546   9223366.12943  24488639.6884                   24488638.3794
  -3312463.00048  -2555478.97746  21006904.1804                   21006900.5084
  -2744037.25846  -2105556.56243  23875673.3444                   23875672.6374
   7110400.00848   5543973.01646  21350247.6174                   21350244.0084
  -2065699.52346  -1571917.88743  23885951.4694                   23885950.9694
 11  8 19 16 48  0.0000000  0 11G03G06G07G08G10G13G16G19G11G23G28
   6077788.14547   4742369.82045  21954994.6564                   21954992.4654
   8895315.38346   6929635.00444  23914551.6644                   23914551.0864
  -6822000.91848  -5290922.07446  21523741.9454                   21523739.1724
  -8086889.49647  -6281834.02044  23260868.7504                   23260867.5554
   2363255.27346   1857327.89143  24339099.3754                   24339100.4144
    -62412.57848    -29956.11746  20275273.7504                   20275271.1884
  11909272.57046   9263819.69143  24498518.8524                   24498517.8524
  -3338112.07048  -2575465.26246  21002023.5084                   21002019.5824
  -2857917.53546  -2194294.40643  23854002.3204                   23854001.7734
   7158832.61748   5581712.65646  21359464.2114                   21359460.4304
  -2160089.29746  -1645468.27043  23867989.4694                   23867989.3014
 11  8 19 16 48 30.0000000  0 11G03G06G07G08G10G13G16G19G11G23G28
   6120779.76647   4775869.74645  21963175.5944                   21963174.2074
   8949809.24646   6972097.69544  23924921.5864                   23924921.2384
  -6909057.50448  -5358758.37146  21507175.2814                   21507172.9104
  -8193348.18047  -6364788.82444  23240610.2274                   23240609.2934
   2368891.69146   1861719.84843  24340171.5394                   24340172.8754
    -63059.49648    -30460.22746  20275150.7814                   20275148.4884
  11961078.87146   9304188.15243  24508377.6254                   24508376.4774
  -3363172.68448  -2594993.01246  20997254.8834                   20997250.8054
  -2971817.53547  -2283047.58643  23832327.6484                   23832327.3984
   7207643.39148   5619746.96946  21368752.3594                   21368748.7344
  -2254285.70346  -1718868.01643  23850065.1094                   23850063.7774
 11  8 19 16 49  0.0000000  0 11G03G06G07G08G10G13G16G19G11G23G28
   6164172.20747   4809682.00445  21971432.6484                   21971431.1254
   9004543.26246   7014747.53943  23935337.5474                   23935337.3914
  -6996042.57447  -5426538.94546  21490622.5234                   21490620.3524
  -8299880.26247  -6447800.82044  23220338.0864                   23220336.9614
   2374799.69146   1866323.42643  24341296.4844                   24341296.9734
    -63152.96948    -30533.09046  20275133.1564                   20275130.3284
  12012776.84846   9344472.21543  24518214.6724                   24518213.6644
  -3387643.10248  -2614060.87546  20992597.6024                   20992593.9734
  -3085732.89847  -2371812.79743  23810650.0784                   23810649.7154
   7256831.62548   5658075.41046  21378112.6484                   21378108.8914
  -2348287.10547  -1792115.81644  23832177.0634                   23832175.9184
 11  8 19 16 49 30.0000000  0 11G03G06G07G08G10G13G16G19G11G23G28
   6207975.43447   4843814.34045  21979767.8834                   21979766.6844
   9059527.86346   7057592.62544  23945800.3134                   23945800.5984
  -7082941.89848  -5494252.69546  21474085.9924                   21474083.9024
  -8406472.44147  -6530859.64144  23200053.7664                   23200053.1644
   2380989.55946   1871146.63743  24342474.6884                   24342475.0984
    -62680.93748    -30165.29346  20275223.2274                   20275220.3524
  12064378.19146   9384680.96943  24528034.5394                   24528033.5984
  -3411511.53548  -2632659.65646  20988055.8444                   20988052.0394
  -3199647.57847  -2460577.44543  23788972.8914                   23788972.5124
   7306407.72748   5696706.08246  21387547.0164                   21387543.3914
  -2442080.86747  -1865201.83643  23814328.5554                   23814327.1644
 11  8 19 16 50  0.0000000  0 11G03G06G07G08G10G13G16G19G11G23G28
   6252167.60947   4878249.78545  21988177.4384                   21988175.9344
   9114741.06646   7100615.81643  23956307.4694                   23956307.8014
  -7169773.66048  -5561913.80146  21457562.8444                   21457560.3874
  -8513143.52347  -6613979.94144  23179755.2194                   23179754.3954
   2387439.23546   1876172.28443  24343702.2584                   24343702.1884
    -61663.56248    -29372.56246  20275416.5004                   20275413.9264
  12115862.89846   9424798.82043  24537832.1884                   24537830.7734
  -3434797.13348  -2650804.27346  20983624.9144                   20983620.9654
  -3313578.23447  -2549354.54343  23767292.5314                   23767292.2274
   7356349.83248   5735621.94946  21397050.4844                   21397046.9064
  -2535686.67247  -1938141.39143  23796516.2274                   23796515.0704
 11  8 19 16 50 30.0000000  0 11G03G06G07G08G10G13G16G19G11G23G28
   6296759.61747   4912996.76245  21996662.9844                   21996661.7234
   9170194.16046   7143825.94543  23966859.6414                   23966859.2894
  -7256522.73048  -5629510.48446  21441054.9844                   21441052.5434
  -8619878.85547  -6697150.29344  23159444.0004                   23159443.3204
   2394160.44146   1881409.53143  24344980.6094                   24344981.5514
    -60088.04748    -28144.91046  20275716.2504                   20275713.8714
  12167243.53546   9464835.59443  24547609.3524                   24547607.9884
  -3457486.94948  -2668484.63346  20979307.2194                   20979303.6564
  -3427508.49246  -2638131.35943  23745612.3594                   23745611.8834
   7406669.46548   5774831.99646  21406626.2344                   21406622.3404
  -2629090.89547  -2010923.86344  23778742.1254                   23778740.5944
 11  8 19 16 51  0.0000000  0 11G03G06G07G08G10G13G16G19G11G23G28
   6341754.92247   4948058.00444  22005225.5234                   22005223.9654
   9225890.93046   7187225.98443  23977458.8524                   23977458.3324
  -7343181.16048  -5697036.52746  21424564.1884                   21424561.9184
  -8726671.47747  -6780365.27344  23139122.0474                   23139121.1414
   2401156.91446   1886861.27743  24346311.9924                   24346313.4534
    -57948.26248    -26477.57846  20276123.5234                   20276120.9264
  12218525.31646   9504795.30943  24557367.7584                   24557367.2584
  -3479574.98448  -2685696.07046  20975103.9384                   20975100.4804
  -3541428.63746  -2726900.29343  23723934.6024                   23723933.2664
   7457370.14848   5814338.96546  21416274.0784                   21416270.5164
  -2722287.04347  -2083544.19543  23761006.6334                   23761005.0824
 11  8 19 16 51 30.0000000  0 11G03G06G07G08G10G13G16G19G11G23G28
   6387144.30947   4983426.32045  22013862.8914                   22013861.7504
   9281822.18046   7230808.71943  23988101.7734                   23988102.1214
  -7429754.29348  -5764496.10246  21408090.0314                   21408087.5084
  -8833527.26247  -6863629.50044  23118787.7734                   23118787.2774
   2408419.48446   1892520.37543  24347693.6484                   24347694.9494
    -55252.84448    -24377.27746  20276636.4454                   20276633.9534
  12269701.01646   9544672.42243  24567106.4454                   24567105.2894
  -3501068.08248  -2702443.92646  20971013.8984                   20971010.2424
  -3655342.95746  -2815664.66443  23702257.4844                   23702256.8594
   7508442.79748   5854135.77746  21425993.0004                   21425989.5594
  -2815282.61747  -2156008.22344  23743310.0944                   23743309.1094
 11  8 19 16 52  0.0000000  0 11G03G06G07G08G10G13G16G19G11G23G28
   6432926.26247   5019100.54345  22022574.5234                   22022573.4804
   9337986.75446   7274573.23443  23998789.8444                   23998789.3594
  -7516239.71948  -5831887.33246  21391632.2194                   21391629.6884
  -8940444.19547  -6946941.35544  23098442.4224                   23098441.6994
   2415946.62146   1898385.63743  24349126.4534                   24349127.4224
    -52001.25848    -21843.60546  20277255.3594                   20277252.9884
  12320770.67646   9584466.86343  24576825.1954                   24576823.9574
  -3521965.50848  -2718727.61746  20967036.8364                   20967033.2504
  -3769247.27746  -2904421.23843  23680581.9534                   23680581.4414
   7559886.43848   5894221.68046  21435782.2274                   21435779.1644
  -2908076.39847  -2228315.02744  23725652.1564                   23725651.1804
 11  8 19 16 52 30.0000000  0 11G03G06G07G08G10G13G16G19G11G23G28
   6479097.38747   5055078.00445  22031361.1954                   22031359.1994
   9394381.16846   7318516.89844  24009521.9384                   24009521.3984
  -7602636.82048  -5899209.73046  21375191.3364                   21375189.1564
  -9047422.31647  -7030300.89544  23078085.2814                   23078084.2814
   2423734.87146   1904454.34843  24350609.1724                   24350609.6644
    -48194.90648    -18877.63746  20277979.5314                   20277977.1134
  12371732.77046   9624177.50443  24586522.5634                   24586522.4224
  -3542268.72348  -2734548.29746  20963173.6174                   20963169.8244
  -3883139.28146  -2993168.26243  23658908.7504                   23658907.5044
   7611697.69948   5934594.03945  21445642.0474                   21445638.2034
  -3000669.12547  -2300465.17644  23708032.6644                   23708031.4024
 11  8 19 16 53  0.0000000  0 11G03G06G07G08G10G13G16G19G11G23G28
   6525646.73047   5091350.18845  22040219.4064                   22040218.0514
   9450994.95746   7362631.48844  24020295.1644                   24020295.0744
  -7688951.67248  -5966468.05946  21358766.5234                   21358763.7464
  -9154469.03147  -7113713.87944  23057714.4774                   23057714.1764
   2431773.84046   1910718.44142  24352138.7734                   24352139.0164
    -43842.81248    -15486.42646  20278807.8914                   20278805.3444
  12422578.57046   9663797.55943  24596198.3204                   24596197.3404
  -3561986.13748  -2749912.52046  20959421.3444                   20959417.5394
  -3997023.99646  -3081909.58243  23637237.4774                   23637236.3634
   7663866.04348   5975244.64545  21455569.1564                   21455565.6764
  -3093069.26247  -2372465.24244  23690448.7274                   23690448.3284
 11  8 19 16 53 30.0000000  0 11G03G06G07G08G10G13G16G19G11G23G28
   6572576.23047   5127918.59444  22049149.1644                   22049148.4454
   9507830.28546   7406918.68443  24031110.1724                   24031110.0594
  -7775178.25848  -6033657.58646  21342357.7034                   21342355.4494
  -9261578.67247  -7197175.88344  23037332.3054                   23037331.5864
   2440065.75846   1917179.58643  24353716.0314                   24353717.5554
    -38941.22348    -11667.02346  20279740.6334                   20279738.2424
  12473311.73446   9703329.77343  24605853.0634                   24605851.6684
  -3581113.71948  -2764817.12946  20955781.7034                   20955777.4494
  -4110894.41847  -3170639.77343  23615569.0394                   23615567.5474
   7716393.46148   6016175.05145  21465564.3594                   21465561.4264
  -3185272.53947  -2444311.89544  23672903.5234                   23672902.8284
 11  8 19 16 54  0.0000000  0 11G03G06G07G08G10G13G16G19G11G23G28
   6619890.37547   5164786.73045  22058153.4064                   22058151.4264
   9564891.59446   7451381.98043  24041968.4304                   24041968.6134
  -7861308.34048  -6100771.92246  21325967.9774                   21325965.5824
  -9368743.71147  -7280681.08644  23016939.0394                   23016938.6454
   2448614.79346   1923841.09443  24355344.0394                   24355343.9224
    -33484.46148     -7415.02346  20280778.9304                   20280776.8594
  12523938.62546   9742779.23443  24615486.3444                   24615485.9304
  -3599644.89848  -2779257.01646  20952255.0314                   20952251.4774
  -4224740.30947  -3259350.82043  23593904.2814                   23593903.0044
   7769284.63748   6057388.89845  21475629.5864                   21475626.4264
  -3277272.12547  -2515999.84044  23655396.8524                   23655395.7704
 11  8 19 16 54 30.0000000  0 11G03G06G07G08G10G13G16G19G11G23G28
   6667587.11747   5201952.97745  22067229.5784                   22067228.0824
   9622177.27046   7496020.09843  24052870.0314                   24052869.2154
  -7947339.54748  -6167809.21946  21309596.8754                   21309594.5634
  -9475962.18747  -7364227.91044  22996536.8674                   22996536.0204
   2457419.51646   1930701.82842  24357019.1254                   24357019.4264
    -27472.52748     -2730.42246  20281923.1174                   20281920.5394
  12574459.28546   9782145.92243  24625100.7894                   24625099.6884
  -3617579.37548  -2793231.94146  20948842.3444                   20948838.5594
  -4338557.62547  -3348039.65644  23572245.3674                   23572244.9304
   7822537.94948   6098884.93445  21485763.5394                   21485759.9104
  -3369067.07447  -2587528.32044  23637928.3204                   23637927.8794
 11  8 19 16 55  0.0000000  0 11G03G06G07G08G10G13G16G19G11G23G28
   6715646.89147   5239402.13345  22076374.4694                   22076373.7154
   9679668.19546   7540818.18043  24063810.0004                   24063809.5044
  -8033287.06648  -6234781.30146  21293241.6334                   21293239.3364
  -9583249.66447  -7447828.52044  22976120.2344                   22976119.2974
   2466460.64846   1937746.82042  24358739.3984                   24358740.0314
    -20923.25848      2372.87946  20283169.3674                   20283166.8244
  12624856.08646   9821416.07442  24634691.0234                   24634689.7854
  -3634934.51648  -2806755.43046  20945539.8754                   20945535.8794
  -4452360.27047  -3436717.04343  23550589.9614                   23550588.7384
   7876134.43048   6140648.37146  21495962.6094                   21495959.2154
  -3460674.53547  -2658910.69544  23620495.8524                   23620495.5664
 11  8 19 16 55 30.0000000  0 11G03G06G07G08G10G13G16G19G11G23G28
   6764067.10947   5277132.13744  22085588.9774                   22085587.5784
   9737361.75846   7585774.11743  24074788.7894                   24074788.4344
  -8119149.46548  -6301687.04746  21276902.2034                   21276900.0864
  -9690605.78547  -7531482.59844  22955691.4534                   22955689.9964
   2475735.22346   1944973.71142  24360504.7974                   24360505.0984
    -13837.75448      7894.02346  20284517.5864                   20284515.4494
  12675128.04746   9860588.93842  24644257.3984                   24644256.8794
  -3651711.15248  -2819828.14146  20942347.4454                   20942343.5164
  -4566145.49646  -3525380.85944  23528936.7344                   23528935.9264
   7930070.80548   6182676.65646  21506226.4384                   21506222.7114
  -3552094.92247  -2730147.30544  23603099.3134                   23603098.9144
 11  8 19 16 56  0.0000000  0 11G03G06G07G08G10G13G16G19G11G23G28
   6812839.49247   5315136.55944  22094869.9774                   22094868.9384
   9795249.93446   7630881.74244  24085804.8444                   24085804.4104
  -8204929.97348  -6368529.00446  21260578.7584                   21260576.5434
  -9798035.22347  -7615193.82844  22935247.7974                   22935246.4774
   2485235.64846   1952376.54742  24362311.8364                   24362313.4844
     -6222.57048     13827.91446  20285967.0164                   20285964.6524
  12725269.31646   9899660.00043  24653799.0474                   24653797.9804
  -3667915.24648  -2832454.71546  20939264.0474                   20939260.2704
  -4679915.89147  -3614033.06644  23507287.6884                   23507286.3244
   7984339.57848   6224963.95345  21516553.5164                   21516550.0704
  -3643334.02047  -2801242.65244  23585736.8364                   23585736.1254
 11  8 19 16 56 30.0000000  0 11G03G06G07G08G10G13G16G19G11G23G28
   6861971.47747   5353421.19545  22104219.9844                   22104218.4184
   9853340.34146   7676146.94543  24096859.0944                   24096858.9804
  -8290618.20748  -6435299.05146  21244273.0394                   21244270.3404
  -9905526.60247  -7698953.31244  22914793.1724                   22914791.8244
   2494969.15246   1959961.07042  24364164.9844                   24364165.9844
      1931.23448     20181.50046  20287518.7034                   20287516.3484
  12775288.94146   9938636.28543  24663317.7344                   24663316.5314
  -3683537.46148  -2844627.87946  20936290.7344                   20936287.4774
  -4793658.10246  -3702663.37544  23485642.7974                   23485641.9924
   8038948.12148   6267516.00445  21526945.1094                   21526941.5554
  -3734382.09047  -2872189.17244  23568410.8524                   23568410.3284
 11  8 19 16 57  0.0000000  0 11G03G06G07G08G10G13G16G19G11G23G28
   6911460.92247   5391984.37945  22113636.8594                   22113636.2544
   9911630.96146   7721568.17643  24107951.3054                   24107950.5904
  -8376211.53948  -6501995.15246  21227984.8914                   21227982.6524
 -10013078.73847  -7782760.13744  22894326.4924                   22894325.5164
   2504933.77746   1967725.62143  24366060.5634                   24366061.2734
     10623.00048     26954.28146  20289172.5554                   20289170.1294
  12825187.12146   9977517.94943  24672812.9304                   24672812.1134
  -3698577.70748  -2856347.55946  20933429.2504                   20933424.8874
  -4907368.62946  -3791268.93444  23464004.6724                   23464003.5514
   8093894.46148   6310331.27045  21537401.1644                   21537397.8054
  -3825238.56647  -2942986.38744  23551121.8984                   23551120.5864
 11  8 19 16 57 30.0000000  0 11G03G06G07G08G10G13G16G19G11G23G28
   6961317.54747   5430833.65245  22123124.8914                   22123123.4414
   9970132.48046   7767153.69543  24119084.1484                   24119083.6134
  -8461695.26648  -6568605.83246  21211717.9144                   21211715.4774
 -10120677.41447  -7866603.22344  22873850.8754                   22873850.1884
   2515139.93846   1975678.42243  24368003.5784                   24368003.1884
     19864.63348     34155.52746  20290931.1024                   20290929.0434
  12874975.76246  10016314.21943  24682287.9384                   24682286.6134
  -3713023.87148  -2867604.31646  20930679.8594                   20930676.1254
  -5021031.77046  -3879837.58244  23442374.8524                   23442373.7974
   8149188.84048   6353417.73445  21547923.2194                   21547920.1054
  -3915890.71947  -3013624.40244  23533871.2114                   23533869.7974
 11  8 19 16 58  0.0000000  0 11G03G06G07G08G10G13G16G19G11G23G28
   7011536.55947   5469965.32444  22132680.9064                   22132680.0744
  10028839.80146   7812899.62943  24130255.3284                   24130255.2424
  -8547070.37148  -6635131.88346  21195471.4844                   21195468.9804
 -10228324.54347  -7950484.08244  22853366.3054                   22853365.2544
   2525582.59046   1983815.52743  24369989.7664                   24369990.5474
     29652.33648     41782.27746  20292794.0944                   20292791.6604
  12924651.43846  10055022.47743  24691740.0084                   24691739.3134
  -3726879.44148  -2878400.87946  20928043.4224                   20928039.2544
  -5134646.87547  -3968368.78144  23420754.8674                   23420754.3634
   8204826.51248   6396771.69945  21558511.0554                   21558507.8134
  -4006341.64547  -3084105.60543  23516659.1564                   23516657.5704
 11  8 19 16 58 30.0000000  0 11G03G06G07G08G10G13G16G19G11G23G28
   7062100.08247   5509365.46544  22142302.5634                   22142302.2774
  10087735.66046   7858792.42643  24141463.2034                   24141463.1764
  -8632350.34448  -6701583.78946  21179243.3594                   21179240.8054
 -10336034.15647  -8034413.62944  22832870.1094                   22832869.0784
   2536244.09847   1992123.14843  24372019.2734                   24372019.3634
     39970.10548     49822.07046  20294757.1174                   20294754.9844
  12974198.93446  10093630.86743  24701168.8834                   24701168.1214
  -3740159.94148  -2888749.32846  20925516.2894                   20925512.5984
  -5248225.83647  -4056871.82844  23399141.0394                   23399140.5234
   8260789.87148   6440379.45345  21569160.3754                   21569156.6254
  -4096606.22347  -3154441.59044  23499482.3524                   23499481.3634
 11  8 19 16 59  0.0000000  0 11G03G06G07G08G10G13G16G19G11G23G28
   7113020.70747   5549043.84444  22151992.5944                   22151991.3284
  10146832.58246   7904841.92243  24152708.9924                   24152708.6374
  -8717518.66848  -6767948.69946  21163036.3524                   21163033.9494
 -10443789.89147  -8118379.10544  22812365.0704                   22812363.7274
   2547136.91447   2000610.99643  24374092.6564                   24374092.5514
     50831.60248     58285.53946  20296823.8984                   20296821.6604
  13023632.50446  10132150.44943  24710576.0314                   24710574.8054
  -3752851.03948  -2898638.50446  20923101.2814                   20923097.3984
  -5361750.74647  -4145332.75844  23377538.3204                   23377537.4654
   8317091.24648   6484250.60245  21579874.1564                   21579870.7074
  -4186670.06647  -3224621.16844  23482343.5394                   23482342.9734
 11  8 19 16 59 30.0000000  0 11G03G06G07G08G10G13G16G19G11G23G28
   7164282.34847   5588987.96544  22161748.0394                   22161746.6454
  10206114.38346   7951035.46543  24163990.2734                   24163989.3794
  -8802586.93748  -6834235.64546  21146848.4534                   21146845.6884
 -10551604.68047  -8202390.59844  22791848.3444                   22791846.9774
   2558245.03147   2009266.62543  24376205.6414                   24376206.5084
     62222.13748     67161.25046  20298991.8204                   20298989.2704
  13072937.97746  10170570.23843  24719958.6724                   24719957.7934
  -3764967.00048  -2908079.52746  20920795.7114                   20920791.7974
  -5475231.89847  -4233759.57044  23355942.9844                   23355942.5784
   8373714.58648   6528372.62545  21590648.9614                   21590645.9064
  -4276546.79747  -3294654.94544  23465240.7114                   23465239.1214
 11  8 19 17  0  0.0000000  0 11G03G06G07G08G10G13G16G19G11G23G28
   7215884.66447   5629197.54744  22171566.8674                   22171565.7544
  10265581.74246   7997373.60943  24175306.2344                   24175306.1564
  -8887550.69148  -6900441.16046  21130680.0314                   21130677.6724
 -10659474.88747  -8286445.27745  22771321.4534                   22771320.2424
   2569568.73047   2018090.23043  24378361.0084                   24378360.7584
     74143.05548     76450.25046  20301259.9384                   20301257.6374
  13122117.29346  10208891.73043  24729317.1724                   24729316.3244
  -3776505.95748  -2917070.92246  20918599.7974                   20918595.8984
  -5588663.73447  -4322147.97744  23334358.1564                   23334357.2074
   8430660.24648   6572745.79745  21601485.7504                   21601482.3914
  -4366233.89847  -3364540.94144  23448173.7974                   23448172.2854
 11  8 19 17  0 30.0000000  0 11G03G06G07G08G10G13G16G19G11G23G28
   7267841.15647   5669683.09844  22181454.9304                   22181453.0704
  10325248.48846   8043867.11343  24186660.7344                   24186660.0864
  -8972391.96548  -6966551.23046  21114535.2504                   21114533.3054
 -10767382.41447  -8370529.02344  22750787.3834                   22750786.0354
   2581121.90646   2027092.64543  24380559.4844                   24380560.0474
     86609.85948     86164.62146  20303632.6954                   20303630.2584
  13171186.49646  10247127.43443  24738655.0234                   24738654.1334
  -3787452.38748  -2925600.62546  20916516.8524                   20916512.9494
  -5702026.44147  -4410482.50044  23312785.2344                   23312785.0204
   8487942.18048   6617381.01645  21612386.3204                   21612382.7624
  -4455715.08247  -3434266.47344  23431145.5004                   23431144.9144
 11  8 19 17  1  0.0000000  0 11G03G06G07G08G10G13G16G19G11G23G28
   7320128.64847   5710426.57844  22191404.0704                   22191403.0514
  10385091.38746   8090497.87143  24198047.8754                   24198047.2894
  -9057130.16048  -7032581.00046  21098410.5164                   21098407.7544
 -10875347.37147  -8454657.53544  22730242.3284                   22730241.1914
   2592881.26247   2036255.71543  24382796.8674                   24382797.6334
     99600.43048     96287.11346  20306104.3054                   20306102.1294
  13220124.20346  10285260.67643  24747966.3594                   24747966.1414
  -3797827.84448  -2933685.40246  20914542.4384                   20914538.5474
  -5815338.08647  -4498777.25044  23291223.2814                   23291223.1174
   8545536.66848   6662259.77045  21623346.0004                   21623342.8834
  -4545011.73847  -3503848.22744  23414153.0164                   23414151.9224
 11  8 19 17  1 30.0000000  0 10G03G06G07G08G10G13G19G11G23G28
   7372751.01647   5751430.98444  22201417.5634                   22201416.7894
  10445115.06646   8137269.51243  24209469.1954                   24209469.9264
  -9141756.36348  -7098523.49246  21082306.4614                   21082304.0744
 -10983361.85547  -8538824.62144  22709687.5474                   22709686.9694
   2604851.02747   2045582.73443  24385074.9304                   24385075.4844
    113120.38748    106822.11346  20308677.4144                   20308675.2424
  -3807626.19548  -2941320.49646  20912677.8134                   20912674.0434
  -5928588.38347  -4587024.16844  23269671.9224                   23269671.6844
   8603448.55948   6707385.85245  21634366.8134                   21634363.4344
  -4634117.01247  -3573280.85544  23397196.1254                   23397195.5554
 11  8 19 17  2  0.0000000  0 10G03G06G07G08G10G13G19G11G23G28
   7425698.07447   5792688.39844  22211493.4384                   22211492.2544
  10505309.12946   8184173.89143  24220925.2664                   24220924.6954
  -9226276.64848  -7164383.45346  21066223.0784                   21066220.7704
 -11091432.15647  -8623035.21544  22689122.5784                   22689121.7464
   2617020.70347   2055065.54343  24387391.1884                   24387391.8484
    127160.44548    117762.39146  20311349.6024                   20311346.7934
  -3816856.24248  -2948512.73846  20910921.5164                   20910917.7584
  -6041782.08647  -4675227.00444  23248132.4304                   23248131.9844
   8661667.06348   6752750.85545  21645445.0944                   21645441.7034
  -4723039.13747  -3642570.77344  23380275.9454                   23380274.4924
 11  8 19 17  2 30.0000000  0 10G03G06G07G08G10G13G19G11G23G28
   7478976.87947   5834204.30944  22221632.1724                   22221631.3054
  10565681.27746   8231217.03943  24232413.2584                   24232413.2424
  -9310679.44148  -7230151.85546  21050161.7974                   21050159.1134
 -11199547.71547  -8707281.06244  22668548.6884                   22668547.6024
   2629397.59047   2064709.82443  24389745.9844                   24389746.6914
    141729.27048    129114.68046  20314121.3984                   20314119.0514
  -3825509.16048  -2955255.28546  20909274.9614                   20909270.8874
  -6154906.38347  -4763375.73844  23226605.5084                   23226604.9264
   8720199.61748   6798360.57445  21656583.6724                   21656580.5904
  -4811768.49647  -3711710.48044  23363390.6414                   23363389.7774
 11  8 19 17  3  0.0000000  0 10G03G06G07G08G10G13G19G11G23G28
   9108003.19147   7103575.43444  22531625.2034                   22531623.8094
  12201647.45746   9505995.82843  24543727.2974                   24543726.7894
  -7819539.86348  -6068224.91046  21333915.9454                   21333913.2584
  -9732283.20347  -7563958.03144  22947759.6954                   22947758.8244
   4217399.16847   3302113.58243  24691933.2034                   24691933.7504
   1732245.95748   1368478.30146  20616786.9144                   20616784.3284
  -2258165.08648  -1733948.21146  21207530.7734                   21207526.4964
  -4692533.89847  -3623864.66444  23504885.4144                   23504885.2734
  10354461.86348   8071811.59845  21967573.2734                   21967570.0744
  -3324881.93047  -2553097.52344  23646335.9844                   23646334.9804
 11  8 19 17  3 30.0000000  0 10G03G06G07G08G10G13G19G11G23G28
   9161928.34047   7145594.98844  22541887.5164                   22541886.2074
  12262359.66446   9553303.96543  24555281.0164                   24555280.4024
  -7903711.55148  -6133813.22746  21317898.5704                   21317896.1644
  -9840494.09047  -7648278.16445  22927168.2584                   22927167.0634
   4230174.10947   3312068.00843  24694363.6024                   24694364.7194
   1747859.52748   1380644.68446  20619757.5704                   20619755.5704
  -2265675.18748  -1739800.24646  21206101.6334                   21206097.5354
  -4805518.70747  -3711904.72344  23483385.5394                   23483384.2234
  10413605.90248   8117897.80545  21978828.0004                   21978824.9414
  -3413235.26247  -2621944.20344  23629522.5634                   23629521.9654
 11  8 19 17  4  0.0000000  0 10G03G06G07G08G10G13G19G11G23G28
   9216191.91847   7187878.25044  22552213.6334                   22552212.4654
  12323257.47346   9600756.74243  24566868.7504                   24566869.0634
  -7987745.85548  -6199294.48846  21301907.3914                   21301905.2034
  -9948731.93747  -7732619.30945  22906571.2894                   22906569.8284
   4243163.85246   3322189.82443  24696835.3054                   24696836.6334
   1764012.55548   1393231.43046  20622831.7194                   20622829.5084
  -2272596.18748  -1745193.22746  21204784.5784                   21204780.8594
  -4918409.74247  -3799871.68744  23461902.5164                   23461902.0744
  10473071.21948   8164234.35245  21990143.9304                   21990140.7584
  -3501381.96547  -2690629.87944  23612749.0864                   23612747.6764
 11  8 19 17  4 30.0000000  0 10G03G06G07G08G10G13G19G11G23G28
   9270768.47347   7230405.39844  22562598.6334                   22562597.6174
  12384316.07446   9648334.76243  24578488.3984                   24578488.3594
  -8071663.42648  -6264684.79746  21285938.2734                   21285935.8204
 -10057018.06247  -7816998.07845  22885964.6804                   22885963.8754
   4256342.87547   3332459.12544  24699343.2584                   24699344.3164
   1780680.87548   1406219.70346  20626003.5704                   20626001.3714
  -2278951.41448  -1750145.34446  21203574.6954                   21203571.2624
  -5031226.44947  -3887780.77044  23440434.2274                   23440433.5594
  10532832.41848   8210801.44945  22001516.3674                   22001513.1414
  -3589344.85947  -2759172.34444  23596010.2974                   23596008.7584
 11  8 19 17  5  0.0000000  0 10G03G06G07G08G10G13G19G11G23G28
   9325655.89847   7273174.78544  22573043.4614                   22573042.4304
  12445533.38746   9696036.50043  24590137.3914                   24590137.4494
  -8155462.07048  -6329982.42246  21269992.2344                   21269989.8914
 -10165350.85247  -7901413.21945  22865349.5944                   22865348.4414
   4269708.75446   3342874.03143  24701887.0554                   24701888.1994
   1797863.52048   1419608.73446  20629273.0004                   20629270.9414
  -2284741.78148  -1754657.30146  21202473.2034                   21202469.2894
  -5143965.41447  -3975629.26644  23418980.4614                   23418979.7304
  10592887.23048   8257597.33645  22012944.3984                   22012940.9534
  -3677123.81247  -2827571.47744  23579306.2424                   23579305.2154
 11  8 19 17  5 30.0000000  0 10G03G06G07G08G10G13G19G11G23G28
   9380867.23447   7316196.54744  22583550.2894                   22583549.1414
  12506923.01246   9743872.50043  24601819.8134                   24601819.8554
  -8239124.09048  -6395173.58646  21254071.8984                   21254069.3054
 -10273713.07047  -7985851.28145  22844728.8984                   22844727.9024
   4283275.21946   3353445.24643  24704468.7424                   24704470.2584
   1815575.25848   1433410.05946  20632644.0234                   20632641.7704
  -2289951.96148  -1758717.17246  21201481.6094                   21201477.8284
  -5256607.30947  -4063402.12944  23397546.0084                   23397545.5594
  10653249.25048   8304632.58645  22024430.6414                   22024427.8754
  -3764703.09447  -2895815.02744  23562640.4924                   23562639.2504
 11  8 19 17  6  0.0000000  0 10G03G06G07G08G10G13G19G11G23G28
   9436393.97347   7359464.09844  22594116.8054                   22594115.6844
  12568476.77346   9791836.38743  24613533.2584                   24613532.9694
  -8322653.75848  -6460261.63346  21238176.7194                   21238173.7664
 -10382109.45747  -8070315.98045  22824101.4534                   22824100.6884
   4297033.80146   3364166.11743  24707087.1334                   24707088.2584
   1833808.48048   1447617.72746  20636113.5234                   20636111.6764
  -2294589.36748  -1762330.73446  21200599.2194                   21200595.1914
  -5369155.14147  -4151101.69144  23376128.6724                   23376127.8674
  10713910.00848   8351900.64145  22035974.3914                   22035971.3634
  -3852089.21147  -2963908.03944  23546011.2974                   23546010.1644
 11  8 19 17  6 30.0000000  0 10G03G06G07G08G10G13G19G11G23G28
   9492210.39847   7402957.38744  22604738.2424                   22604737.1804
  12630169.33646   9839908.39843  24625273.2274                   24625273.2034
  -8406072.16848  -6525262.96946  21222302.6414                   21222300.1804
 -10490561.76647  -8154824.24245  22803464.3284                   22803462.9184
   4310958.91446   3375016.76243  24709736.7814                   24709738.2344
   1852538.91448   1462212.83646  20639677.7814                   20639676.1214
  -2298677.99248  -1765516.66446  21199821.3284                   21199817.4534
  -5481628.45347  -4238743.20344  23354725.0944                   23354724.7034
  10774843.80948   8399381.44545  22047569.5704                   22047566.3834
  -3939305.13747  -3031868.45344  23529415.2344                   23529413.3674
 11  8 19 17  7  0.0000000  0 10G03G06G07G08G10G13G19G11G23G28
   9548335.05147   7446690.83644  22615418.4774                   22615417.0514
  12692019.43846   9888103.22743  24637042.2344                   24637042.2664
  -8489356.57848  -6590159.89546  21206454.2424                   21206451.4344
 -10599047.84847  -8239358.83245  22782820.1334                   22782818.4414
   4325069.12146   3386011.61343  24712421.8364                   24712423.3554
   1871785.90648   1477210.45746  20643340.8364                   20643338.6254
  -2302197.79748  -1768259.37546  21199151.1174                   21199147.3094
  -5594003.17647  -4326307.86744  23333341.2894                   23333340.2974
  10836068.96948   8447089.27345  22059220.8594                   22059217.4024
  -4026330.40647  -3099680.29344  23512854.6094                   23512853.2074
 11  8 19 17  7 30.0000000  0 10G03G06G07G08G10G13G19G11G23G28
   9604751.95347   7490651.98444  22626154.4384                   22626153.1334
  12754011.72746   9936408.83243  24648839.6564                   24648838.7704
  -8572517.89548  -6654960.90646  21190628.8674                   21190626.4614
 -10707579.59047  -8323929.00445  22762166.8444                   22762165.8754
   4339349.02346   3397138.72343  24715138.6884                   24715140.8524
   1891535.10548   1492599.40646  20647099.0004                   20647096.5594
  -2305162.81248  -1770569.77346  21198587.0944                   21198583.3714
  -5706289.10547  -4413803.33644  23311973.6724                   23311973.0164
  10897570.12148   8495012.17245  22070923.9454                   22070920.4804
  -4113178.24647  -3167353.87944  23496328.1644                   23496326.9224
 11  8 19 17  8  0.0000000  0 10G03G06G07G08G10G13G19G11G23G28
   9661459.58647   7534839.73844  22636944.6414                   22636943.9924
  12816144.77746   9984824.15243  24660663.0784                   24660662.8164
  -8655553.23048  -6719663.75046  21174827.9454                   21174825.3164
 -10816154.35247  -8408532.69545  22741505.7814                   22741504.7974
   4353796.97346   3408396.77743  24717887.9144                   24717890.5044
   1911785.77048   1508379.11346  20650952.2974                   20650950.1254
  -2307573.32448  -1772448.09846  21198128.4224                   21198124.5474
  -5818481.82847  -4501226.16444  23290624.5084                   23290623.3324
  10959345.55148   8543148.79745  22082679.1024                   22082676.2854
  -4199848.03547  -3234888.73444  23479834.8444                   23479833.8554
 11  8 19 17  8 30.0000000  0 10G03G06G07G08G10G13G19G11G23G28
   9718465.30547   7579259.72344  22647793.0004                   22647791.6334
  12878426.65646  10033355.39143  24672514.6804                   24672514.9774
  -8738450.62148  -6784259.09846  21159052.9384                   21159050.4574
 -10924760.36347  -8493160.73045  22720839.0084                   22720837.5234
   4368420.35946   3419791.54743  24720670.8594                   24720672.9344
   1932547.04348   1524556.69546  20654903.1024                   20654900.6024
  -2309420.19948  -1773887.22346  21197777.2894                   21197773.4494
  -5930568.10947  -4588566.06244  23269294.9304                   23269294.1134
  11021402.80547   8591505.01245  22094488.5164                   22094485.6914
  -4286329.83247  -3302277.09844  23463377.8054                   23463377.0824
 11  8 19 17  9  0.0000000  0 10G03G06G07G08G10G13G19G11G23G28
   9775752.09447   7623898.72344  22658694.4694                   22658693.3634
  12940840.55146  10081989.52043  24684391.7664                   24684392.4844
  -8821222.90648  -6848756.97746  21143302.1334                   21143299.4844
 -11033411.02047  -8577823.53945  22700163.3984                   22700161.5204
   4383202.24245   3431309.76243  24723484.4304                   24723485.4494
   1953802.64848   1541119.46946  20658947.9694                   20658945.6724
  -2310719.10948  -1774899.36346  21197530.1174                   21197526.1644
  -6042559.47747  -4675832.01644  23247983.6564                   23247982.6414
  11083724.92648   8640067.60945  22106347.9844                   22106345.4304
  -4372638.37546  -3369530.46544  23446953.9454                   23446952.8164
 11  8 19 17  9 30.0000000  0 10G03G06G07G08G10G13G19G11G23G28
   9833330.87547   7668765.25844  22669651.0864                   22669649.5514
  13003397.75846  10130735.32443  24696296.7034                   24696296.8014
  -8903854.54748  -6913145.25846  21127577.6644                   21127575.1884
 -11142091.59047  -8662509.66444  22679481.8134                   22679480.5234
   4398153.56346   3442960.08643  24726329.6884                   24726331.0044
   1975564.32048   1558076.58246  20663088.8284                   20663086.3524
  -2311457.81248  -1775474.98446  21197389.0554                   21197385.3444
  -6154438.84447  -4763010.65244  23226693.1334                   23226693.0434
  11146322.78148   8688845.06645  22118260.3754                   22118256.8524
  -4458760.48447  -3436638.57844  23430565.3204                   23430564.2384
 11  8 19 17 10  0.0000000  0 10G03G06G07G08G10G13G19G11G23G28
   9891189.76647   7713850.07444  22680661.6334                   22680660.1724
  13066086.89146  10179583.95343  24708225.4454                   24708226.2114
  -8986352.48848  -6977429.35546  21111878.6564                   21111876.4574
 -11250809.74647  -8747225.07844  22658793.4144                   22658792.3524
   4413263.10955   3454733.66852  24729204.2424                   24729206.6644
   1997821.48448   1575419.80146  20667324.3524                   20667322.2344
  -2311646.23448  -1775621.81246  21197353.3284                   21197349.6954
  -6266211.87147  -4850106.47744  23205423.9924                   23205422.3094
  11209184.91447   8737828.47745  22130222.4614                   22130219.5204
  -4544705.66847  -3503608.82444  23414210.5394                   23414209.5234
 11  8 19 17 10 30.0000000  0 10G03G06G07G08G10G13G19G11G23G28
   9949330.84847   7759154.76244  22691725.6334                   22691724.3674
  13128910.19146  10228537.06643  24720180.0394                   24720181.0204
  -9068710.33248  -7041604.29746  21096206.6174                   21096204.2154
 -11359559.59447  -8831965.18045  22638099.2734                   22638097.6764
   4428532.66446   3466631.93843  24732111.8054                   24732111.8554
   2020577.30948   1593151.57846  20671654.8594                   20671652.6994
  -2311281.49648  -1775337.60546  21197422.7814                   21197418.8594
  -6377871.25047  -4937113.69944  23184175.7664                   23184174.9884
  11272313.13348   8787019.21145  22142235.4694                   22142232.3324
  -4630469.53547  -3570437.77344  23397889.9454                   23397889.3444
 11  8 19 17 11  0.0000000  0 10G03G06G07G08G10G13G19G11G23G28
  10007757.03147   7804681.60944  22702843.2034                   22702842.5634
  13191871.32446  10277597.62943  24732160.8364                   24732162.1804
  -9150920.18048  -7105663.91046  21080562.8524                   21080560.0554
 -11468333.99647  -8916724.42645  22617399.8364                   22617398.6564
   4443965.31646   3478657.33643  24735047.6414                   24735048.6604
   2043835.89548   1611275.12546  20676080.7734                   20676078.7734
  -2310358.75048  -1774618.59846  21197598.5394                   21197594.7664
  -6489407.56247  -5024025.07444  23162951.2504                   23162949.9264
  11335710.44947   8836419.62545  22154299.7664                   22154296.5394
  -4716046.71947  -3637121.27044  23381605.7504                   23381603.7504
 11  8 19 17 11 30.0000000  0 10G03G06G07G08G10G13G19G11G23G28
  10066449.88347   7850416.25844  22714012.3984                   22714011.4414
  13254952.18846  10326751.48043  24744166.0784                   24744166.4774
  -9232996.07448  -7169619.13346  21064944.1884                   21064941.4494
 -11577147.35247  -9001514.01645  22596693.6174                   22596692.4304
   4459542.63346   3490795.40642  24738011.6884                   24738013.5704
   2067579.90648   1629776.92646  20680599.0314                   20680596.8794
  -2308895.27347  -1773478.22346  21197876.9384                   21197873.1374
  -6600833.47347  -5110850.41044  23141746.9064                   23141746.3674
  11399358.67647   8886015.57045  22166411.8204                   22166408.8794
  -4801453.60547  -3703672.07044  23365353.4774                   23365351.7734
 11  8 19 17 12  0.0000000  0 10G03G06G07G08G10G13G19G11G23G28
  10125403.29347   7896353.91444  22725230.7114                   22725230.0234
  13318147.25446  10375994.33243  24756191.1484                   24756191.4264
  -9314939.68448  -7233471.28946  21049350.8524                   21049348.1214
 -11686001.40647  -9086335.31645  22575979.4774                   22575977.8984
   4475259.08646   3503041.90642  24741002.1484                   24741005.0164
   2091804.22348   1648652.98046  20685208.9774                   20685206.8244
  -2306895.24248  -1771919.76246  21198257.3444                   21198253.2464
  -6712149.05947  -5197589.78144  23120564.5394                   23120564.0394
  11463251.84847   8935802.37545  22178570.2734                   22178567.0944
  -4886693.54347  -3770092.77344  23349132.1644                   23349130.9384
 11  8 19 17 12 30.0000000  0 10G03G06G07G08G10G13G19G11G23G28
  10184627.84047   7942502.85244  22736501.2974                   22736500.0084
  13381467.33246  10425334.57443  24768240.7194                   24768240.9774
  -9396735.76648  -7297208.49246  21033785.4844                   21033783.0634
 -11794881.62547  -9171177.00445  22555259.7504                   22555259.3054
   4491125.10946   3515404.97743  24744021.7664                   24744023.5124
   2116520.18848   1667912.15246  20689912.1024                   20689909.6804
  -2304347.37148  -1769934.40246  21198742.0864                   21198738.5474
  -6823337.90247  -5284230.39844  23099406.3754                   23099405.3164
  11527400.59047   8985788.32045  22190777.3364                   22190774.5984
  -4971753.75047  -3836373.43744  23332945.5314                   23332943.9734
 11  8 19 17 13  0.0000000  0 10G03G06G07G08G10G13G19G11G23G28
  10244117.95747   7988858.74644  22747821.8054                   22747820.4264
  13444907.22746  10474768.25843  24780312.9694                   24780313.4964
  -9478385.31248  -7360831.51646  21018248.0164                   21018245.2114
 -11903789.57447  -9256040.30145  22534535.1414                   22534534.1684
   4507135.17646   3527880.25042  24747068.1174                   24747070.3484
   2141723.22748   1687550.85246  20694708.3594                   20694705.9454
  -2301255.79348  -1767525.38346  21199330.7584                   21199326.9184
  -6934399.69947  -5370772.02344  23078271.8204                   23078270.9064
  11591799.15648   9035968.94145  22203032.2424                   22203029.3634
  -5056637.62947  -3902516.69544  23316792.7974                   23316791.5744
 11  8 19 17 13 30.0000000  0 10G03G06G07G08G10G13G19G11G23G28
  10303877.85547   8035424.85944  22759192.9224                   22759192.3954
  13508471.61746  10524298.83643  24792409.1884                   24792410.0164
  -9559879.32448  -7424333.34846  21002740.5314                   21002737.3444
 -12012716.80547  -9340918.61745  22513807.4384                   22513805.9964
   4523293.62946   3540471.19143  24750144.2194                   24750145.2194
   2167418.71948   1707573.28146  20699597.5234                   20699595.2894
  -2297614.79348  -1764688.23446  21200023.3054                   21200019.6054
  -7045324.36747  -5457206.78944  23057163.2814                   23057162.7974
  11656451.83647   9086347.56345  22215335.0704                   22215332.5824
  -5141338.58647  -3968517.41444  23300675.2584                   23300673.4774
 11  8 19 17 14  0.0000000  0 10G03G06G07G08G10G13G19G11G23G28
  10363901.86747   8082196.74644  22770615.6334                   22770615.0004
  13572154.73846  10573921.98443  24804528.4144                   24804528.3634
  -9641219.35248  -7487715.18746  20987261.8984                   20987259.2664
 -12121665.32847  -9425813.52745  22493074.7274                   22493074.0274
   4539594.61346   3553173.14543  24753245.8984                   24753246.8754
   2193601.28148   1727975.24246  20704580.1724                   20704578.1334
  -2293429.55148  -1761427.01246  21200819.6724                   21200816.1094
  -7156111.93447  -5543534.73844  23036081.2664                   23036080.7544
  11721352.53148   9136919.44145  22227685.6334                   22227682.6524
  -5225860.62547  -4034378.71544  23284591.3674                   23284589.5984
 11  8 19 17 14 30.0000000  0 10G03G06G07G08G10G13G19G11G23G28
  10424191.10947   8129175.30544  22782088.8594                   22782087.5704
  13635958.62546  10623639.21143  24816669.7974                   24816669.8834
  -9722399.33648  -7550972.32046  20971813.1644                   20971810.7974
 -12230629.46947  -9510720.62145  22472339.8284                   22472338.5634
   4556039.82447   3565987.53943  24756375.2734                   24756376.2234
   2220273.26248   1748758.55546  20709655.5864                   20709653.5784
  -2288697.10248  -1757739.39546  21201720.2974                   21201716.5204
  -7266754.99647  -5629750.07044  23015026.6724                   23015025.4144
  11786502.82447   9187685.80545  22240083.1884                   22240080.4024
  -5310199.71547  -4100097.45744  23268541.6334                   23268540.4614
 11  8 19 17 15  0.0000000  0 10G03G06G07G08G10G13G19G11G23G28
  10484739.67647   8176355.94144  22793610.5634                   22793609.7934
  13699877.84846  10673446.32043  24828832.9774                   24828833.4614
  -9803420.16848  -7614105.43746  20956396.2424                   20956393.6764
 -12339610.74247  -9595641.06645  22451601.3524                   22451599.7114
   4572623.28547   3578909.61743  24759531.1094                   24759532.3984
   2247429.77348   1769919.43846  20714823.7424                   20714821.3834
  -2283421.78148  -1753628.76246  21202724.4774                   21202720.7584
  -7377253.35947  -5715852.64144  22993999.4694                   22993998.5234
  11851896.99247   9238642.21145  22252527.1414                   22252524.8444
  -5394359.46947  -4165676.45744  23252526.5314                   23252525.2304
 11  8 19 17 15 30.0000000  0 10G03G06G07G08G10G13G19G11G23G28
  10545543.48047   8223735.44544  22805181.2034                   22805180.3404
  13763908.99246  10723340.65243  24841017.2814                   24841018.1484
  -9884281.46548  -7677114.24246  20941008.3134                   20941005.7854
 -12448609.21147  -9680574.90245  22430859.6024                   22430858.5084
   4589341.56347   3591936.75443  24762712.9534                   24762714.4614
   2275068.02048   1791455.69146  20720083.0004                   20720081.1334
  -2277606.55948  -1749097.43446  21203831.0084                   21203827.0704
  -7487605.27047  -5801841.12144  22973000.3054                   22972999.7854
  11917531.23847   9289785.69145  22265017.0084                   22265014.6214
  -5478341.89847  -4231117.28944  23236545.0474                   23236543.9964
 11  8 19 17 16  0.0000000  0  9G03G07G08G10G13G19G11G23G28
  10606605.91047   8271316.49244  22816800.9304                   22816800.1604
  -9964975.19548  -7739992.47346  20925653.1884                   20925650.1094
 -12557617.54347  -9765516.43745  22410116.1564                   22410114.5664
   4606197.32847   3605071.04343  24765920.0944                   24765921.6374
   2303191.72348   1813370.22346  20725434.7504                   20725432.8914
  -2271247.44148  -1744142.28546  21205041.1414                   21205037.3954
  -7597801.83247  -5887708.51644  22952030.6334                   22952029.5594
  11983408.30547   9341118.36345  22277553.1024                   22277550.3094
  -5562141.20347  -4296415.41444  23220599.5474                   23220597.3634
 11  8 19 17 16 30.0000000  0  9G03G07G08G10G13G19G11G23G28
  10667918.72747   8319092.66044  22828468.3284                   22828467.8204
 -10045505.24648  -7802743.16046  20910328.9534                   20910326.0514
 -12666639.82847  -9850468.84845  22389369.7194                   22389368.3754
   4623182.53547   3618306.21543  24769152.6564                   24769154.1374
   2331793.36748   1835657.18046  20730877.5314                   20730875.2274
  -2264351.20748  -1738768.61346  21206353.0704                   21206349.2854
  -7707844.98847  -5973456.38744  22931090.3594                   22931089.0704
  12049520.22347   9392634.05545  22290133.6484                   22290131.2974
  -5645763.57047  -4361575.67244  23204686.0084                   23204684.2504
 11  8 19 17 17  0.0000000  0  9G03G07G08G10G13G19G11G23G28
  10729469.83647   8367054.50444  22840181.1334                   22840180.2464
 -10125878.64548  -7865371.73446  20895033.9614                   20895031.7814
 -12775683.81247  -9935438.15645  22368619.2274                   22368618.2814
   4640285.58647   3631633.20742  24772407.1564                   24772408.8554
   2360862.03548   1858308.06346  20736408.9614                   20736407.0124
  -2256928.37547  -1732984.59046  21207765.7424                   21207762.0474
  -7817740.50047  -6059089.20744  22910177.3284                   22910176.5044
  12115855.12947   9444323.51245  22302757.0554                   22302754.2154
  -5729218.66047  -4426605.55944  23188805.1254                   23188803.6804
 11  8 19 17 17 30.0000000  0  9G03G07G08G10G13G19G11G23G28
  10791268.25447   8415209.05944  22851941.4614                   22851941.0164
 -10206081.72748  -7927867.66446  20879772.0004                   20879769.3284
 -12884736.18447 -10020414.02045  22347867.7504                   22347866.0204
   4657515.31347   3645058.87143  24775685.6174                   24775687.1564
   2390407.26248   1881330.27346  20742031.4844                   20742029.5354
  -2248969.06647  -1726782.55146  21209280.2344                   21209276.7384
  -7927473.87547  -6144595.68744  22889295.7814                   22889294.9414
  12182421.70747   9496193.46945  22315424.0394                   22315421.7154
  -5812495.46547  -4491496.52744  23172957.4224                   23172956.1884
 11  8 19 17 18  0.0000000  0  9G03G07G08G10G13G19G11G23G28
  10853312.62147   8463555.25844  22863748.1254                   22863747.1254
 -10286111.60248  -7990228.59446  20864542.8364                   20864540.2734
 -12993794.27347 -10105394.34045  22327113.9924                   22327112.9414
   4674870.53947   3658582.38343  24778988.7034                   24778989.7234
   2420428.46548   1904723.37146  20747744.4064                   20747742.0234
  -2240473.82047  -1720162.89146  21210897.0314                   21210893.6174
  -8037040.59447  -6229972.31244  22868446.0164                   22868444.6564
  12249218.53947   9548242.86345  22328135.5554                   22328133.0984
  -5895593.02347  -4556247.84044  23157144.8674                   23157143.6484
 11  8 19 17 18 30.0000000  0  9G03G07G08G10G13G19G11G23G28
  10915597.06647   8512088.51244  22875600.3594                   22875599.6644
 -10365969.30547  -8052455.34046  20849346.3134                   20849343.7274
 -13102859.74647 -10190380.40245  22306359.9774                   22306358.2504
   4692345.31346   3672199.01243  24782313.8754                   24782315.6454
   2450920.48848   1928483.35946  20753546.9144                   20753544.4774
  -2231447.61747  -1713129.50846  21212614.9304                   21212611.0234
  -8146440.61747  -6315219.01244  22847627.8054                   22847626.4184
  12316239.87947   9600467.20745  22340889.2504                   22340886.2344
  -5978515.06247  -4620862.37144  23141364.6724                   23141363.5084
 11  8 19 17 19  0.0000000  0  9G03G07G08G10G13G19G11G23G28
  10978114.48847   8560803.30544  22887496.9064                   22887496.1214
 -10445657.35948  -8114549.91846  20834181.8524                   20834179.4964
 -13211935.32847 -10275374.34045  22285603.2194                   22285602.2424
   4709932.91847   3685903.57043  24785661.2584                   24785662.7234
   2481877.10948   1952605.37146  20759437.6644                   20759435.5394
  -2221895.91047  -1705686.64546  21214432.3524                   21214428.7234
  -8255674.93447  -6400336.62944  22826841.1334                   22826839.7584
  12383478.72347   9652861.01644  22353684.7274                   22353681.5824
  -6061266.12547  -4685343.68744  23125618.3834                   23125616.8164
 11  8 19 17 19 30.0000000  0 10G03G24G07G08G10G13G19G11G23G28
  11040851.05147   8609688.87544  22899435.8054                   22899435.1024
   6171401.64156   4835322.75453  24290298.6094                   24290302.2544
 -10525184.57048  -8176519.16446  20819048.9614                   20819045.8834
 -13321030.64147 -10360383.65645  22264843.4774                   22264841.5944
   4727619.63347   3699685.33643  24789026.4304                   24789027.8794
   2513285.05548   1977079.05946  20765414.0474                   20765412.3714
  -2211831.70748  -1697844.42646  21216347.4614                   21216343.8794
  -8364751.55547  -6485331.34044  22806084.6414                   22806083.7934
  12450921.21547   9705413.52745  22366518.3984                   22366515.4064
  -6143858.14547  -4749701.05544  23109901.3204                   23109900.0554
 11  8 19 17 20  0.0000000  0 10G03G24G07G08G10G13G19G11G23G28
  11103812.99247   8658750.07044  22911417.0394                   22911415.7234
   6062159.48446   4750199.13343  24269511.0004                   24269513.5204
 -10604540.01648  -8238354.55946  20803947.6724                   20803945.1804
 -13430135.09447 -10445400.09445  22244081.0474                   22244079.6724
   4745412.07847   3713549.54343  24792412.6564                   24792413.8984
   2545151.37148   2001909.91046  20771478.3364                   20771476.5904
  -2201247.67648  -1689597.15646  21218361.5474                   21218358.2154
  -8473658.30947  -6570193.70344  22785360.2504                   22785358.8094
  12518573.50847   9758129.51245  22379392.2974                   22379390.1094
  -6226282.66047  -4813927.92244  23094216.7734                   23094215.0944
 11  8 19 17 20 30.0000000  0 10G03G24G07G08G10G13G19G11G23G28
  11167008.25047   8707993.05144  22923442.5164                   22923441.9884
   5952828.85246   4665006.52743  24248706.1724                   24248709.5004
 -10683711.20748  -8300046.38746  20788882.1884                   20788879.3364
 -13539236.42247 -10530414.09845  22223320.2734                   22223318.6454
   4763317.84046   3727501.96943  24795819.7974                   24795820.8954
   2577484.70748   2027104.68846  20777631.1644                   20777629.0354
  -2190134.84048  -1680937.83246  21220476.4384                   21220472.4494
  -8582381.32847  -6654912.89144  22764671.2504                   22764669.9384
  12586443.39847   9811015.04345  22392307.4064                   22392304.5944
  -6308529.47747  -4878016.31644  23078565.1094                   23078564.3754
 11  8 19 17 21  0.0000000  0 10G03G24G07G08G10G13G19G11G23G28
  11230417.75447   8757402.97743  22935509.1334                   22935508.8714
   5843395.99246   4579734.27343  24227881.3914                   24227884.4184
 -10762712.71948  -8361605.99246  20773848.5474                   20773845.9494
 -13648349.91047 -10615437.57845  22202556.4384                   22202554.9104
   4781317.68046   3741527.74643  24799245.4384                   24799247.0864
   2610266.48048   2052648.87946  20783869.3984                   20783867.5634
  -2178511.54748  -1671880.74646  21222688.1644                   21222684.3794
  -8690934.02047  -6739499.35544  22744013.9774                   22744012.6294
  12654511.80147   9864055.24645  22405260.3594                   22405257.7854
  -6390615.55147  -4941979.44944  23062944.8364                   23062943.5984
 11  8 19 17 21 30.0000000  0 10G03G24G07G08G10G13G19G11G23G28
  11294031.05147   8806971.73844  22947613.9924                   22947613.6914
   5733856.18046   4494378.65243  24207036.3754                   24207039.7344
 -10841550.26648  -8423037.83246  20758846.5004                   20758844.0594
 -13757481.51247 -10700475.16445  22181788.6484                   22181787.2934
   4799401.46946   3755618.93843  24802686.8524                   24802687.9694
   2643487.08648   2078535.03146  20790191.1334                   20790189.2194
  -2166387.31648  -1662433.31246  21224995.7664                   21224991.7854
  -8799320.65647  -6823956.41844  22723388.6254                   22723387.4494
  12722768.13747   9917241.91045  22418249.4844                   22418246.7154
  -6472549.14847  -5005823.78144  23047353.9774                   23047352.4264
 11  8 19 17 22  0.0000000  0  9G03G24G07G08G13G19G11G23G28
  11357850.78547   8856701.32044  22959759.2034                   22959758.4494
   5624217.65246   4408946.13743  24186172.7894                   24186176.0704
 -10920216.28548  -8484336.02046  20743876.5314                   20743874.0124
 -13866624.28147 -10785521.46945  22161019.8204                   22161018.4344
   2677149.44548   2104765.39846  20796596.6094                   20796594.9574
  -2153758.53547  -1652592.69946  21227398.7974                   21227395.0234
  -8907532.37147  -6908277.21544  22702796.1484                   22702795.6804
  12791215.17247   9970577.15245  22431273.9064                   22431271.7234
  -6554325.56647  -5069545.63344  23031792.1254                   23031790.4654
 11  8 19 17 22 30.0000000  0  9G03G24G07G08G13G19G11G23G28
  11421888.26647   8906600.58244  22971944.9844                   22971944.0514
   5514497.17246   4323449.75443  24165293.7814                   24165296.4414
 -10998695.13748  -8545488.35246  20728942.5394                   20728939.9494
 -13975762.85247 -10870564.49245  22140251.9384                   22140249.9184
   2711265.39848   2131349.21546  20803088.9694                   20803087.1644
  -2140613.23047  -1642349.62146  21229900.1254                   21229896.2114
  -9015552.69147  -6992448.84444  22682241.1254                   22682239.4414
  12859863.93047  10024069.57845  22444337.6414                   22444335.5004
  -6635931.50847  -5133134.64544  23016262.8754                   23016261.4804
 11  8 19 17 23  0.0000000  0  9G03G24G07G08G13G19G11G23G28
  11486141.59047   8956668.03143  22984171.9774                   22984170.6914
   5404698.36746   4237892.35543  24144399.7274                   24144402.5704
 -11076984.18748  -8606492.79746  20714044.8134                   20714042.3524
 -14084894.48447 -10955602.09845  22119484.7664                   22119483.0554
   2745833.52348   2158285.37546  20809666.9144                   20809664.9654
  -2126952.48447  -1631704.89146  21232499.7894                   21232495.6684
  -9123377.63347  -7076468.24644  22661722.9304                   22661721.1564
  12928712.42247  10077717.63745  22457439.2974                   22457437.3094
  -6717366.73847  -5196590.66044  23000766.1954                   23000764.5474
 11  8 19 17 23 30.0000000  0  9G03G24G07G08G13G19G11G23G28
  11550614.53547   9006906.60943  22996440.3594                   22996439.8524
   5294830.96546   4152281.47343  24123492.4774                   24123495.5474
 -11155074.28947  -8667342.22746  20699184.5944                   20699181.7814
 -14194010.85547 -11040627.82045  22098720.4774                   22098719.1414
   2780858.54348   2185577.56346  20816332.1644                   20816330.6174
  -2112771.19947  -1620654.54746  21235198.2114                   21235194.4614
  -9230996.78147  -7160327.29744  22641243.3134                   22641242.2384
  12997764.77047  10131524.56345  22470580.0004                   22470577.1374
  -6798624.91047  -5259908.69144  22985303.4144                   22985302.3594
 11  8 19 17 24  0.0000000  0  9G03G24G07G08G13G19G11G23G28
  11615293.66047   9057305.84843  23008749.1254                   23008748.1334
   5184887.19946   4066611.08643  24102570.3054                   24102574.2464
 -11232974.30547  -8728043.52746  20684360.7974                   20684357.7854
 -14303121.13747 -11125648.78945  22077957.3364                   22077956.2814
   2816327.60548   2213215.74646  20823081.6094                   20823079.8484
  -2098081.94148  -1609208.37946  21237993.7584                   21237989.8204
  -9338417.78147  -7244031.92644  22620801.6644                   22620800.3794
  13067007.39547  10185479.73845  22483756.5004                   22483753.6094
  -6879717.29347  -5323097.52744  22969872.3134                   22969870.6094
 11  8 19 17 24 30.0000000  0  9G03G24G07G08G13G19G11G23G28
  13255582.31346  10335452.80943  23320885.1334                   23320884.3134
   6650281.87146   5208477.14843  24381426.2344                   24381429.6254
  -9735271.69948  -7561002.53546  20969364.1414                   20969361.2854
 -12836811.76247  -9983070.01245  22356986.7344                   22356985.4454
   4427645.49248   3468788.08246  21129705.3984                   21129703.6644
   -507478.81648   -369777.37146  21540675.3204                   21540671.3444
  -7870225.80947  -6099986.19944  22900189.7034                   22900188.2734
  14711843.45747  11467170.07845  22796758.3364                   22796755.7384
  -5385233.74247  -4158564.87144  23254262.9454                   23254261.9844
 11  8 19 17 25  0.0000000  0  9G03G24G07G08G13G19G11G23G28
  13320639.78147  10386146.86744  23333265.8284                   23333264.7504
   6540168.00046   5122674.16443  24360472.9534                   24360475.2074
  -9812812.03548  -7621423.57446  20954608.5944                   20954606.1524
 -12945931.14847 -10068098.07445  22336221.7584                   22336220.6294
   4463969.88748   3497092.77046  21136617.8674                   21136615.9024
   -491805.23847   -357564.19146  21543658.0474                   21543653.8714
  -7977267.35947  -6183395.16844  22879819.8594                   22879818.4694
  14781432.17247  11521394.96145  22810000.3834                   22809997.5124
  -5466022.69947  -4221517.27045  23238888.9774                   23238888.2584
 11  8 19 17 25 30.0000000  0  9G03G24G07G08G13G19G11G23G28
  13385896.85546  10436996.44943  23345683.5394                   23345682.7154
   6429987.81646   5036819.57043  24339505.9694                   24339508.4654
  -9890154.85948  -7681690.73046  20939890.6884                   20939887.9344
 -13055038.44147 -10153116.71545  22315458.9304                   22315458.2544
   4500732.71948   3525739.09446  21143613.3914                   21143611.6954
   -475628.50448   -344958.94946  21546736.0784                   21546732.3594
  -8084100.04347  -6266641.37944  22859490.7034                   22859489.3094
  14851204.18847  11575762.65244  22823277.8054                   22823275.2544
  -5546646.55547  -4284341.02744  23223546.5004                   23223545.2734
 11  8 19 17 26  0.0000000  0  9G03G24G07G08G13G19G11G23G28
  13451358.57046  10488005.50043  23358140.2274                   23358139.9024
   6319751.98046   4950921.61343  24318528.0164                   24318531.3484
  -9967290.89148  -7741796.70746  20925212.2194                   20925209.8484
 -13164124.18047 -10238118.56245  22294701.0314                   22294699.8674
   4537939.63748   3554731.45346  21150693.5864                   21150691.5634
   -458942.65648   -331957.00046  21549911.6724                   21549907.8984
  -8190712.97747  -6349716.34444  22839202.5474                   22839200.8014
  14921164.28147  11630276.93044  22836591.3674                   22836588.1374
  -5627098.41847  -4347030.76244  23208237.1884                   23208236.1094
 11  8 19 17 26 30.0000000  0  9G03G24G07G08G13G19G11G23G28
  13517008.37946  10539161.11343  23370633.6484                   23370633.1454
   6209449.41846   4864971.68043  24297538.5234                   24297541.2384
 -10044231.62148  -7801750.52046  20910570.9844                   20910568.5234
 -13273200.53147 -10323113.10545  22273944.3594                   22273943.0944
   4575574.90648   3584057.60246  21157855.5394                   21157853.4534
   -441763.44948   -318570.60946  21553180.7664                   21553176.2934
  -8297116.94947  -6432628.49244  22818954.6724                   22818953.5084
  14991295.87147  11684924.80544  22849936.2034                   22849934.0434
  -5707392.47747  -4409597.54344  23192958.0474                   23192956.5084
 11  8 19 17 27  0.0000000  0  9G03G24G07G08G13G19G11G23G28
  13582847.03147  10590463.88344  23383161.9304                   23383162.1024
   6099086.66046   4778974.85543  24276537.0084                   24276539.9104
 -10120971.61748  -7861547.91446  20895967.5234                   20895965.3874
 -13382261.94947 -10408095.99645  22253190.6644                   22253189.7584
   4613639.36348   3613718.18446  21165098.8984                   21165097.2544
   -424089.05548   -304798.37546  21556543.5314                   21556539.6764
  -8403304.86747  -6515372.28944  22798747.4064                   22798746.0004
  15061599.91447  11739707.05544  22863314.8204                   22863312.7074
  -5787525.53147  -4472038.85544  23177709.0314                   23177708.1564
 11  8 19 17 27 30.0000000  0  9G03G24G07G08G13G19G11G23G28
  13648856.69146  10641899.90643  23395723.6094                   23395723.0044
   5988651.33646   4692921.48443  24255521.8364                   24255524.8404
 -10197524.32048  -7921199.35946  20881399.8134                   20881397.4024
 -13491322.12147 -10493077.92245  22232437.5004                   22232436.0554
   4652115.12948   3643699.25446  21172421.0314                   21172418.6134
   -405937.11748   -290654.00846  21559998.2344                   21559994.5004
  -8509289.00047  -6597957.28944  22778579.1884                   22778578.3834
  15132058.12147  11794609.44544  22876722.7664                   22876720.3674
  -5867513.89147  -4534367.40644  23162487.4384                   23162486.8014
 11  8 19 17 28  0.0000000  0  9G03G24G07G08G13G19G11G23G28
  13715046.03147  10693475.93844  23408318.7894                   23408318.3204
   5878158.11746   4606822.94543  24234495.9144                   24234498.8444
 -10273875.80548  -7980694.02746  20866871.1254                   20866868.7774
 -13600368.12547 -10578048.81245  22211686.8204                   22211685.4654
   4691011.77748   3674008.29746  21179822.9304                   21179820.5554
   -387298.05548   -276130.09046  21563544.7894                   21563541.3324
  -8615054.84447  -6680372.18044  22758452.6954                   22758451.4654
  15202679.34047  11849638.85244  22890162.2664                   22890159.2854
  -5947346.45347  -4596574.56644  23147295.8674                   23147295.4144
 11  8 19 17 28 30.0000000  0  9G03G24G07G08G13G19G11G23G28
  13781402.06646  10745181.85243  23420946.1644                   23420945.8714
   5767599.65646   4520673.57843  24213456.7584                   24213460.0084
 -10350034.57848  -8040038.51646  20852378.2344                   20852375.8524
 -13709408.43447 -10663015.26245  22190937.2034                   22190935.6484
   4730316.67248   3704635.44546  21187301.9384                   21187300.3984
   -368184.26247   -261236.24246  21567182.3204                   21567178.4264
  -8720609.69547  -6762622.66844  22738366.3754                   22738365.4414
  15273450.28947  11904784.92644  22903629.6174                   22903626.8244
  -6027034.44147  -4658669.05944  23132132.1254                   23132130.9574
 11  8 19 17 29  0.0000000  0  9G03G24G07G08G13G19G11G23G28
  13847939.14146  10797028.84044  23433607.8984                   23433607.3244
   5656996.32446   4434489.26643  24192409.1954                   24192412.6684
 -10425981.34048  -8099217.80546  20837926.4844                   20837923.7234
 -13818423.94547 -10747962.39545  22170192.2274                   22170190.5904
   4770045.03548   3735592.57446  21194862.3284                   21194859.9694
   -348580.21948   -245960.38746  21570912.8444                   21570908.8754
  -8825932.44947  -6844692.31644  22718324.2814                   22718322.7194
  15344385.67647  11960059.14544  22917127.6484                   22917125.8054
  -6106560.77047  -4720637.59044  23116998.3754                   23116997.4614
 11  8 19 17 29 30.0000000  0  9G03G24G07G08G13G19G11G23G28
  13914648.04747  10849009.72743  23446302.5314                   23446301.9734
   5546343.64546   4348266.51643  24171353.2734                   24171355.9414
 -10501721.44148  -8158236.06646  20823513.3364                   20823510.9264
 -13927420.26647 -10832894.57045  22149450.8444                   22149449.4884
   4810187.12948   3766872.09446  21202500.9224                   21202499.3244
   -328495.60947   -230310.05946  21574734.5944                   21574730.8134
  -8931027.64547  -6926584.61744  22698325.1724                   22698323.3364
  15415475.26247  12015453.49644  22930655.6644                   22930653.3164
  -6185933.83647  -4782486.71144  23101894.3594                   23101892.7774
 11  8 19 17 30  0.0000000  0  9G03G24G07G08G13G19G11G23G28
  13981529.18047  10901124.83643  23459029.8204                   23459028.9184
   5435647.98046   4262010.24643  24150288.1884                   24150290.6414
 -10577249.45748  -8217089.08646  20809140.8284                   20809138.3754
 -14036392.53947 -10917808.00445  22128713.7344                   22128713.0234
   4850743.37948   3798474.32046  21210218.5314                   21210216.6094
   -307929.09048   -214284.22746  21578648.3284                   21578645.0204
  -9035888.63347  -7008294.41844  22678370.6954                   22678369.0314
  15486719.56647  12070968.42644  22944213.5084                   22944211.4384
  -6265150.75447  -4844214.15244  23086820.3054                   23086818.3054
 11  8 19 17 30 30.0000000  0  9G03G24G07G08G13G19G11G23G28
  14048579.69546  10953371.88744  23471788.7114                   23471788.6524
   5324912.00846   4175722.56343  24129215.8444                   24129218.3444
 -10652563.27748  -8275775.18046  20794809.3364                   20794806.6884
 -14145338.65248 -11002701.06245  22107982.4454                   22107980.7304
   4891711.62948   3830397.59046  21218014.2504                   21218012.7384
   -286882.65248   -197884.42646  21582653.4774                   21582649.7344
  -9140512.40247  -7089819.39544  22658461.6724                   22658460.1214
  15558116.04347  12126601.91045  22957799.6174                   22957797.7384
  -6344212.20747  -4905820.44544  23071775.0314                   23071773.9654
 11  8 19 17 31  0.0000000  0  9G03G24G07G08G13G19G11G23G28
  14115787.00447  11005741.16443  23484577.5784                   23484577.2734
   5214129.17646   4089398.35943  24108134.9534                   24108137.0664
 -10727670.52048  -8334300.29746  20780516.4844                   20780514.2544
 -14254267.14548 -11087580.39145  22087253.6334                   22087252.5984
   4933079.78548   3862632.47346  21225886.8134                   21225884.8714
   -265368.44148   -181120.14146  21586747.6884                   21586743.6414
  -9244905.61747  -7171164.71544  22638596.0234                   22638594.9964
  15629651.80147  12182343.92644  22971412.7584                   22971411.0164
  -6423128.70747  -4967313.79744  23056757.6564                   23056755.9774
 11  8 19 17 31 30.0000000  0  9G03G24G07G08G13G19G11G23G28
  14183147.27747  11058229.65643  23497396.3204                   23497395.0434
   5103301.14846   4003038.92243  24087045.0704                   24087047.0664
 -10802570.88348  -8392664.21546  20766263.5234                   20766261.2274
 -14363176.94147 -11172445.16045  22066528.9844                   22066527.6564
   4974844.24248   3895176.15646  21233834.0004                   21233832.0514
   -243389.68448   -163993.86346  21590929.7034                   21590926.4454
  -9349066.41047  -7252328.93444  22618774.9844                   22618773.5124
  15701323.00047  12238191.50444  22985051.3444                   22985049.3324
  -6501902.07447  -5028695.61744  23041767.4614                   23041765.7584
 11  8 19 17 32  0.0000000  0  9G03G24G07G08G13G19G11G23G28
  14250675.55946  11110848.99843  23510246.6804                   23510246.0474
   4992448.63746   3916660.42643  24065950.4844                   24065953.0204
 -10877244.34448  -8450851.32046  20752053.6804                   20752051.2304
 -14472048.87947 -11257280.41445  22045811.0474                   22045809.8054
   5017020.09048   3928040.40246  21241859.8444                   21241858.1724
   -220930.88348   -146493.52046  21595203.6414                   21595200.0274
  -9452974.02747  -7333295.88744  22599001.9924                   22599000.7304
  15773144.46147  12294156.14544  22998719.0234                   22998716.1724
  -6580515.12147  -5089952.50844  23026807.9064                   23026806.0944
 11  8 19 17 32 30.0000000  0  9G03G24G07G08G13G19G11G23G28
  14318332.68846  11163568.78943  23523121.0634                   23523120.7974
   4881538.08646   3830236.69143  24044844.4534                   24044846.6524
 -10951725.59848  -8508888.65246  20737880.3054                   20737877.6484
 -14580917.44947 -11342113.04745  22025094.0944                   22025092.7894
   5059568.69148   3961195.10946  21249956.7344                   21249954.8444
   -198030.95348   -128649.44546  21599561.5784                   21599557.3484
  -9556661.94547  -7414091.62144  22579270.5554                   22579269.1254
  15845076.57847  12350207.02744  23012406.6334                   23012404.3794
  -6659005.75047  -5151114.01244  23011871.7114                   23011869.7934
 11  8 19 17 33  0.0000000  0  9G03G24G07G08G13G19G11G23G28
  14386133.72746  11216400.66043  23536022.7974                   23536023.2384
   4770590.31346   3743783.94143  24023732.6564                   24023734.3404
 -11025994.87948  -8566760.83246  20723747.6564                   20723745.2074
 -14689763.30147 -11426927.96545  22004381.6644                   22004380.4264
   5102504.61748   3994651.64146  21258127.4454                   21258125.5784
   -174674.19147   -110449.39146  21604005.9064                   21604002.1024
  -9660109.25847  -7494699.88745  22559585.0554                   22559583.9264
  15917134.40247  12406355.82844  23026118.8054                   23026116.9224
  -6737356.48047  -5212166.52744  22996962.0704                   22996960.4574
 11  8 19 17 33 30.0000000  0  9G03G24G07G08G13G19G11G23G28
  14454092.03146  11269355.09443  23548954.4614                   23548955.3984
   4659624.16847   3657316.87143  24002615.0314                   24002618.1334
 -11100034.17648  -8624453.76246  20709658.3594                   20709655.8404
 -14798568.85247 -11511711.48045  21983676.3524                   21983675.1254
   5145841.52347   4028420.61346  21266373.8754                   21266372.2664
   -150846.92648    -91882.72346  21608540.3674                   21608536.9454
  -9763296.95347  -7575105.85545  22539949.6024                   22539947.9344
  15989330.93047  12462612.71544  23039857.3594                   23039855.4574
  -6815552.41047  -5273098.39544  22982081.7344                   22982080.1374
 11  8 19 17 34  0.0000000  0  9G03G24G07G08G13G19G11G23G28
  14522210.62946  11322434.48443  23561917.5784                   23561917.5474
   4548648.74246   3570842.56343  23981497.4924                   23981499.6484
 -11173835.35948  -8681961.17246  20695614.4224                   20695611.9844
 -14907326.39547 -11596457.59045  21962980.7504                   21962978.9574
   5189583.02348   4062504.85546  21274697.6484                   21274695.9964
   -126545.59448    -72946.63346  21613164.8444                   21613161.1174
  -9866215.88747  -7655302.40644  22520364.5554                   22520362.6914
  16061669.48447  12518980.27044  23053623.4064                   23053620.9694
  -6893588.01247  -5333905.34044  22967232.1174                   22967230.5124
 11  8 19 17 34 30.0000000  0  9G03G24G07G08G13G19G11G23G28
  14590465.85246  11375620.31643  23574906.5234                   23574905.9224
   4437645.50446   3484346.57844  23960374.6024                   23960376.9344
 -11247418.34848  -8739298.56246  20681611.8914                   20681609.5274
 -15016055.52347 -11681181.56645  21942290.2894                   21942288.6024
   5233705.04348   4096885.60246  21283094.1484                   21283092.3794
   -101793.97348    -53659.66446  21617874.5164                   21617871.1914
  -9968884.59847  -7735303.96544  22500827.3594                   22500826.0164
  16134125.77347  12575439.57844  23067411.2894                   23067409.6844
  -6971485.43447  -5394604.60244  22952408.6884                   22952407.2274
 11  8 19 17 35  0.0000000  0  9G03G24G07G08G13G19G11G23G28
  14658859.81346  11428914.21943  23587921.5474                   23587921.1564
   4326622.24247   3397835.00443  23939247.4384                   23939249.4694
 -11320776.11748  -8796460.44946  20667652.6884                   20667649.8484
 -15124749.24248 -11765877.94545  21921606.5394                   21921604.3954
   5278210.26248   4131564.94946  21291563.2974                   21291561.4734
    -76589.09048    -34019.52346  21622671.0164                   21622667.3634
 -10071294.97747  -7815104.24645  22481339.5004                   22481337.8634
  16206701.59847  12631992.02344  23081222.2894                   23081220.2584
  -7049240.66047  -5455193.07044  22937612.2814                   22937610.8134
 11  8 19 17 35 30.0000000  0  9G03G24G07G08G13G19G11G23G28
  14727382.80546  11482308.70343  23600961.5784                   23600960.8594
   4215575.23047   3311304.93043  23918115.8834                   23918118.1294
 -11393913.31648  -8853450.47746  20653734.8054                   20653732.2074
 -15233412.93047 -11850550.92245  21900928.4304                   21900926.5004
   5323088.91847   4166535.28546  21300103.4534                   21300101.6684
    -50940.56248    -14033.67646  21627551.7114                   21627548.4734
 -10173450.98847  -7894706.33245  22461899.6254                   22461898.0514
  16279387.32447  12688630.10944  23095054.0164                   23095051.8444
  -7126861.69547  -5515676.96544  22922841.8134                   22922840.1914
 11  8 19 17 36  0.0000000  0  9G03G24G07G08G13G19G11G23G28
  14796054.25846  11535818.84443  23614028.5234                   23614028.7704
   4104529.86347   3224776.15643  23896984.4454                   23896986.4384
 -11466805.88748  -8910249.88346  20639863.8364                   20639861.0314
 -15342022.55148 -11935181.78145  21880260.6884                   21880259.1724
   5368360.39847   4201811.71546  21308718.1174                   21308716.4344
    -24828.22748      6313.57846  21632520.7274                   21632517.5824
 -10275327.28147  -7974090.42645  22442513.0784                   22442511.7894
  16352202.32447  12745368.93044  23108910.8364                   23108908.6214
  -7204326.33647  -5576039.01245  22908100.0864                   22908098.8134
 11  8 19 17 36 30.0000000  0  9G03G24G07G08G13G19G11G23G28
  14864859.97746  11589433.59043  23627122.1564                   23627122.2234
   3993477.27046   3138241.71943  23875851.5314                   23875854.1884
 -11539463.60548  -8966866.29346  20626037.9144                   20626035.0864
 -15450587.94948 -12019778.18445  21859601.3134                   21859599.5664
   5414010.38348   4237383.07845  21317405.3674                   21317403.7464
      1733.55948     27011.05146  21637575.6954                   21637572.0634
 -10376932.72747  -8053263.48044  22423178.1804                   22423177.0704
  16425132.18047  12802197.23844  23122789.0314                   23122787.2194
  -7281647.70347  -5636289.39544  22893386.5394                   22893385.3914
 11  8 19 17 37  0.0000000  0  9G03G24G07G08G13G19G11G23G28
  14933789.93446  11643145.14143  23640238.3754                   23640239.2974
   3882413.08246   3051698.25043  23854716.6484                   23854719.0004
 -11611891.52048  -9023303.61746  20612255.0634                   20612252.6484
 -15559114.50448 -12104344.30945  21838949.5704                   21838947.5394
   5460029.30147   4273241.92646  21326162.3834                   21326160.5744
     28735.84448     48051.77746  21642713.8914                   21642710.3444
 -10478271.20347  -8132228.52745  22403894.3284                   22403892.6254
  16498166.87547  12859107.23844  23136686.6884                   23136684.6914
  -7358833.59447  -5696434.21145  22878699.0634                   22878697.2344
 11  8 19 17 37 30.0000000  0  9G03G24G07G08G13G19G11G23G28
  15002851.96146  11696959.65243  23653380.3834                   23653380.8284
   3771350.53547   2965156.08643  23833582.7814                   23833584.7894
 -11684077.40248  -9079552.37146  20598518.6094                   20598516.0984
 -15667590.07848 -12188870.72745  21818307.4144                   21818305.5084
   5506424.60548   4309394.05545  21334991.2894                   21334989.3284
     56185.59048     69441.16446  21647937.2114                   21647934.0394
 -10579329.85947  -8210975.51245  22384663.5704                   22384661.4344
  16571313.52347  12916104.46544  23150606.5634                   23150604.5704
  -7435874.63347  -5756466.16045  22864038.0944                   22864036.7504
 11  8 19 17 38  0.0000000  0  9G03G24G07G08G13G19G11G23G28
  15072035.46946  11750868.80543  23666545.4774                   23666546.6994
   3660284.72347   2878611.36743  23812446.7344                   23812449.5904
 -11756027.44148  -9135617.33246  20584827.0474                   20584823.9734
 -15776020.80148 -12273362.17645  21797673.3284                   21797671.7304
   5553185.58248   4345831.11746  21343889.4534                   21343887.4104
     84073.06648     91171.64146  21653244.1954                   21653240.1484
 -10680113.43447  -8289508.14845  22365484.9144                   22365483.2934
  16644561.29347  12973180.48844  23164544.3754                   23164544.0474
  -7512779.44947  -5816391.94545  22849403.4614                   22849402.0744
 11  8 19 17 38 30.0000000  0  9G03G24G07G08G13G19G11G23G28
  15141332.93446  11804866.72343  23679732.9774                   23679733.5634
   3549214.36346   2792063.12543  23791311.0394                   23791313.2114
 -11827743.97348  -9191500.34446  20571179.7734                   20571177.2154
 -15884409.35248 -12357820.77345  21777047.8134                   21777046.0204
   5600305.41048   4382547.81345  21352855.8284                   21352854.3094
    112391.22748    113237.72746  21658632.8204                   21658629.6294
 -10780623.27047  -8367827.47745  22346358.4144                   22346357.3794
  16717902.98047  13030329.69544  23178501.2114                   23178500.1604
  -7589553.17647  -5876215.59845  22834794.0314                   22834793.0704
 11  8 19 17 39  0.0000000  0  9G03G24G07G08G13G19G11G23G28
  15210746.66046  11858955.26643  23692942.9774                   23692942.2974
   3438146.61347   2705516.93443  23770176.0704                   23770177.6604
 -11899220.90648  -9247196.64846  20557578.1724                   20557575.8874
 -15992749.25848 -12442241.45745  21756431.2894                   21756429.6024
   5647785.68048   4419545.37146  21361891.3134                   21361889.4344
    141141.94148    135640.87146  21664104.1174                   21664100.6174
 -10880852.10247  -8445927.84045  22327285.8674                   22327284.6994
  16791339.85547  13087553.05544  23192475.8754                   23192474.9774
  -7666192.53547  -5935934.53144  22820210.1954                   22820208.7894
 11  8 19 17 39 30.0000000  0  9G03G24G07G08G13G19G11G23G28
  15280275.61746  11913133.63343  23706172.8914                   23706173.6414
   3327086.76247   2618976.89543  23749041.1414                   23749043.6374
 -11970453.98448  -9302702.94146  20544023.0864                   20544020.4414
 -16101036.71948 -12526621.28545  21735825.0784                   21735823.1094
   5695625.64548   4456823.21145  21370994.8834                   21370992.9344
    170324.96948    158380.86346  21669657.7194                   21669653.8954
 -10980794.82847  -8523805.23845  22308267.3364                   22308265.9924
  16864871.50847  13144850.27744  23206468.9924                   23206467.0314
  -7742696.22747  -5995547.75045  22805652.6724                   22805650.3634
 11  8 19 17 40  0.0000000  0  9G03G24G07G08G13G19G11G23G28
  15349921.35546  11967402.96143  23719426.2274                   23719426.5204
   3216041.86347   2532448.54743  23727911.0394                   23727912.7344
 -12041437.34448  -9358014.64846  20530515.1884                   20530512.6484
 -16209265.98448 -12610955.77045  21715229.5084                   21715227.7664
   5743826.88748   4494382.56645  21380167.3524                   21380165.8324
    199941.92248    181458.98445  21675293.3364                   21675289.6844
 -11080444.63347  -8601454.41045  22289304.6334                   22289302.8714
  16938499.00447  13202222.19144  23220479.2344                   23220477.9304
  -7819061.13747  -6055052.83245  22791120.7344                   22791118.2934
 11  8 19 17 40 30.0000000  0  9G03G24G07G08G13G19G11G23G28
  15419687.12946  12021765.82043  23732702.9534                   23732703.0084
   3105020.73047   2445938.68043  23706783.5084                   23706785.8634
 -12112163.10248  -9413125.62946  20517056.5394                   20517054.0514
 -16317429.18748 -12695238.76245  21694646.7274                   21694645.1454
   5792392.00448   4532225.45746  21389409.4454                   21389407.6684
    229995.94548    204877.68045  21681012.1804                   21681008.4104
 -11179792.54747  -8678868.33245  22270399.0004                   22270397.4574
  17012225.04747  13259670.88744  23234509.0394                   23234508.4414
  -7895282.05147  -6114445.71545  22776616.0634                   22776613.9804
 11  8 19 17 41  0.0000000  0  9G03G24G07G08G13G19G11G23G28
  15489564.18446  12076215.38743  23745999.3674                   23746000.0634
   2994020.58247   2359445.19143  23685660.7344                   23685663.0474
 -12182635.37148  -9468039.09446  20503646.2194                   20503643.5944
 -16425530.42647 -12779473.48045  21674075.8754                   21674074.3444
   5841312.52048   4570345.27345  21398718.5474                   21398716.8054
    260478.50848    228630.30145  21686812.8364                   21686809.2934
 -11278841.77347  -8756049.49645  22251550.8444                   22251548.7274
  17086040.86347  13317189.55144  23248556.6644                   23248554.9304
  -7971365.93747  -6173731.82445  22762137.3674                   22762135.6644
 11  8 19 17 41 30.0000000  0  9G03G24G07G08G13G19G11G23G28
  15559532.53146  12130736.08643  23759314.6724                   23759314.5164
   2883026.45747   2272956.41843  23664539.3054                   23664541.2424
 -12252869.73048  -9522767.17246  20490280.8674                   20490278.3244
 -16533585.32848 -12863672.07845  21653513.3984                   21653511.7734
   5890568.25448   4608726.30945  21408091.4304                   21408089.7774
    291369.78148    252701.40645  21692691.1954                   21692687.9694
 -11377607.09847  -8833009.46945  22232756.4924                   22232754.4924
  17159926.18447  13374762.33244  23262616.1334                   23262614.9924
  -8047331.32447  -6232925.60944  22747681.9694                   22747679.9614
 11  8 19 17 42  0.0000000  0  9G03G24G07G08G13G19G11G23G28
  15629614.92646  12185345.68043  23772650.7894                   23772650.3984
   2772066.97347   2186494.59443  23643424.3594                   23643425.8164
 -12322838.85248  -9577288.55946  20476966.1414                   20476963.8244
 -16641566.93748 -12947813.57845  21632965.1484                   21632963.6054
   5940181.24648   4647385.73845  21417532.5004                   21417530.6804
    322692.54348    277108.73045  21698651.9774                   21698648.5234
 -11476060.17247  -8909726.10545  22214020.8984                   22214019.6764
  17233903.21147  13432406.60544  23276694.3914                   23276692.6054
  -8123153.57847  -6292007.86745  22733253.4614                   22733251.0784
 11  8 19 17 42 30.0000000  0  9G03G24G07G08G13G19G11G23G28
  15699802.85546  12240037.50843  23786007.3834                   23786006.3404
   2661139.85546   2100058.01643  23622315.4384                   23622316.8164
 -12392546.23448  -9631606.01246  20463701.3054                   20463698.9614
 -16749478.47348 -13031900.46545  21612430.5004                   21612428.9804
   5990144.07048   4686317.75045  21427040.3204                   21427038.7464
    354438.75848    301846.01646  21704693.0704                   21704689.4574
 -11574203.12547  -8986201.09845  22195344.8834                   22195343.2894
  17307963.85547  13490116.01244  23290787.7114                   23290785.9924
  -8198838.85947  -6350983.38745  22718850.8204                   22718848.8094
 11  8 19 17 43  0.0000000  0  9G03G24G07G08G13G19G11G23G28
  15770078.80946  12294797.90243  23799380.6414                   23799380.0124
   2550232.14547   2013636.58243  23601210.1094                   23601212.0004
 -12462005.19948  -9685729.87946  20450483.9144                   20450481.0984
 -16857333.33648 -13115943.20345  21591906.5234                   21591904.8554
   6040438.18047   4725507.91045  21436610.8524                   21436608.8914
    386590.54348    326899.34446  21710811.5864                   21710807.9614
 -11672048.53147  -9062444.24245  22176725.6644                   22176724.1884
  17382089.79347  13547876.30544  23304893.4144                   23304891.9774
  -8274403.42647  -6409864.85245  22704471.2974                   22704469.5784
 11  8 19 17 43 30.0000000  0  9G03G24G07G08G13G19G11G23G28
  15840455.05946  12349636.46942  23812772.5784                   23812772.4414
   2439362.62147   1927244.89843  23580112.6254                   23580114.1484
 -12531198.51248  -9739646.75846  20437316.6484                   20437313.9694
 -16965114.71948 -13199928.68045  21571395.8134                   21571394.6254
   6091075.73048   4764965.68445  21446247.1174                   21446245.3444
    419160.44148    352278.46145  21717009.0314                   21717005.6254
 -11769578.81647  -9138441.83645  22158166.1724                   22158164.5164
  17456293.35247  13605697.05544  23319014.2274                   23319012.6604
  -8349833.12147  -6468641.21145  22690117.4224                   22690115.4694
 11  8 19 17 44  0.0000000  0  9G03G24G07G08G13G19G11G23G28
  15910932.16846  12404553.63743  23826183.4384                   23826183.8094
   2328537.83647   1840888.04743  23559023.4064                   23559024.4924
 -12600120.95748  -9793352.56646  20424201.5004                   20424198.9104
 -17072816.70747 -13283852.28545  21550901.1174                   21550899.7304
   6142058.02048   4804692.09845  21455948.6484                   21455946.6134
    452149.43848    377984.15246  21723286.9224                   21723283.5394
 -11866786.98847  -9214188.42645  22139667.8284                   22139666.8954
  17530575.16847  13663578.78944  23333149.0234                   23333148.1804
  -8425125.48047  -6527310.56245  22675789.9694                   22675788.1174
 11  8 19 17 44 30.0000000  0  9G03G24G07G08G13G19G11G23G28
  15981495.52746  12459537.99243  23839611.2584                   23839611.5434
   2217748.04747   1754558.48043  23537940.3524                   23537942.2074
 -12668783.44548  -9846855.82446  20411135.0634                   20411132.6334
 -17180450.75448 -13367722.95745  21530418.9844                   21530417.7584
   6193369.05947   4844674.67245  21465712.8524                   21465711.2704
    485542.23448    404004.49246  21729641.3444                   21729637.7544
 -11963683.40647  -9289692.10545  22121229.2814                   22121227.6564
  17604919.32447  13721509.11344  23347296.7194                   23347295.8164
  -8500294.19147  -6585883.55545  22661485.8834                   22661483.8554
 11  8 19 17 45  0.0000000  0  9G03G24G07G08G13G19G11G23G28
  17627565.25846  13742189.73442  24152848.6644                   24152847.4384
   3682425.16447   2895865.42643  23816658.5704                   23816660.9654
 -11161756.28548  -8672548.95746  20697912.6484                   20697910.5514
 -15712585.74648 -12223932.01645  21809744.4534                   21809743.0594
   7820429.34848   6112513.80945  21775332.1414                   21775330.5634
   2094760.52348   1657940.80145  22035865.9224                   22035861.8874
 -10484836.53147  -8137343.84045  22402644.7584                   22402642.8554
  19254746.23447  15007088.32444  23661249.0784                   23661247.5594
  -6999911.98847  -5416754.53945  22946998.8594                   22946997.0004
 11  8 19 17 45 30.0000000  0  9G03G24G07G08G13G19G11G23G28
  17698304.01246  13797310.77343  24166309.5784                   24166309.5274
   3571725.09047   2809605.70743  23795593.3984                   23795595.6604
 -11229881.67648  -8725633.68446  20684949.2974                   20684946.8054
 -15820066.30948 -12307683.08645  21789291.6724                   21789290.2074
   7872399.98847   6153010.34845  21785221.7504                   21785220.3674
   2128964.02748   1684592.86746  22042373.9384                   22042370.6374
 -10581089.52747  -8212346.12945  22384327.9144                   22384326.7734
  19329218.01647  15065118.06344  23675420.4924                   23675419.1884
  -7074824.26647  -5475127.71145  22932743.1174                   22932741.9924
 11  8 19 17 46  0.0000000  0  9G03G24G07G08G13G19G11G23G28
  17769136.85946  13852505.10943  24179788.8984                   24179789.2464
   3461085.01647   2723392.74243  23774539.5864                   23774541.3914
 -11297725.34848  -8778498.86746  20672039.0084                   20672036.6024
 -15927456.79748 -12391363.97745  21768855.7424                   21768854.5164
   7924706.90248   6193768.93445  21795175.2504                   21795174.0234
   2163579.16048   1711565.68045  22048961.3754                   22048957.6374
 -10677006.36347  -8287086.49245  22366076.2584                   22366074.1764
  19403759.73047  15123202.27744  23689604.6334                   23689604.7344
  -7149599.59847  -5533394.18445  22918514.5234                   22918512.4264
 11  8 19 17 46 30.0000000  0  9G03G24G07G08G13G19G11G23G28
  17840050.77746  13907762.64543  24193283.2734                   24193283.1374
   3350497.42647   2637220.63743  23753494.9694                   23753497.2504
 -11365295.62548  -8831151.02346  20659180.6884                   20659178.4064
 -16034765.75848 -12474981.33645  21748435.6414                   21748433.8914
   7977336.77348   6234779.16445  21805190.7274                   21805189.0904
   2198593.22348   1738849.34045  22055624.1254                   22055620.6844
 -10772593.71147  -8361570.11345  22347885.9454                   22347884.2274
  19478358.01647  15181330.61344  23703800.8834                   23703799.8634
  -7224248.83247  -5591562.39145  22904309.1564                   22904307.0554
 11  8 19 17 47  0.0000000  0  9G03G24G07G08G13G19G11G23G28
  17911033.26246  13963073.61343  24206791.0234                   24206791.1644
   3239955.16447   2551083.89843  23732458.7814                   23732460.8014
 -11432601.03948  -8883596.80146  20646373.0164                   20646370.5864
 -16142001.37548 -12558541.55145  21728029.4774                   21728027.8634
   8030276.20748   6276030.60545  21815265.1954                   21815263.6884
   2233993.14548   1766433.67645  22062360.7034                   22062356.9884
 -10867860.07047  -8435803.61745  22329757.2584                   22329755.4774
  19552999.57447  15239492.64144  23718004.3914                   23718003.7344
  -7298783.28947  -5649641.15645  22890125.5554                   22890123.5554
 11  8 19 17 47 30.0000000  0  9G03G24G07G08G13G19G11G23G28
  17982088.74646  14018441.46143  24220312.4144                   24220312.4224
   3129468.81347   2464990.68043  23711434.9454                   23711435.9494
 -11499632.09048  -8935828.78146  20633617.4144                   20633615.0784
 -16249154.02348 -12642037.10545  21707639.0704                   21707637.1294
   8083529.98847   6317527.00045  21825398.4694                   21825397.0554
   2269783.75048   1794322.43046  22069171.3754                   22069168.0594
 -10962795.08247  -8509778.91845  22311691.8594                   22311690.6644
  19627689.39547  15297692.29744  23732217.9144                   23732216.6684
  -7373196.98447  -5707625.82044  22875964.9224                   22875963.1484
 11  8 19 17 48  0.0000000  0  9G03G24G07G08G13G19G11G23G28
  18053220.16446  14073868.48043  24233848.2584                   24233848.4064
   3019046.55147   2378947.41044  23690421.9534                   23690423.9024
 -11566381.64148  -8987841.41846  20620915.1334                   20620912.8364
 -16356216.65648 -12725462.52346  21687265.3834                   21687264.2704
   8137100.43448   6359270.13745  21835592.8834                   21835591.6484
   2305967.53148   1822517.55545  22076056.8834                   22076053.0164
 -11057390.44947  -8583489.56645  22293690.7814                   22293689.5164
  19702429.49247  15355931.15644  23746440.5394                   23746439.6994
  -7447485.00047  -5765512.54345  22861828.4694                   22861826.6884
 11  8 19 17 48 30.0000000  0  9G03G24G07G08G13G19G11G23G28
  18124437.53946  14129362.44143  24247400.3754                   24247400.2344
   2908704.27747   2292966.44943  23669424.8054                   23669426.5514
 -11632834.96147  -9039623.22746  20608269.5784                   20608267.0554
 -16463174.26248 -12808806.09846  21666912.3204                   21666910.7034
   8190997.30947   6401267.64145  21845848.6024                   21845848.0354
   2342554.84848   1851027.11745  22083019.6564                   22083015.8834
 -11151630.52747  -8656923.38745  22275757.6954                   22275756.1024
  19777230.04747  15414217.07843  23760674.8914                   23760674.1374
  -7521635.46947  -5823292.09845  22847718.2114                   22847716.1254
 11  8 19 17 49  0.0000000  0  8G24G07G08G13G19G11G23G28
   2798442.21947   2207047.99243  23648442.0084                   23648444.4534
 -11698993.02348  -9091174.96146  20595679.7114                   20595677.5864
 -16570027.83248 -12892068.61745  21646578.6174                   21646577.1134
   8245215.00047   6443515.13345  21856166.6174                   21856165.0554
   2379540.11747   1879846.78545  22090057.8284                   22090053.8674
 -11245515.26247  -8730080.30145  22257892.1334                   22257890.3324
  19852085.27346  15472545.61743  23774918.8524                   23774919.0394
  -7595652.27347  -5880967.49645  22833633.0394                   22833631.1094
 11  8 19 17 49 30.0000000  0  8G24G07G08G13G19G11G23G28
   2688253.67247   2121186.84043  23627473.5474                   23627475.0394
 -11764863.50048  -9142502.62146  20583145.4614                   20583143.0394
 -16676784.91848 -12975255.93745  21626263.3444                   21626262.1134
   8299741.01247   6486002.87545  21866541.9144                   21866541.0394
   2416911.18048   1908967.05946  22097169.0704                   22097165.2194
 -11339051.70747  -8802965.82445  22240091.9774                   22240090.6884
  19926982.62547  15530906.97743  23789172.4614                   23789171.4104
  -7669545.98447  -5938546.97745  22819571.6724                   22819569.5234
 11  8 19 17 50  0.0000000  0  8G24G07G08G13G19G11G23G28
   2578143.36347   2035386.64144  23606520.7114                   23606522.1804
 -11830442.82448  -9193603.39146  20570666.1254                   20570663.4144
 -16783441.72748 -13058365.12146  21605967.2894                   21605965.7154
   8354574.13747   6528729.92645  21876976.7344                   21876975.4734
   2454666.77347   1938386.96546  22104353.6564                   22104349.8594
 -11432235.32847  -8875576.43445  22222360.6644                   22222358.1644
  20001920.89547  15589300.23444  23803432.9064                   23803432.3954
  -7743315.73047  -5996029.86345  22805533.5234                   22805531.9614
 11  8 19 17 50 30.0000000  0  8G24G07G08G13G19G11G23G28
   2468102.64147   1949640.68843  23585581.0634                   23585581.9024
 -11895741.14848  -9244485.18446  20558240.3524                   20558237.7734
 -16890008.12548 -13141403.85246  21585688.2424                   21585686.8054
   8409699.16847   6571684.43045  21887466.8754                   21887465.5354
   2492792.05547   1968094.93845  22111608.7194                   22111605.1644
 -11525075.32047  -8947919.26645  22204693.4924                   22204691.8834
  20076885.28547  15647713.82843  23817697.8204                   23817697.5474
  -7816974.61747  -6053426.36745  22791517.2504                   22791514.9184
 11  8 19 17 51  0.0000000  0  8G24G07G08G13G19G11G23G28
   2358144.44546   1863959.03544  23564656.2034                   23564658.4304
 -11960746.52748  -9295138.74246  20545870.0164                   20545867.6844
 -16996472.68048 -13224363.21146  21565429.0864                   21565426.9064
   8465122.90247   6614871.68845  21898013.5084                   21898012.4224
   2531294.31348   1998096.67245  22118935.2814                   22118931.8794
 -11617559.50047  -9019984.80945  22187094.0944                   22187092.1764
  20151882.72746  15706153.16843  23831969.6954                   23831969.4144
  -7890513.55947  -6110729.39145  22777522.6334                   22777520.9654
 11  8 19 17 51 30.0000000  0  8G24G07G08G13G19G11G23G28
   2248293.86346   1778361.21143  23543752.1644                   23543754.3444
 -12025435.22348  -9345545.52346  20533560.3204                   20533557.6994
 -17102810.94148 -13307224.17646  21545192.8594                   21545191.7734
   8520864.80147   6658306.87545  21908620.6724                   21908619.4144
   2570193.06647   2028407.35245  22126337.7274                   22126334.0744
 -11709662.77347  -9091753.55945  22169567.5164                   22169565.6954
  20226932.57446  15764633.34044  23846252.1564                   23846251.4614
  -7963911.44547  -6167922.51645  22763555.8284                   22763553.6954
 11  8 19 17 52  0.0000000  0  8G24G07G08G13G19G11G23G28
   2138518.92647   1692822.37943  23522862.9534                   23522864.4734
 -12089840.24248  -9395731.25846  20521304.3284                   20521301.7274
 -17209055.84048 -13390012.40246  21524975.7664                   21524974.3284
   8576886.95347   6701960.43045  21919281.9064                   21919280.5944
   2609450.42647   2058997.46146  22133807.9774                   22133804.8284
 -11801417.27747  -9163250.54345  22152107.1804                   22152105.4774
  20301997.09846  15823124.94543  23860536.1174                   23860535.3874
  -8037204.12947  -6225033.66845  22749608.2114                   22749606.3594
 11  8 19 17 52 30.0000000  0  8G24G07G08G13G19G11G23G28
   2028835.20347   1607354.62544  23501990.8444                   23501991.9964
 -12153947.14548  -9445684.69946  20509105.3674                   20509102.7464
 -17315192.80548 -13472716.52346  21504778.6094                   21504776.8054
   8633198.79747   6745839.73045  21929997.1484                   21929996.6254
   2649076.30147   2089874.72745  22141348.6644                   22141345.1374
 -11892807.99647  -9234464.04745  22134716.3364                   22134714.3674
  20377085.94947  15881635.52344  23874825.3674                   23874824.9964
  -8110380.12547  -6282053.90645  22735683.7664                   22735681.6054
 11  8 19 17 53  0.0000000  0  8G24G07G08G13G19G11G23G28
   1919252.31347   1521965.47744  23481137.8914                   23481139.6214
 -12217747.05548  -9495398.92646  20496964.9144                   20496962.3484
 -17421213.07848 -13555329.72746  21484603.3134                   21484601.9924
   8689804.37547   6789947.90245  21940769.3054                   21940768.1844
   2689074.62547   2121042.21145  22148959.8444                   22148956.3164
 -11983825.76647  -9305386.94945  22117395.8284                   22117394.1054
  20452202.85947  15940167.94944  23889119.6954                   23889119.1954
  -8183433.56247  -6338978.62945  22721781.6414                   22721780.2114
 11  8 19 17 53 30.0000000  0  8G24G07G08G13G19G11G23G28
   1809776.70747   1436659.91043  23460305.2584                   23460306.0354
 -12281235.34048  -9544870.32846  20484883.0314                   20484880.9844
 -17527111.11748 -13637847.66846  21464451.7894                   21464450.2734
   8746703.57047   6834284.87145  21951596.8054                   21951596.1564
   2729445.65247   2152500.11345  22156642.5164                   22156639.0784
 -12074464.14547  -9376014.22745  22100147.9844                   22100146.4614
  20527348.28947  15998722.62143  23903419.3984                   23903418.8484
  -8256362.00847  -6395805.97345  22707904.1254                   22707902.4924
 11  8 19 17 54  0.0000000  0  9G17G24G07G08G13G19G11G23G28
   9279487.98056   7264397.45353  24647690.2894                   24647692.9494
   1700392.90247   1351425.85243  23439489.9454                   23439491.2664
 -12344428.55948  -9594111.80146  20472857.7344                   20472855.6454
 -17632903.55548 -13720283.32046  21444320.2424                   21444318.4614
   8803874.42247   6878833.52045  21962476.1724                   21962475.1414
   2770168.29748   2184232.00445  22164391.6644                   22164388.7814
 -12164739.35947  -9446358.50445  22082968.9534                   22082967.4734
  20602500.56346  16057282.61743  23917720.6484                   23917720.3914
  -8329185.31647  -6452551.37945  22694046.1884                   22694044.4694
 11  8 19 17 54 30.0000000  0  9G17G24G07G08G13G19G11G23G28
   9135786.44146   7152422.29743  24620344.1174                   24620347.2154
   1591113.63747   1266273.25044  23418695.0864                   23418696.2074
 -12407315.09048  -9643114.30146  20460890.9534                   20460888.5864
 -17738578.41048 -13802627.35246  21424210.8524                   21424209.1604
   8861323.97747   6923599.34045  21973408.5394                   21973407.7194
   2811249.58647   2216243.36745  22172209.0864                   22172205.8244
 -12254639.07047  -9516410.19145  22065861.5394                   22065860.0664
  20677666.69547  16115853.39143  23932024.4064                   23932024.4614
  -8401894.77347  -6509208.07045  22680210.1414                   22680207.9024
 11  8 19 17 55  0.0000000  0  9G17G24G07G08G13G19G11G23G28
   8992149.78946   7040497.69943  24593011.7274                   24593013.8754
   1481928.10247   1181193.69943  23397917.4614                   23397918.2464
 -12469907.00848  -9691887.21946  20448980.2034                   20448977.6414
 -17844147.77348 -13884889.18446  21404121.6254                   21404120.3524
   8919035.33247   6968569.14545  21984390.8754                   21984389.5744
   2852672.76647   2248521.12145  22180092.3834                   22180088.6214
 -12344174.57447  -9586178.08245  22048823.9064                   22048822.1524
  20752830.02747  16174422.01643  23946327.8524                   23946327.3014
  -8474504.77047  -6565787.27345  22666392.9224                   22666390.8484
 11  8 19 17 55 30.0000000  0  9G17G24G07G08G13G19G11G23G28
   8848571.45746   6928618.53144  24565689.5704                   24565691.8674
   1372830.58647   1096182.74243  23377156.8674                   23377157.6804
 -12532211.24648  -9740435.98446  20437124.2584                   20437121.4694
 -17949618.19548 -13967073.92246  21384051.3204                   21384049.5594
   8976996.89147   7013733.92645  21995420.2664                   21995419.0864
   2894426.07447   2281056.13345  22188037.2034                   22188034.0164
 -12433352.11347  -9655667.04745  22031853.8674                   22031852.3244
  20827979.16446  16232979.57043  23960628.0164                   23960627.4614
  -8547025.34047  -6622296.78545  22652592.6724                   22652590.5164
 11  8 19 17 56  0.0000000  0  9G17G24G07G08G13G19G11G23G28
   8705062.83247   6816793.73044  24538380.6094                   24538383.7424
   1263833.96547   1011250.36743  23356415.6174                   23356416.8324
 -12594216.14148  -9788751.48846  20425325.1884                   20425322.7584
 -18054977.56648 -14049172.12546  21364001.9534                   21364000.6334
   9035215.32847   7059098.87145  22006499.2034                   22006498.1764
   2936516.79747   2313854.07845  22196047.2814                   22196043.6764
 -12522159.30947  -9724867.43045  22014954.0704                   22014952.6524
  20903120.95346  16291531.41443  23974927.2814                   23974927.2304
  -8619447.46147  -6678729.58245  22638811.0864                   22638809.6954
 11  8 19 17 56 30.0000000  0  9G17G24G07G08G13G19G11G23G28
   8561642.63747   6705037.83244  24511088.0554                   24511091.3754
   1154957.51647    926411.68044  23335696.6024                   23335698.7114
 -12655903.61748  -9836819.65246  20413586.5784                   20413583.7934
 -18160207.70748 -14131169.62146  21343977.6334                   21343976.1254
   9093704.00047   7104674.37945  22017629.1414                   22017628.2154
   2978958.07047   2346925.15645  22204123.2424                   22204119.8594
 -12610577.05947  -9793764.35945  21998128.6414                   21998127.3874
  20978268.63346  16350087.79343  23989227.3674                   23989227.9304
  -8691756.03147  -6735073.90245  22625050.9844                   22625048.8244
 11  8 19 17 57  0.0000000  0  9G17G24G07G08G13G19G11G23G28
   8418310.21547   6593350.32843  24483813.5704                   24483816.1134
   1046201.80147    841667.05143  23315001.1254                   23315002.5164
 -12717274.48848  -9884641.12146  20401907.5004                   20401905.1054
 -18265309.07848 -14213066.78146  21323977.4144                   21323975.5044
   9152456.99247   7150455.86745  22028809.6334                   22028808.6214
   3021744.75047   2380265.40645  22212265.3754                   22212261.4264
 -12698605.60947  -9862358.00045  21981377.8524                   21981375.9344
  21053416.78146  16408644.57443  24003527.3364                   24003528.3914
  -8763954.49647  -6791332.41845  22611311.9064                   22611310.2034
 11  8 19 17 57 30.0000000  0  9G17G24G07G08G13G19G11G23G28
   8275061.25446   6481727.88343  24456553.4224                   24456556.4924
    937563.57846    757013.98044  23294327.5864                   23294329.1724
 -12778332.93448  -9932219.13746  20390288.6174                   20390286.2584
 -18370285.69148 -14294866.73046  21304000.7894                   21303999.4804
   9211465.05147   7196436.10245  22040038.6254                   22040037.3674
   3064867.46147   2413867.48445  22220471.3524                   22220467.9884
 -12786248.76648  -9930651.34445  21964699.9384                   21964698.0274
  21128556.34046  16467194.66843  24017826.5944                   24017827.1374
  -8836050.38347  -6847511.00845  22597592.7894                   22597590.5704
 11  8 19 17 58  0.0000000  0  9G17G24G07G08G13G19G11G23G28
   8131889.48846   6370165.59043  24429308.5314                   24429312.0554
    829037.42647    672448.19144  23273675.8204                   23273677.2664
 -12839085.98048  -9979559.18046  20378727.6724                   20378725.0744
 -18475143.90648 -14376574.42246  21284046.9844                   21284045.3364
   9270716.37947   7242605.89145  22051313.2424                   22051312.4694
   3108315.03947   2447722.72345  22228739.0634                   22228735.7194
 -12873512.52347  -9998649.05545  21948094.1414                   21948091.9694
  21203676.12546  16525729.33643  24032121.6724                   24032121.6884
  -8908052.91047  -6903616.85945  22583890.9844                   22583888.9884
 11  8 19 17 58 30.0000000  0  9G17G24G07G08G13G19G11G23G28
   7988789.69146   6258659.41043  24402077.8204                   24402081.0044
    720619.05147    587966.42244  23253044.0944                   23253046.0274
 -12899539.23848 -10026665.59446  20367224.1644                   20367221.1884
 -18579888.69948 -14458193.72746  21264114.8134                   21264113.1994
   9330201.03947   7288957.49245  22062633.5784                   22062632.1884
   3152077.45347   2481823.28145  22237066.8674                   22237063.4964
 -12960401.18447 -10066354.47745  21931559.3984                   21931557.6414
  21278765.95346  16584240.65243  24046411.7814                   24046411.4454
  -8979970.30147  -6959656.36345  22570205.8204                   22570203.9964
 11  8 19 17 59  0.0000000  0  9G17G24G07G08G13G19G11G23G28
   7845781.71546   6147224.74243  24374864.1644                   24374866.5124
    612329.17247    503584.77744  23232437.7894                   23232439.0274
 -12959672.55148 -10073522.72746  20355780.9454                   20355778.2814
 -18684500.40648 -14539709.34446  21244207.8834                   21244206.2934
   9389933.68847   7335502.32845  22074000.4534                   22073999.3244
   3196169.75847   2516180.90245  22245457.4844                   22245453.8874
 -13046894.89548 -10133752.14545  21915100.1024                   21915098.5434
  21353840.90646  16642740.36744  24060697.8594                   24060698.1414
  -9051785.86347  -7015616.53145  22556539.6804                   22556537.5234
 11  8 19 17 59 30.0000000  0  9G17G24G07G08G13G19G11G23G28
   7702884.65246   6035876.53143  24347671.8524                   24347674.0864
    504188.32847    419319.25044  23211859.3674                   23211860.8754
 -13019467.26248 -10120116.01246  20344402.6094                   20344399.6684
 -18788959.41848 -14621105.96146  21224329.6024                   21224328.2934
   9449928.41848   7382251.39545  22085416.9694                   22085415.6524
   3240606.22347   2550806.68445  22253913.5084                   22253909.7894
 -13132974.07048 -10200826.79745  21898719.7344                   21898718.3444
  21428915.35546  16701239.69143  24074984.2344                   24074984.7154
  -9123483.14847  -7071484.52345  22542896.0234                   22542893.9844
 11  8 19 18  0  0.0000000  0  9G17G24G07G08G13G19G11G23G28
   7560077.25846   5924598.19143  24320496.3674                   24320498.2234
    396176.10547    335153.95744  23191305.8914                   23191306.3594
 -13078945.12548 -10166462.40246  20333084.3134                   20333081.6524
 -18893287.28548 -14702400.38346  21204476.8054                   21204475.2854
   9510158.55147   7429183.88745  22096878.0554                   22096877.5124
   3285360.61347   2585680.20745  22262430.1804                   22262426.7274
 -13218659.35548 -10267594.52745  21882414.7274                   21882412.9804
  21503963.14547  16759718.25043  24089265.6954                   24089266.1914
  -9195086.85247  -7127279.60945  22529270.3204                   22529268.4344
 11  8 19 18  0 30.0000000  0  9G17G24G07G08G13G19G11G23G28
   7417364.90246   5813393.95343  24293339.1024                   24293341.1954
    288298.85947    251093.82844  23170776.9144                   23170778.1914
 -13138100.97348 -10212557.87546  20321827.3914                   20321824.7344
 -18997478.04748 -14783587.98846  21184649.8204                   21184648.1804
   9570624.42247   7476300.06345  22108384.9534                   22108383.5984
   3330433.19947   2620801.67245  22271007.1254                   22271002.9844
 -13303944.91448 -10334050.78145  21866185.5634                   21866183.4924
  21578984.75846  16818176.41443  24103541.1644                   24103542.2114
  -9266594.31647  -7182999.70345  22515663.0234                   22515661.0664
 11  8 19 18  1  0.0000000  0  9G17G24G07G08G13G19G11G23G28
   7274756.28946   5702270.54343  24266200.5864                   24266203.4104
    180566.06647    167146.27343  23150275.3524                   23150277.2464
 -13196925.96948 -10258395.56646  20310632.8754                   20310630.4064
 -19101522.95748 -14864661.93446  21164851.1484                   21164849.2734
   9631329.68447   7523602.77345  22119937.0784                   22119935.6994
   3375827.96147   2656174.18445  22279645.1724                   22279641.8364
 -13388821.93048 -10400188.69945  21850033.7424                   21850031.6844
  21653983.78946  16876616.97343  24117813.6724                   24117814.4654
  -9337999.92647  -7238640.43445  22502074.7894                   22502072.6844
 11  8 19 18  1 30.0000000  0  9G17G24G07G08G13G19G11G23G28
   7132242.08646   5591220.69544  24239081.8134                   24239083.6684
     72969.46547     83304.84044  23129800.9694                   23129801.8094
 -13255430.34048 -10303983.37946  20299500.2734                   20299497.4024
 -19205431.66048 -14945629.74646  21145077.3364                   21145075.6844
   9692259.93047   7571080.80545  22131531.6954                   22131530.4064
   3421530.31347   2691786.38345  22288341.9384                   22288338.7384
 -13473298.93048 -10466014.91845  21833958.1174                   21833956.3054
  21728945.95346  16935028.81643  24132078.8524                   24132079.5164
  -9409316.40647  -7294211.71545  22488503.1724                   22488501.4924
 11  8 19 18  2  0.0000000  0  9G17G24G07G08G13G19G11G23G28
   6989833.32846   5480253.05944  24211981.7814                   24211984.0274
    -34478.84047      -421.09844  23109354.1024                   23109355.0864
 -13313603.03548 -10349312.76646  20288430.4614                   20288427.9654
 -19309192.51648 -15026482.35946  21125332.5864                   21125331.0594
   9753420.99247   7618738.70345  22143169.8054                   22143168.9534
   3467546.44147   2727643.08645  22297098.9144                   22297095.2584
 -13557365.16448 -10531521.04345  21817960.8674                   21817959.0824
  21803877.77346  16993416.98843  24146337.7114                   24146338.9384
  -9480535.41047  -7349707.04345  22474950.8984                   22474948.8954
 11  8 19 18  2 30.0000000  0  9G17G24G07G08G13G19G11G23G28
   6847542.31347   5369377.15644  24184904.9384                   24184906.4304
   -141765.17247    -84020.81244  23088937.5474                   23088939.4804
 -13371431.62548 -10394374.02046  20277425.8984                   20277423.1914
 -19412793.21148 -15107210.16446  21105618.2114                   21105616.2544
   9814820.52347   7666582.41445  22154853.6884                   22154853.2274
   3513884.55547   2763750.66845  22305916.6564                   22305913.2344
 -13641007.44948 -10596696.82045  21802044.4224                   21802042.6644
  21878787.21946  17051787.71143  24160592.8204                   24160593.6334
  -9551647.46147  -7405119.01645  22461419.2734                   22461417.1214
 11  8 19 18  3  0.0000000  0  9G17G24G07G08G13G19G11G23G28
   6705352.35947   5258579.98844  24157846.5704                   24157848.5314
   -248905.39847   -167506.70744  23068549.8674                   23068551.3284
 -13428933.39848 -10439180.60946  20266483.5634                   20266481.2424
 -19516250.25448 -15187826.02346  21085930.8594                   21085928.9574
   9876435.91047   7714594.30945  22166579.2424                   22166578.2504
   3560522.64847   2800092.00445  22314791.5234                   22314788.1134
 -13724242.34048 -10661555.14545  21786205.1334                   21786203.3094
  21953652.33246  17110123.89143  24174839.0314                   24174840.1844
  -9622672.59847  -7460463.28145  22447903.7274                   22447901.2814
 11  8 19 18  3 30.0000000  0  9G17G24G07G08G13G19G11G23G28
   6563264.65646   5147862.50044  24130808.3984                   24130810.1764
   -355897.10547   -250876.85544  23048189.9454                   23048190.9694
 -13486107.33648 -10483731.74646  20255603.6254                   20255601.1374
 -19619561.99248 -15268328.67646  21066271.4144                   21066269.4064
   9938263.68447   7762771.69545  22178344.8594                   22178343.3594
   3607456.73047   2836664.00445  22323723.5944                   22323719.2894
 -13807068.03548 -10726094.62545  21770444.1254                   21770442.1254
  22028469.71946  17168422.86743  24189077.3444                   24189077.8914
  -9693612.14147  -7515740.83245  22434404.0704                   22434401.4654
 11  8 19 18  4  0.0000000  0  9G17G24G07G08G13G19G11G23G28
   6421300.87947   5037241.60543  24103792.9384                   24103795.0744
   -462718.03547   -334113.95344  23027862.0394                   23027864.0984
 -13542932.48848 -10528011.09446  20244790.4224                   20244787.7384
 -19722706.65648 -15348701.12546  21046643.2974                   21046641.6024
  10000320.34047   7811127.45345  22190153.8594                   22190152.2344
   3654703.93047   2873479.98045  22332713.9064                   22332710.2464
 -13889462.90648 -10790298.38345  21754764.6254                   21754762.7384
  22103255.78546  17226697.45343  24203308.0554                   24203309.1764
  -9764447.83247  -7570937.46145  22420924.3204                   22420922.1994
 11  8 19 18  4 30.0000000  0  9G17G24G07G08G13G19G11G23G28
   6279463.01046   4926718.77944  24076802.4144                   24076804.3674
   -569365.30147   -417215.69944  23007568.7344                   23007569.6214
 -13599406.89148 -10572017.12946  20234043.7974                   20234040.9534
 -19825682.16048 -15428941.77046  21027047.7894                   21027046.1564
  10062602.21947   7859658.70745  22202005.4454                   22202004.4774
   3702261.00047   2910537.40645  22341763.6884                   22341759.9184
 -13971424.63348 -10854164.63745  21739167.6334                   21739166.2974
  22178007.73446  17284945.48843  24217534.1174                   24217534.8954
  -9835181.01647  -7626054.20745  22407464.2974                   22407462.3284
 11  8 19 18  5  0.0000000  0  9G17G24G07G08G13G19G11G23G28
   7713159.13346   6043884.83244  24349625.3524                   24349627.4304
    899569.59846    727408.91444  23287097.5634                   23287098.3134
 -12080125.25448  -9388161.33646  20523153.2034                   20523151.0594
 -18353081.14148 -14281460.44146  21307274.6094                   21307272.9384
  11700506.03547   9135947.30944  22513688.5164                   22513687.2114
   5325525.18047   4175418.57445  22650660.8834                   22650657.0474
 -12477546.49248  -9690103.71945  22023443.2504                   22023441.8554
  23828122.21946  18570748.71143  24531539.5554                   24531541.1254
  -8330408.26247  -6453503.99645  22693813.1564                   22693811.3634
 11  8 19 18  5 30.0000000  0  9G17G24G07G08G13G19G11G23G28
   7571541.54746   5933533.67243  24322676.3834                   24322678.3164
    793241.97747    644556.23444  23266863.9844                   23266865.0664
 -12135930.20348  -9431645.71546  20512534.1174                   20512531.7034
 -18455748.76648 -14361461.17646  21287737.5084                   21287735.7194
  11763192.60947   9184793.90244  22525617.1024                   22525616.5084
   5373656.34447   4212923.36345  22659819.7504                   22659816.1174
 -12558672.26248  -9753318.57445  22008005.5394                   22008003.7034
  23902760.99946  18628908.52443  24545743.5474                   24545744.3714
  -8400975.84447  -6508491.69545  22680384.4614                   22680382.4734
 11  8 19 18  6  0.0000000  0  9G17G24G07G08G13G19G11G23G28
   7430047.19546   5823278.54743  24295750.8674                   24295752.3794
    687089.16047    561839.77044  23246663.5234                   23246664.6954
 -12191387.75048  -9474859.39546  20501980.9224                   20501978.4264
 -18558248.80948 -14441331.32446  21268232.7034                   21268230.5704
  11826086.97347   9233802.41044  22537585.3984                   22537584.7424
   5422080.42247   4250656.37945  22669034.5004                   22669030.4924
 -12639366.19548  -9816196.94145  21992650.4844                   21992648.5044
  23977349.44546  18687029.10943  24559937.5704                   24559938.1214
  -8471451.85547  -6563408.04345  22666973.6254                   22666971.0904
 11  8 19 18  6 30.0000000  0  9G17G24G07G08G13G19G11G23G28
   7288681.63746   5713123.77043  24268849.4144                   24268850.4144
    581117.53147    479264.50444  23226497.9064                   23226498.9884
 -12246492.81248  -9517798.38346  20491494.7114                   20491491.8094
 -18660575.64847 -14521066.50846  21248760.4614                   21248758.6764
  11889189.53547   9282973.15245  22549593.7814                   22549593.1764
   5470797.92647   4288618.05945  22678305.1954                   22678301.9494
 -12719622.60248  -9878734.38345  21977377.6094                   21977376.1644
  24051887.85246  18745110.71143  24574122.3524                   24574123.2544
  -8541833.78547  -6618251.07845  22653580.0864                   22653578.1374
 11  8 19 18  7  0.0000000  0  8G17G24G07G08G13G19G11G28
   7147446.36347   5603070.50444  24241973.6254                   24241974.2734
    475329.52347    396832.32444  23206367.2034                   23206368.2274
 -12301244.02348  -9560461.67646  20481075.8834                   20481073.4574
 -18762727.39548 -14600665.26246  21229321.4694                   21229319.7114
  11952496.48047   9332303.14145  22561640.6954                   22561640.0634
   5519805.58247   4326805.80145  22687631.1094                   22687627.4344
 -12799439.94948  -9940929.70345  21962188.9304                   21962187.3834
  -8612123.23848  -6673022.05945  22640204.7894                   22640202.4144
 11  8 19 18  7 30.0000000  0  8G17G24G07G08G13G19G11G28
   7006315.58646   5493098.64544  24215116.8674                   24215117.1914
    369700.45347    314524.00444  23186266.4694                   23186267.7114
 -12355667.57448  -9602869.63746  20470719.4534                   20470716.8054
 -18864729.66847 -14680147.55546  21209911.3444                   21209908.9614
  12015977.03547   9381768.42245  22573720.9844                   22573720.2114
   5569072.68447   4365195.73045  22697005.9454                   22697002.5594
 -12878844.07447 -10002803.01245  21947079.1724                   21947077.4964
  -8682348.99647  -6727743.39845  22626841.2504                   22626839.1524
 11  8 19 18  8  0.0000000  0  8G17G24G07G08G13G19G11G28
   6865324.14546   5383235.38344  24188286.9224                   24188287.6604
    264266.24247    232367.53544  23166203.1724                   23166204.4264
 -12409728.95748  -9644995.39146  20460431.8834                   20460429.6054
 -18966547.52048 -14759486.12946  21190535.7734                   21190534.3714
  12079660.93847   9431392.14844  22585839.4694                   22585838.5434
   5618628.83647   4403810.87945  22706436.2424                   22706433.6174
 -12957799.54348 -10064326.73445  21932054.5554                   21932052.4264
  -8752479.43047  -6782390.46545  22613495.3674                   22613493.0084
 11  8 19 18  8 30.0000000  0  8G17G24G07G08G13G19G11G28
   6724456.98846   5273468.94544  24161480.2344                   24161481.7734
    159012.93447    150352.04344  23146173.7504                   23146175.5124
 -12463443.50848  -9686850.89847  20450210.3674                   20450207.6604
 -19068195.56648 -14838692.39546  21171192.4614                   21171190.9224
  12143528.07847   9481158.64145  22597992.9694                   22597992.1844
   5668454.73447   4442636.21545  22715918.6564                   22715914.8834
 -13036321.19947 -10125512.41045  21917111.8914                   21917110.2194
  -8822532.18447  -6836977.01245  22600164.6334                   22600162.8524
 11  8 19 18  9  0.0000000  0  8G17G24G07G08G13G19G11G28
   6583728.71946   5163810.74244  24134701.1094                   24134701.8204
     53956.14847     68489.68044  23126181.9454                   23126182.8284
 -12516796.88348  -9728424.96547  20440057.5864                   20440055.1994
 -19169658.89548 -14917754.73046  21151884.9534                   21151883.0704
  12207587.89547   9531075.28544  22610183.1094                   22610182.6174
   5718559.86347   4481679.12545  22725452.8984                   22725449.1604
 -13114394.13347 -10186348.44945  21902255.0474                   21902253.0664
  -8892495.53547  -6891493.88745  22586851.1254                   22586849.0744
 11  8 19 18  9 30.0000000  0  9G17G24G07G08G26G13G19G11G28
   6443153.10546   5054271.48044  24107950.2274                   24107950.9104
    -50889.49247    -13208.12944  23106230.4774                   23106231.7974
 -12569775.81648  -9769707.25446  20429976.1094                   20429973.6414
 -19270923.07848 -14996661.87946  21132614.8984                   21132613.3484
  10873560.95356   8502877.15253  24325964.4774                   24325965.8594
  12271849.01247   9581148.78544  22622411.6414                   22622411.1454
   5768953.03147   4520946.51645  22735042.0084                   22735039.2774
 -13192004.30948 -10246823.89845  21887486.8054                   21887484.5234
  -8962358.98047  -6945932.91045  22573556.5474                   22573555.0124
 11  8 19 18 10  0.0000000  0  9G17G24G07G08G26G13G19G11G28
   6302722.89546   4944845.51644  24081226.4694                   24081228.2624
   -155530.20347    -94746.27344  23086318.5314                   23086319.3284
 -12622387.68048  -9810703.51646  20419964.4844                   20419961.7274
 -19371995.33248 -15075419.47746  21113381.6024                   21113379.7504
  10745923.57046   8403419.52043  24301675.9844                   24301677.1334
  12336298.69147   9631369.19944  22634676.2034                   22634676.0554
   5819621.91447   4560428.70745  22744684.2424                   22744680.6054
 -13269159.43748 -10306944.75845  21872804.2734                   21872802.3524
  -9032132.66447  -7000302.00845  22560279.0394                   22560277.0354
 11  8 19 18 10 30.0000000  0  9G17G24G07G08G26G13G19G11G28
   6162426.07446   4835523.45744  24054529.0164                   24054530.5904
   -259976.27047   -176132.73044  23066442.3984                   23066443.7814
 -12674644.66448  -9851423.25446  20410019.9144                   20410017.7424
 -19472886.82848 -15154036.22346  21094182.9384                   21094180.6764
  10618636.32846   8304234.71143  24277454.8204                   24277455.4224
  12400921.08247   9681724.21944  22646973.4844                   22646973.0554
   5870550.35947   4600113.15645  22754374.8674                   22754372.1524
 -13345870.54747 -10366719.62545  21858206.4844                   21858204.8834
  -9101830.86347  -7054612.27745  22547016.3834                   22547014.2424
 11  8 19 18 11  0.0000000  0  9G17G24G07G08G26G13G19G11G28
   6022272.54346   4726313.08244  24027858.7114                   24027859.9304
   -364217.36347   -257359.45744  23046606.1254                   23046607.5634
 -12726537.41048  -9891859.17646  20400145.3204                   20400142.6604
 -19573587.38748 -15232504.18046  21075019.8914                   21075018.4654
  10491709.29346   8205330.60543  24253301.1484                   24253301.0554
  12465719.93847   9732216.73044  22659304.7894                   22659303.9964
   5921742.93847   4640003.43445  22764117.1254                   22764113.5004
 -13422127.98848 -10426140.99645  21843695.0704                   21843693.1374
  -9171447.12947  -7108858.71945  22533768.8134                   22533766.3754
 11  8 19 18 11 30.0000000  0  9G17G24G07G08G26G13G19G11G28
   5882253.67646   4617207.60544  24001213.6884                   24001215.1644
   -468260.91847   -338432.28944  23026807.0084                   23026808.1374
 -12778075.04348  -9932018.37946  20390337.7664                   20390335.3524
 -19674105.93048 -15310830.30546  21055891.7344                   21055890.2274
  10365134.58646   8106701.00043  24229214.5084                   24229215.4344
  12530681.80147   9782836.25044  22671666.3594                   22671666.0664
   5973186.05547   4680088.92245  22773906.8834                   22773903.6054
 -13497940.51648 -10485215.68045  21829268.9694                   21829266.9454
  -9240993.29747  -7163050.52045  22520534.1644                   22520532.1214
 11  8 19 18 12  0.0000000  0  9G17G24G07G08G26G13G19G11G28
   5742367.80547   4508205.73844  23974594.6024                   23974595.1954
   -572107.34047   -419351.48044  23007045.9304                   23007046.8834
 -12829259.32048  -9971902.24246  20380597.8364                   20380595.1884
 -19774443.30148 -15389015.26646  21036798.0554                   21036796.4774
  10238911.51646   8008345.42743  24205195.3524                   24205195.8834
  12595800.10947   9833577.68844  22684057.6564                   22684057.6024
   6024874.15247   4720365.31345  22783742.5944                   22783739.3054
 -13573309.39147 -10543944.64545  21814926.6094                   21814924.5514
  -9310473.45347  -7217190.89545  22507312.7424                   22507310.6454
 11  8 19 18 12 30.0000000  0  9G17G24G07G08G26G13G19G11G28
   5602605.16447   4399299.90644  23947998.6024                   23947999.2814
   -675765.43447   -500123.94944  22987320.9534                   22987321.1254
 -12880100.53548 -10011518.78146  20370923.4924                   20370920.4184
 -19874608.81248 -15467066.30146  21017737.4144                   21017735.7384
  10113030.99646   7910256.76643  24181241.2894                   24181241.3054
  12661059.73447   9884429.23844  22696476.5704                   22696476.1994
   6076791.99647   4760820.72345  22793622.4694                   22793618.8524
 -13648244.01648 -10602335.23045  21800667.1334                   21800665.0514
  -9379900.40247  -7271289.80945  22494100.9774                   22494099.1484
 11  8 19 18 13  0.0000000  0  9G17G24G07G08G26G13G19G11G28
   5462985.50447   4290505.46944  23921429.5004                   23921430.0984
   -779214.30546   -580733.38744  22967634.6644                   22967635.2544
 -12930578.88748 -10050852.55546  20361317.4614                   20361314.7194
 -19974582.11748 -15544967.56646  20998713.4224                   20998711.5634
   9987513.74246   7812451.18843  24157355.9614                   24157356.9614
  12726475.75447   9935402.66044  22708925.3444                   22708924.7034
   6128954.36347   4801466.66445  22803548.4384                   22803545.2304
 -13722724.79348 -10660372.16445  21786493.0944                   21786491.9064
  -9449256.99247  -7325333.89145  22480903.0474                   22480901.2074
 11  8 19 18 13 30.0000000  0  9G17G24G07G08G26G13G19G11G28
   5323503.19147   4181818.05544  23894886.6724                   23894887.5164
   -882458.55947   -661183.34844  22947987.8524                   22947988.5704
 -12980700.33848 -10089908.23547  20351779.7344                   20351777.1524
 -20074368.49648 -15622723.18046  20979724.4774                   20979722.4654
   9862354.47346   7714924.55143  24133538.6724                   24133539.6644
  12792037.16047   9986489.36744  22721401.3054                   22721400.4024
   6181350.70347   4842294.92645  22813519.5084                   22813515.6644
 -13796757.30147 -10718059.80545  21772405.7734                   21772404.1024
  -9518552.13747  -7379330.09845  22467716.8364                   22467714.9264
 11  8 19 18 14  0.0000000  0  9G17G24G07G08G26G13G19G11G28
   5184180.44947   4073254.98044  23868374.6024                   23868375.3134
   -985474.83647   -741455.71144  22928384.1484                   22928385.1604
 -13030443.40648 -10128669.07847  20342314.0164                   20342311.4884
 -20173945.59048 -15700315.69146  20960775.4694                   20960773.8834
   9737576.63346   7617695.07843  24109794.0704                   24109795.3914
  12857761.27047  10037702.85944  22733907.9304                   22733907.1954
   6233998.75047   4883319.32445  22823537.6024                   22823534.7154
 -13870318.97747 -10775380.56245  21758407.1094                   21758405.7074
  -9587766.39147  -7433263.27045  22454545.4224                   22454543.2074
 11  8 19 18 14 30.0000000  0  9G17G24G07G08G26G13G19G11G28
   5045018.71547   3964817.37944  23841893.0084                   23841893.4694
  -1088260.85247   -821548.65644  22908825.0234                   22908825.2384
 -13079807.18448 -10167134.36747  20332920.3594                   20332917.3164
 -20273311.54748 -15777743.69546  20941866.6094                   20941865.0164
   9613181.69146   7520764.00443  24086123.3284                   24086123.1294
  12923644.16047  10089040.06644  22746444.9694                   22746444.7234
   6286894.89847   4924537.06645  22833604.2194                   22833600.2504
 -13943408.75847 -10832333.61745  21744498.7504                   21744496.8954
  -9656901.73847  -7487134.95745  22441389.5084                   22441387.2154
 11  8 19 18 15  0.0000000  0  9G17G24G07G08G26G13G19G11G28
   4906002.57847   3856493.23444  23815438.6024                   23815439.8204
  -1190830.39847   -901472.92244  22889306.8054                   22889307.5084
 -13128806.86748 -10205315.94947  20323596.2274                   20323593.5634
 -20372480.98448 -15855018.57046  20922995.4534                   20922993.5084
   9489155.80546   7424120.48043  24062521.0864                   24062521.4224
  12989665.62147  10140485.25044  22759008.8914                   22759008.6254
   6340019.06647   4965932.48445  22843712.5784                   22843709.3014
 -14016041.61747 -10888930.63745  21730677.5314                   21730675.0434
  -9725975.41047  -7540958.57045  22428244.8134                   22428242.7934
 11  8 19 18 15 30.0000000  0  9G17G24G07G08G26G13G19G11G28
   4767139.32047   3748288.21544  23789013.3594                   23789014.6604
  -1293175.44947   -981222.27344  22869830.8754                   22869831.9304
 -13177435.72748 -10243208.57847  20314342.3204                   20314339.9804
 -20471446.27348 -15932134.36346  20904162.7504                   20904160.9964
   9365506.84046   7327770.69143  24038991.8674                   24038991.8794
  13055828.12547  10192040.34044  22771599.0704                   22771599.2664
   6393374.00447   5007507.71945  22853866.2114                   22853862.3444
 -14088210.37547 -10945166.02345  21716944.2274                   21716941.6914
  -9794983.18447  -7594730.85245  22415113.9454                   22415111.4574
 11  8 19 18 16  0.0000000  0  9G17G24G07G08G26G13G19G11G28
   4628423.07447   3640197.77344  23762617.2274                   23762617.9454
  -1395300.75847  -1060800.39844  22850396.4384                   22850397.6334
 -13225699.94948 -10280817.07846  20305157.9144                   20305155.3954
 -20570212.79348 -16009095.27346  20885367.9924                   20885366.5864
   9242229.25846   7231710.29343  24015532.8284                   24015533.5164
  13122120.47347  10243696.59044  22784213.8524                   22784214.3984
   6446948.91847   5049254.34845  22864061.4224                   22864058.2274
 -14159921.37948 -11001044.71945  21703297.7504                   21703295.6524
  -9863934.11747  -7648458.83245  22401992.3594                   22401990.6134
 11  8 19 18 16 30.0000000  0  9G17G24G07G08G26G13G19G11G28
   4489861.77247   3532228.04244  23736249.6094                   23736250.4064
  -1497197.25047  -1140200.21944  22831006.5944                   22831007.4064
 -13273592.12548 -10318135.66846  20296044.8674                   20296041.6604
 -20668772.34048 -16085894.91846  20866613.0394                   20866611.1684
   9119331.94146   7135946.23443  23992145.8834                   23992146.4844
  13188545.44947  10295456.19944  22796854.6954                   22796853.9844
   6500746.89047   5091174.82044  22874298.2814                   22874295.0274
 -14231166.03147 -11056560.02745  21689740.4384                   21689738.5824
  -9932823.12547  -7702138.55145  22388883.5864                   22388881.6524
 11  8 19 18 17  0.0000000  0  9G17G24G07G08G26G13G19G11G28
   4351461.12547   3424383.51244  23709912.8364                   23709913.7194
  -1598858.27047  -1219416.54744  22811661.6024                   22811662.0744
 -13321106.96148 -10355160.23047  20287002.5554                   20286999.5164
 -20767118.35548 -16162528.17246  20847898.3204                   20847896.4964
   8996821.59046   7040483.63743  23968832.8204                   23968833.5084
  13255104.28947  10347320.10944  22809520.3914                   22809520.3364
   6554769.16847   5133270.04745  22884578.6484                   22884574.8364
 -14301938.56247 -11111707.44145  21676272.9224                   21676271.0554
 -10001647.13347  -7755767.63345  22375786.5084                   22375784.3594
 11  8 19 18 17 30.0000000  0  9G17G24G07G08G26G13G19G11G28
   4213226.65247   3316668.41844  23683607.7974                   23683608.3204
  -1700277.59847  -1298444.56244  22792361.3364                   22792362.6844
 -13368239.16048 -10391886.63747  20278033.2424                   20278030.6524
 -20865245.10948 -16238990.57046  20829225.4064                   20829223.8164
   8874703.85246   6945327.05943  23945593.9614                   23945595.3324
  13321796.63347  10399288.05144  22822211.6024                   22822211.3404
   6609015.94547   5175540.21945  22894901.2274                   22894898.3594
 -14372233.91047 -11166483.02345  21662896.2274                   21662894.0204
 -10070403.57047  -7809344.05545  22362702.3914                   22362700.6884
 11  8 19 18 18  0.0000000  0  9G17G24G07G08G26G13G19G11G28
   4075146.28147   3209073.41444  23657331.6804                   23657332.7504
  -1801465.74246  -1377292.43744  22773106.1564                   22773107.5004
 -13415001.54348 -10428324.86746  20269134.7974                   20269132.4024
 -20963163.63747 -16315290.72346  20810592.3834                   20810590.3794
   8752967.72746   6850467.80543  23922428.3054                   23922429.3874
  13388606.34847  10451347.45744  22834925.5084                   22834925.0904
   6663470.77047   5217972.50445  22905264.0394                   22905260.6804
 -14442063.93447 -11220896.02345  21649608.1564                   21649606.1294
 -10139107.37947  -7862879.47345  22349628.8284                   22349626.7384
 11  8 19 18 18 30.0000000  0  9G17G24G07G08G26G13G19G11G28
   3937238.76247   3101613.12544  23631088.4534                   23631089.5004
  -1902402.68447  -1455944.57444  22753898.7034                   22753899.2934
 -13461375.29748 -10464460.27346  20260310.5554                   20260307.7814
 -21060855.03148 -16391413.88346  20792002.0634                   20792000.4844
   8631632.86346   6755921.24243  23899339.3914                   23899340.4534
  13455546.64147  10503508.59844  22847663.8134                   22847663.0554
   6718147.50446   5260577.68844  22915668.5554                   22915665.3284
 -14511410.16048 -11274932.02345  21636411.9614                   21636409.3714
 -10207742.55947  -7916361.41445  22336567.9454                   22336565.6644
 11  8 19 18 19  0.0000000  0  9G17G24G07G08G26G13G19G11G28
   3799489.00847   2994275.74244  23604875.9144                   23604876.4964
  -2003102.41447  -1534411.84444  22734735.9694                   22734737.2774
 -13507375.53948 -10500304.62947  20251557.0554                   20251554.2154
 -21158333.75048 -16467371.31646  20773452.4774                   20773450.5274
   8510684.85247   6661676.11743  23876323.8444                   23876324.1214
  13522597.91447  10555756.23044  22860423.7034                   22860422.8834
   6773026.59047   5303340.56644  22926111.6954                   22926108.5514
 -14580287.42247 -11328602.60245  21623304.6564                   21623302.9304
 -10276326.62147  -7969803.52045  22323516.8984                   22323514.8164
 11  8 19 18 19 30.0000000  0  9G17G24G07G08G26G13G19G11G28
   3661905.56347   2887067.96144  23578694.3284                   23578694.9144
  -2103555.80947  -1612687.18044  22715620.1564                   22715621.3674
 -13552995.24648 -10535852.46947  20242875.8284                   20242872.9024
 -21255591.14548 -16543156.29346  20754945.5704                   20754943.4924
   8390132.46547   6567739.25443  23853383.4454                   23853384.3404
  13589763.37547  10608092.81644  22873204.2034                   22873204.1254
   6828111.67247   5346263.94145  22936594.5234                   22936591.2114
 -14648687.68748 -11381901.49645  21610288.8134                   21610286.7034
 -10344854.47747  -8023201.81645  22310476.3914                   22310474.0274
 11  8 19 18 20  0.0000000  0  9G17G24G07G08G26G13G19G11G28
   3524490.30946   2779991.24244  23552544.8524                   23552546.0824
  -2203759.83247  -1690768.21144  22696551.6884                   22696553.0234
 -13598232.62148 -10571102.39546  20234267.4924                   20234264.8404
 -21352624.48448 -16618766.68446  20736480.5784                   20736478.5124
   8269978.33246   6474112.69943  23830518.7504                   23830519.6524
  13657039.37947  10660515.56644  22886006.6254                   22886006.8674
   6883399.51247   5389345.33245  22947115.4304                   22947112.2154
 -14716609.16847 -11434827.30945  21597363.3364                   21597360.9574
 -10413326.87947  -8076556.92245  22297446.4064                   22297444.2274
 11  8 19 18 20 30.0000000  0  9G17G24G07G08G26G13G19G11G28
   3387247.77346   2673049.13344  23526428.2584                   23526429.2154
  -2303708.23047  -1768650.04744  22677532.5634                   22677533.6644
 -13643082.75048 -10606050.55546  20225732.7034                   20225730.0474
 -21449428.28548 -16694198.21146  20718059.0234                   20718057.0704
   8150228.19146   6380800.93843  23807731.0234                   23807731.5204
  13724426.64547  10713024.99644  22898830.2194                   22898830.2034
   6938890.80147   5432585.24245  22957675.0234                   22957671.5164
 -14784046.79347 -11487376.09445  21584530.4224                   21584528.2274
 -10481741.22347  -8129866.78545  22284427.7894                   22284425.5744
 11  8 19 18 21  0.0000000  0  9G17G24G07G08G26G13G19G11G28
   3250184.30546   2566246.55944  23500345.2344                   23500346.8954
  -2403393.97747  -1846327.20744  22658562.5704                   22658563.7814
 -13687540.41448 -10640692.89546  20217272.8134                   20217269.9414
 -21545995.87548 -16769445.68046  20699682.8134                   20699681.0124
   8030888.75847   6287809.19943  23785021.8914                   23785021.7854
  13791925.87947  10765621.68044  22911674.7814                   22911674.8364
   6994586.68447   5475984.59845  22968273.1174                   22968269.9104
 -14850994.77347 -11539543.32845  21571790.9064                   21571788.5824
 -10550094.68447  -8183129.20745  22271420.5944                   22271418.3714
 11  8 19 18 21 30.0000000  0  9G17G24G07G08G26G13G19G11G28
   3113295.52046   2459580.09844  23474296.7034                   23474297.4964
  -2502820.12947  -1923802.08644  22639642.4224                   22639643.6484
 -13731609.98848 -10675032.84046  20208886.5394                   20208884.2074
 -21642330.87948 -16844511.91046  20681350.8984                   20681348.7814
   7911956.63347   6195134.86743  23762390.2344                   23762390.6374
  13859527.96147  10818298.50044  22924539.0314                   22924539.0824
   7050478.49247   5519536.60245  22978909.5704                   22978906.0824
 -14917457.43447 -11591332.38745  21559143.4304                   21559141.3444
 -10618394.05147  -8236349.48845  22258423.5864                   22258421.3954
 11  8 19 18 22  0.0000000  0  9G17G24G07G08G26G13G19G11G28
   2976574.17247   2353044.12544  23448279.3054                   23448280.3284
  -2601992.84447  -2001079.48844  22620770.3674                   22620771.6174
 -13775299.26248 -10709076.44546  20200572.6414                   20200569.9804
 -21738440.15648 -16919402.26246  20663061.5004                   20663059.6024
   7793425.03547   6102772.59443  23739833.2274                   23739834.1524
  13927220.68847  10871045.95344  22937421.1484                   22937420.7544
   7106554.11747   5563231.85245  22989579.9534                   22989577.1884
 -14983442.34048 -11642749.17645  21546586.7194                   21546584.8484
 -10686649.41047  -8289535.46145  22245435.1724                   22245432.5274
 11  8 19 18 22 30.0000000  0  9G17G24G07G08G26G13G19G11G28
   2840023.65647   2246641.25444  23422294.7584                   23422295.1724
  -2700908.02047  -2078156.19144  22601948.0474                   22601948.6954
 -13818605.60548 -10742821.66446  20192331.8834                   20192329.3524
 -21834319.97348 -16994113.80946  20644816.5784                   20644815.0904
   7675297.73447   6010725.36743  23717355.1954                   23717354.8244
  13995002.64147  10923862.90644  22950319.2974                   22950319.3364
   7162812.01247   5607069.11345  23000286.0474                   23000282.7074
 -15048946.71548 -11693791.53145  21534121.7344                   21534119.5204
 -10754860.36347  -8342686.85545  22232454.5474                   22232452.7344
 11  8 19 18 23  0.0000000  0  9G17G24G07G08G26G13G19G11G28
   2703663.75847   2140386.91044  23396346.2734                   23396347.1524
  -2799544.63747  -2155015.83244  22583177.9454                   22583178.6524
 -13861509.39548 -10776253.19946  20184167.5784                   20184164.8914
 -21929949.71148 -17068630.47746  20626618.9614                   20626617.0234
   7557595.40647   5919009.28543  23694956.4694                   23694957.0704
  14062888.31647  10976760.71144  22963237.8524                   22963238.1334
   7219267.50047   5651060.34445  23011028.4694                   23011026.3594
 -15113950.51248 -11744443.83645  21521752.2894                   21521749.8754
 -10823009.68047  -8395790.19945  22219486.4614                   22219483.8484
 11  8 19 18 23 30.0000000  0  9G17G24G07G08G26G13G19G11G28
   2567486.74247   2034275.09045  23370432.3674                   23370432.8914
  -2897909.09047  -2231663.38744  22564459.3284                   22564460.4104
 -13904018.60248 -10809377.27046  20176078.3754                   20176076.0514
 -22025335.80548 -17142957.29746  20608467.7274                   20608465.5164
   7440311.25846   5827619.07043  23672638.4454                   23672638.4224
  14130865.50447  11029729.80144  22976173.2814                   22976173.6804
   7275908.22347   5695195.94145  23021807.7974                   23021804.2854
 -15178461.38748 -11794712.04345  21509475.6644                   21509473.6994
 -10891107.34847  -8448853.29345  22206527.8364                   22206525.5904
 11  8 19 18 24  0.0000000  0  9G17G24G07G08G26G13G19G11G28
   2431494.64547   1928307.35545  23344554.3754                   23344554.7074
  -2995998.34047  -2308096.48844  22545793.8914                   22545794.3284
 -13946132.05148 -10842192.96546  20168063.9534                   20168061.5124
 -22120476.43448 -17217092.84446  20590362.8444                   20590360.9224
   7323447.53146   5736556.47743  23650399.5004                   23650400.1294
  14198931.04747  11082767.73444  22989125.6334                   22989125.9184
   7332731.21547   5739473.53145  23032620.4304                   23032617.8054
 -15242477.82047 -11844594.98045  21497294.2504                   21497291.8014
 -10959154.55547  -8501877.07445  22193578.7814                   22193576.3634
 11  8 19 18 24 30.0000000  0  9G17G24G07G08G26G13G19G11G28
   3871124.54747   3050097.00844  23618506.5314                   23618506.9774
  -1518375.32047  -1156701.86744  22826976.1334                   22826976.7664
 -12412416.00048  -9647089.56246  20459920.7974                   20459918.3204
 -20639934.99248 -16063424.18046  20872100.3754                   20872098.3594
   8782441.84846   6873435.19543  23928037.1094                   23928037.6174
  15842510.66447  12363478.98444  23301889.8444                   23301889.4614
   8965163.33247   7011498.49644  23343261.7504                   23343258.7854
 -13730565.35948 -10666481.36745  21785001.3444                   21784999.3014
  -9451718.97347  -7327251.93445  22480434.2734                   22480431.7384
 11  8 19 18 25  0.0000000  0  9G17G24G07G08G26G13G19G11G28
   3735527.07447   2944436.78544  23592702.6644                   23592703.3324
  -1615885.89547  -1232684.07844  22808420.2894                   22808421.1764
 -12453714.03548  -9679269.85546  20452062.0554                   20452059.5434
 -20734557.02348 -16137155.62146  20854094.6024                   20854092.8014
   8666446.55946   6783049.33243  23905963.6094                   23905964.3284
  15910763.39147  12416662.77344  23314876.9384                   23314877.4264
   9022363.24647   7056069.82845  23354146.7584                   23354143.5944
 -13793568.64848 -10715574.82445  21773012.6484                   21773010.1564
  -9519648.23847  -7380183.80945  22467507.9774                   22467505.6604
 11  8 19 18 25 30.0000000  0  9G17G24G07G08G26G13G19G11G28
   3600130.17247   2838932.83244  23566937.8914                   23566937.9414
  -1713102.87147  -1308437.52044  22789919.9774                   22789920.8524
 -12494601.71948  -9711130.40246  20444281.3134                   20444278.8984
 -20828916.10948 -16210682.16446  20836138.5864                   20836136.9924
   8550888.95346   6693004.48843  23883973.8524                   23883974.5744
  15979105.16447  12469915.96944  23327882.2424                   23327882.4654
   9079747.31647   7100784.62144  23365066.3984                   23365063.5314
 -13856063.02048 -10764271.72345  21761119.6174                   21761117.7664
  -9587519.69547  -7433070.64545  22454592.8134                   22454589.9774
 11  8 19 18 26  0.0000000  0  9G17G24G07G08G26G13G19G11G28
   3464928.80547   2733581.23844  23541209.6884                   23541209.8284
  -1810030.15247  -1383965.21144  22771475.9844                   22771476.4384
 -12535085.43748  -9742676.17246  20436577.5234                   20436575.3954
 -20923016.38748 -16284007.05946  20818232.0234                   20818229.9884
   8435764.79747   6603297.43843  23862065.9534                   23862067.2504
  16047526.31347  12523230.98044  23340902.4454                   23340902.3554
   9137305.85947   7145635.38744  23376019.3524                   23376016.6134
 -13918053.38348 -10812575.87945  21749323.3674                   21749321.0744
  -9655340.16047  -7485917.74645  22441686.7114                   22441684.1294
 11  8 19 18 26 30.0000000  0  9G17G24G07G08G26G13G19G11G28
   3329930.67647   2628388.02044  23515519.7424                   23515520.1414
  -1906658.27347  -1459259.78944  22753088.2274                   22753088.8324
 -12575156.90648  -9773900.70346  20428952.0554                   20428949.5554
 -21016848.69148 -16357123.12546  20800376.0474                   20800374.0164
   8321083.01247   6513935.02743  23840243.6414                   23840243.4494
  16116030.22747  12576610.49644  23353938.1334                   23353938.9964
   9195043.07447   7190625.36744  23387006.5864                   23387004.2584
 -13979531.67647 -10860481.02045  21737624.7734                   21737622.8324
  -9723104.92247  -7538721.44145  22428791.6414                   22428789.4184
 11  8 19 18 27  0.0000000  0  9G17G24G07G08G26G13G19G11G28
   3195135.84447   2523353.19944  23489869.3054                   23489869.9144
  -2002985.97747  -1534320.27044  22734757.3134                   22734757.9774
 -12614816.56648  -9804804.34846  20421405.2664                   20421402.6884
 -21110412.81248 -16430030.22346  20782571.5554                   20782569.5824
   8206844.39547   6424917.99643  23818504.5634                   23818504.8984
  16184612.13347  12630050.77743  23366988.8134                   23366989.4964
   9252953.91447   7235750.64844  23398027.1414                   23398024.0204
 -14040498.82447 -10907987.86745  21726022.7274                   21726021.0634
  -9790816.18447  -7591483.44945  22415906.4774                   22415904.0784
 11  8 19 18 27 30.0000000  0  9G17G24G07G08G26G13G19G11G28
   3060544.95747   2418477.29344  23464257.3444                   23464257.9884
  -2099011.93747  -1609145.63744  22716484.1564                   22716484.8554
 -12654064.17248  -9835386.90646  20413936.7894                   20413934.3444
 -21203707.54748 -16502727.41046  20764818.0704                   20764816.3524
   8093049.68047   6336246.85244  23796849.8524                   23796850.3754
  16253267.51247  12683548.33244  23380054.1484                   23380054.3674
   9311034.33647   7281008.07444  23409078.6954                   23409076.5864
 -14100954.41047 -10955096.07445  21714518.5944                   21714516.5554
  -9858476.49247  -7644205.75045  22403030.7894                   22403028.6724
 11  8 19 18 28  0.0000000  0  9G17G24G07G08G26G13G19G11G28
   2926159.42647   2313761.42244  23438685.0164                   23438685.1844
  -2194733.82847  -1683734.06644  22698268.8594                   22698269.9344
 -12692899.29348  -9865648.05146  20406546.5164                   20406544.1604
 -21296730.65248 -16575212.94146  20747116.7504                   20747114.4614
   7979700.59847   6247922.93843  23775279.7274                   23775280.3874
  16321992.69147  12737100.23444  23393131.3364                   23393132.8444
   9369281.42246   7326395.35944  23420163.3674                   23420159.8364
 -14160897.18448 -11001804.69945  21703111.9304                   21703110.0004
  -9926086.42647  -7696888.80545  22390164.8984                   22390162.5944
 11  8 19 18 28 30.0000000  0  9G17G24G07G08G26G13G19G11G28
   2791981.83247   2209207.53144  23413151.5084                   23413152.0434
  -2290147.50047  -1758082.34844  22680112.3674                   22680113.2344
 -12731319.78947  -9895586.10946  20399235.6804                   20399233.0744
 -21389478.86348 -16647484.27746  20729467.0634                   20729465.3244
   7866800.90247   6159949.19144  23753796.2814                   23753796.9574
  16390785.91447  12790705.18043  23406223.6644                   23406223.6524
   9427693.05547   7371910.87144  23431278.6174                   23431275.5124
 -14220325.16848 -11048112.19145  21691802.9614                   21691800.9884
  -9993646.79747  -7749533.23445  22377308.6564                   22377306.8484
 11  8 19 18 29  0.0000000  0  9G17G24G07G08G26G13G19G11G28
   2657996.98847   2104803.88345  23387655.3834                   23387655.3594
  -2385267.13347  -1832201.51244  22662011.7584                   22662012.3794
 -12769341.24248  -9925213.23046  20392000.3984                   20391997.6254
 -21481966.54348 -16719552.60246  20711867.1644                   20711865.4534
   7754335.90247   6072314.18443  23732394.7424                   23732395.1524
  16459627.37947  12844347.70743  23419323.2664                   23419324.1484
   9486249.60547   7417539.30144  23442421.6094                   23442418.9804
 -14279253.57048 -11094030.40245  21680589.1094                   21680587.2734
 -10061175.29347  -7802152.82045  22364458.2034                   22364456.5904
 11  8 19 18 29 30.0000000  0  9G17G24G07G08G26G13G19G11G28
   2524221.14547   2000563.05945  23362198.4144                   23362198.6334
  -2480075.44947  -1906078.09844  22643970.7734                   22643970.9614
 -12806947.97748  -9954517.19546  20384843.8914                   20384841.7894
 -21574176.78148 -16791404.72746  20694319.9774                   20694318.3714
   7642322.39847   5985030.99644  23711079.1724                   23711079.5744
  16528528.12547  12898036.48444  23432435.1024                   23432434.5944
   9544962.84847   7463289.83244  23453593.7504                   23453591.3954
 -14337666.91848 -11139547.27745  21669473.7894                   21669471.7274
 -10128657.52347  -7854736.35945  22351616.8204                   22351614.4224
 11  8 19 18 30  0.0000000  0  9G17G24G07G08G26G13G19G11G28
   2390668.25847   1896495.99245  23336783.9144                   23336784.0984
  -2574557.67247  -1979700.58245  22625990.8674                   22625991.6954
 -12844126.45748  -9983487.45346  20377768.8364                   20377766.5124
 -21666094.74248 -16863029.11346  20676828.3914                   20676827.0474
   7530774.50846   5898110.57443  23689851.6804                   23689853.0394
  16597497.15247  12951778.40243  23445559.5314                   23445559.9494
   9603841.91047   7509169.55544  23464799.2034                   23464796.3484
 -14395551.68748 -11184652.27345  21658458.6334                   21658456.1524
 -10196082.57447  -7907275.33645  22338786.4844                   22338784.1644
 11  8 19 18 30 30.0000000  0  9G17G24G07G08G26G13G19G11G28
   2257331.26647   1792597.15244  23311410.2114                   23311410.6954
  -2668719.54347  -2053073.43444  22608072.5784                   22608072.9734
 -12880884.20748 -10012129.85946  20370774.5474                   20370771.6214
 -21757726.52748 -16934430.50846  20659392.0164                   20659389.7304
   7419686.17646   5811548.27043  23668712.6414                   23668713.3324
  16666523.17647  13005564.73844  23458694.9304                   23458695.3094
   9662875.75447   7555169.88744  23476032.7894                   23476029.7504
 -14452915.21948 -11229351.11345  21647542.5234                   21647540.6374
 -10263459.75847  -7959777.02045  22325965.1484                   22325962.6684
 11  8 19 18 31  0.0000000  0  9G17G24G07G08G26G13G19G11G28
   2124219.69547   1688873.94945  23286080.2194                   23286080.1254
  -2762550.70747  -2126188.58244  22590216.9614                   22590217.2974
 -12917212.21148 -10040437.39147  20363861.1724                   20363858.9064
 -21849061.99648 -17005601.00046  20642011.3444                   20642009.3594
   7309067.58247   5725352.01243  23647663.0164                   23647663.1134
  16735610.62147  13059398.93843  23471841.9694                   23471842.3594
   9722069.57847   7601294.88744  23487297.3834                   23487294.0274
 -14509748.34448 -11273636.64845  21636727.6334                   21636725.6094
 -10330782.16847  -8012236.03145  22313154.0314                   22313151.6454
 11  8 19 18 31 30.0000000  0  9G17G24G07G08G26G13G19G11G28
   1991325.93847   1585320.48444  23260791.0314                   23260791.3284
  -2856057.52747  -2199051.00445  22572423.0314                   22572423.7774
 -12953118.77348 -10068416.54346  20357028.5634                   20357026.0704
 -21940108.16848 -17076546.05946  20624685.9454                   20624683.9694
   7198911.18047   5639515.85943  23626700.0704                   23626701.5634
  16804747.29347  13113271.50444  23484997.8364                   23484998.9454
   9781410.87547   7647534.80544  23498589.6484                   23498586.7624
 -14566058.96948 -11317515.04745  21626011.8914                   21626010.1134
 -10398060.06247  -8064660.35545  22300351.1804                   22300348.8674
 11  8 19 18 32  0.0000000  0  9G17G24G07G08G26G13G19G11G28
   1858644.60247   1481932.52745  23235542.7894                   23235543.0514
  -2949244.43047  -2271664.14144  22554690.1024                   22554690.9574
 -12988610.03948 -10096072.09046  20350274.5864                   20350272.3794
 -22030869.87948 -17147269.48046  20607414.0944                   20607412.4264
   7089212.08247   5554036.07043  23605825.9384                   23605826.1054
  16873922.85947  13167174.35543  23498162.4534                   23498162.6604
   9840890.00447   7693882.11344  23509907.7894                   23509905.2464
 -14621853.42248 -11360991.22345  21615394.7974                   21615392.9144
 -10465301.42647  -8117056.20745  22287555.8284                   22287553.6254
 11  8 19 18 32 30.0000000  0  9G17G24G07G08G26G13G19G11G28
   1726195.68047   1378725.67644  23210338.5944                   23210338.4144
  -3042089.94147  -2344011.25844  22537021.8914                   22537022.8324
 -13023666.14548 -10123388.54746  20343604.0944                   20343601.6914
 -22121325.96148 -17217754.74246  20590201.4694                   20590199.2544
   6979991.40247   5468929.07043  23585041.9454                   23585041.8484
  16943152.80947  13221119.59843  23511336.0394                   23511336.5274
   9900522.57847   7740348.99644  23521255.7274                   23521252.2934
 -14677111.72348 -11404049.63345  21604879.2424                   21604877.2504
 -10532488.59047  -8169409.82445  22274770.5554                   22274768.5124
 11  8 19 18 33  0.0000000  0  9G17G24G07G08G26G13G19G11G28
   1593967.83647   1275691.10544  23185176.1484                   23185175.9384
  -3134604.47747  -2416100.47745  22519417.0314                   22519417.9734
 -13058299.17248 -10150375.33646  20337013.1094                   20337010.9614
 -22211486.96948 -17288010.07046  20573043.9064                   20573042.3834
   6871237.78547   5384186.03143  23564346.6484                   23564346.6094
  17012421.27747  13275094.83643  23524517.0394                   23524518.3164
   9960292.78947   7786923.11744  23532629.1724                   23532626.7504
 -14731845.84448 -11446699.59045  21594464.0554                   21594462.0904
 -10599635.49247  -8221732.07445  22261992.7974                   22261990.4414
 11  8 19 18 33 30.0000000  0  9G17G24G07G08G26G13G19G11G28
   1461959.32847   1172827.42244  23160055.8054                   23160055.5514
  -3226788.74647  -2487932.33644  22501875.3134                   22501875.6174
 -13092511.34448 -10177034.18746  20330502.9454                   20330500.3524
 -22301354.03148 -17358036.35546  20555942.8204                   20555941.0514
   6762950.15247   5299806.10243  23543740.5394                   23543739.8984
  17081721.49647  13329094.81643  23537704.0634                   23537705.7424
  10020194.51647   7833599.73044  23544028.3524                   23544025.7934
 -14786058.27748 -11488943.02745  21584147.4774                   21584145.3364
 -10666746.17247  -8274026.09445  22249222.5084                   22249219.8244
 11  8 19 18 34  0.0000000  0  9G17G24G07G08G26G13G19G11G28
   1330174.37447   1070137.93944  23134978.1804                   23134977.5474
  -3318637.36347  -2559502.64844  22484396.9064                   22484397.3754
 -13126299.12148 -10203362.34446  20324073.4064                   20324071.2034
 -22390921.82448 -17427829.44146  20538898.5944                   20538896.8404
   6655133.32847   5215793.02343  23523223.2734                   23523223.1644
  17151053.40247  13383119.49643  23550898.3204                   23550899.6174
  10080227.48447   7880378.60944  23555452.2034                   23555449.2974
 -14839745.16048 -11530776.95345  21573931.1644                   21573929.3244
 -10733819.04747  -8326290.66445  22236458.6954                   22236456.4494
 11  8 19 18 34 30.0000000  0  9G17G24G07G08G26G13G19G11G28
   1198601.15647    967613.43845  23109940.3134                   23109939.8954
  -3410161.09847  -2630819.81244  22466980.7194                   22466980.9884
 -13159674.79348 -10229369.37946  20317722.1804                   20317720.1094
 -22480201.30148 -17497397.86346  20521909.1644                   20521907.1054
   6547775.90647   5132137.93443  23502794.0394                   23502792.8874
  17220400.24647  13437155.80543  23564094.8594                   23564095.7704
  10140376.02047   7927247.53544  23566897.5784                   23566895.0944
 -14892918.62948 -11572210.81245  21563812.5394                   21563810.5084
 -10800867.84847  -8378536.47345  22223699.3754                   22223697.4344
 11  8 19 18 35  0.0000000  0  9G17G24G07G08G26G13G19G11G28
   1067254.64147    865265.58645  23084945.7584                   23084945.9224
  -3501343.86747  -2701871.28144  22449628.9614                   22449629.6134
 -13192623.74248 -10255043.91046  20311452.1414                   20311450.0234
 -22569176.79348 -17566729.42246  20504977.9694                   20504976.0394
   6440893.43847   5048852.93044  23482454.8444                   23482454.7734
  17289772.68047  13491212.05943  23577296.2814                   23577297.6374
  10200650.83247   7974214.83644  23578368.2194                   23578365.5984
 -14945564.27748 -11613233.39545  21553794.3364                   21553791.9574
 -10867880.35247  -8430754.00445  22210947.7814                   22210945.8524
 11  8 19 18 35 30.0000000  0  9G17G24G07G08G26G13G19G11G28
    936130.33647    763090.88745  23059993.6254                   23059993.8244
  -3592189.07047  -2772659.69944  22432341.6174                   22432341.9384
 -13225151.34448 -10280390.11746  20305262.6954                   20305260.3984
 -22657851.99648 -17635826.98046  20488103.7814                   20488101.6884
   6334481.89547   4965934.88744  23462205.3914                   23462205.2934
  17359161.22346  13545280.87943  23590500.8754                   23590501.2274
  10261042.61346   8021273.30144  23589860.8204                   23589858.1954
 -14997687.15648 -11653848.60945  21543876.0234                   21543873.6484
 -10934863.41448  -8482948.59445  22198201.0634                   22198199.0664
 11  8 19 18 36  0.0000000  0  9G17G24G07G08G26G13G19G11G28
    805234.85547    661094.46545  23035085.2504                   23035085.2344
  -3682689.43047  -2843179.41044  22415119.8984                   22415120.9734
 -13257251.77348 -10305403.44946  20299154.1564                   20299151.8444
 -22746219.65248 -17704684.89846  20471287.9924                   20471285.9264
   6228548.17247   4883389.17644  23442046.5004                   23442046.5234
  17428567.75847  13599363.67243  23603708.2894                   23603709.3634
  10321553.69546   8068424.74644  23601375.3134                   23601372.6604
 -15049281.64548 -11694052.10245  21534057.6414                   21534055.6054
 -11001813.03148  -8535117.12545  22185460.6804                   22185459.4454
 11  8 19 18 36 30.0000000  0  9G17G24G07G08G26G13G19G11G28
    674570.89547    559278.47745  23010220.3594                   23010220.2194
  -3772841.02047  -2913427.36345  22397964.7344                   22397965.4534
 -13288922.53548 -10330081.98047  20293127.5004                   20293125.1884
 -22834275.88348 -17773300.14146  20454531.0704                   20454529.4574
   6123095.42646   4801218.25444  23421979.5314                   23421980.4654
  17497990.89147  13653459.43844  23616919.1024                   23616919.9384
  10382182.66446   8115668.02744  23612913.3054                   23612909.9534
 -15100345.47348 -11733842.07445  21524340.6804                   21524338.7234
 -11068728.65248  -8587259.16045  22172727.4844                   22172725.1914
 11  8 19 18 37  0.0000000  0  9G17G24G07G08G26G13G19G11G28
    544136.15647    457641.08245  22985399.6954                   22985399.5274
  -3862645.15247  -2983404.55145  22380875.4924                   22380876.4574
 -13320166.64548 -10354428.05546  20287181.7664                   20287179.3874
 -22922022.22348 -17841673.91846  20437833.7664                   20437831.9924
   6018121.90246   4719420.75843  23402003.6484                   23402003.9964
  17567423.44147  13707562.52743  23630131.3674                   23630133.1024
  10442922.87546   8162998.00044  23624471.3524                   23624468.5204
 -15150881.23848 -11773220.58245  21514724.2274                   21514721.4804
 -11135615.06648  -8639378.44545  22159999.3914                   22159997.0904
 11  8 19 18 37 30.0000000  0  9G17G24G07G08G26G13G19G11G28
    413930.60947    356182.29345  22960622.3524                   22960622.0044
  -3952100.38347  -3053109.89145  22363852.5704                   22363853.3914
 -13350984.30148 -10378441.83646  20281317.5554                   20281314.8444
 -23009457.80148 -17909805.53946  20421195.2114                   20421193.4654
   5913628.09846   4637997.06344  23382118.9614                   23382119.6374
  17636860.97747  13761669.50443  23643346.1254                   23643347.3754
  10503770.23446   8210411.46544  23636050.7584                   23636047.7814
 -15200889.70748 -11812188.22345  21505207.4304                   21505205.1884
 -11202474.55548  -8691476.73845  22147276.2344                   22147274.1334
 11  8 19 18 38  0.0000000  0  9G17G24G07G08G26G13G19G11G28
    283954.51647    254902.31345  22935888.1724                   22935888.4064
  -4041205.95747  -3122542.74645  22346896.6174                   22346896.9304
 -13381376.52048 -10402124.09446  20275534.0084                   20275531.2464
 -23096581.50048 -17977694.14146  20404616.2734                   20404614.2234
   5809614.42646   4556947.48044  23362325.7504                   23362326.7734
  17706298.92647  13815776.78543  23656559.5784                   23656560.0514
  10564720.58247   8257905.18044  23647648.6954                   23647645.4844
 -15250371.75048 -11850745.65245  21495791.4924                   21495789.5704
 -11269309.39548  -8743555.82845  22134558.0474                   22134556.0124
 11  8 19 18 38 30.0000000  0  9G17G24G07G08G26G13G19G11G28
    154221.17647    153811.47745  22911200.7734                   22911200.7664
  -4129947.25847  -3191691.78145  22330009.5944                   22330010.2734
 -13411330.51248 -10425464.89147  20269833.7814                   20269832.0164
 -23183378.93748 -18045328.50846  20388099.2114                   20388097.6804
   5706094.94947   4476283.00444  23342626.7034                   23342627.0904
  17775746.66847  13869891.74643  23669775.0554                   23669776.4964
  10625783.16447   8305486.33244  23659268.3834                   23659266.4924
 -15299314.24248 -11888882.64845  21486477.8754                   21486475.8244
 -11336108.09448  -8795606.75045  22121846.8984                   22121844.4804
 11  8 19 18 39  0.0000000  0  9G17G24G07G08G26G13G19G11G28
     24735.32847     52913.51245  22886560.0864                   22886560.1954
  -4218318.88747  -3260552.74244  22313193.0944                   22313193.3594
 -13440842.11348 -10448460.95747  20264218.1804                   20264215.6254
 -23269845.18048 -18112704.79746  20371645.2424                   20371643.2664
   5603074.52346   4396007.37944  23323022.5394                   23323023.1134
  17845203.58247  13924013.82443  23682992.4774                   23682993.5084
  10686958.17647   8353155.14144  23670910.1954                   23670906.8284
 -15347713.32048 -11926596.21545  21477268.0944                   21477265.6844
 -11402868.72348  -8847627.99245  22109142.3204                   22109140.2624
 11  8 19 18 39 30.0000000  0  9G17G24G07G08G26G13G19G11G28
   -104539.93747    -47820.39145  22861960.1254                   22861959.8014
  -4306356.33247  -3329153.30545  22296439.8444                   22296440.3244
 -13469949.21548 -10471141.84047  20258679.4304                   20258676.8914
 -23356016.06248 -18179850.94146  20355247.1644                   20355245.2974
   5500516.64547   4316092.19144  23303506.8834                   23303506.9494
  17914628.62947  13978111.07443  23696203.8754                   23696204.9924
  10748204.70746   8400879.63744  23682564.0234                   23682561.9654
 -15395606.82048 -11963915.82045  21468153.9534                   21468151.6174
 -11469630.35548  -8899650.02045  22096438.0314                   22096435.9654
 11  8 19 18 40  0.0000000  0  9G17G24G07G08G26G13G19G11G28
   -233581.89147   -148372.46945  22837403.8754                   22837404.2384
  -4394035.66447  -3397474.81644  22279755.1334                   22279755.4454
 -13498629.34048 -10493490.00446  20253221.4144                   20253219.0824
 -23441867.24248 -18246747.97746  20338910.1414                   20338908.7034
   5398444.24646   4236555.29344  23284082.8834                   23284082.9224
  17984040.04347  14032197.66443  23709412.7424                   23709414.1024
  10809541.25446   8448674.28144  23694236.9454                   23694234.1724
 -15442972.27048 -12000823.95345  21459140.9144                   21459138.3984
 -11536372.34048  -8951656.75445  22083737.5944                   22083735.2854
 11  8 19 18 40 30.0000000  0  9G17G24G07G08G26G13G19G11G28
   -362376.53947   -248731.85945  22812895.6414                   22812895.0044
  -4481342.07447  -3465505.75045  22263141.1024                   22263141.5704
 -13526869.00448 -10515494.96146  20247847.7504                   20247845.4924
 -23527383.98848 -18313384.40246  20322637.4224                   20322635.4884
   5296872.28146   4157408.32444  23264754.3754                   23264753.9774
  18053447.35946  14086281.07843  23722620.4064                   23722622.3484
  10870978.06646   8496547.05144  23705927.9694                   23705924.7544
 -15489796.35548 -12037310.24245  21450230.8444                   21450228.2814
 -11603083.00047  -9003639.06245  22071042.8914                   22071040.7074
 11  8 19 18 41  0.0000000  0  9G17G24G07G08G26G13G19G11G28
   -490930.02347   -348903.32045  22788432.3674                   22788432.1454
  -4568280.76247  -3533250.12944  22246597.0314                   22246597.6094
 -13554675.10248 -10537162.07046  20242556.6414                   20242553.7344
 -23612571.99248 -18379764.66846  20306426.4064                   20306424.3524
   5195794.47347   4078646.43444  23245520.3054                   23245520.1414
  18122839.71946  14140352.80943  23735825.7194                   23735827.2504
  10932504.28546   8544489.48844  23717634.9454                   23717632.9774
 -15536086.34448 -12073380.34845  21441421.9844                   21441419.7734
 -11669770.96548  -9055603.69145  22058352.4614                   22058350.9184
 11  8 19 18 41 30.0000000  0  9G17G24G07G08G26G13G19G11G28
   -619223.25447   -448872.00045  22764019.4844                   22764018.9224
  -4654831.46147  -3600692.19545  22230127.3674                   22230127.2934
 -13582029.27748 -10558477.03546  20237351.0704                   20237349.0434
 -23697410.80948 -18445872.83646  20290282.1804                   20290280.3524
   5095230.53547   4000284.96144  23226383.4384                   23226383.3794
  18192232.29746  14194424.71143  23749030.2974                   23749032.1024
  10994135.29746   8592513.57444  23729363.9614                   23729360.8134
 -15581823.78548 -12109019.91045  21432718.1644                   21432716.0704
 -11736419.07848  -9107537.27745  22045670.2344                   22045667.7774
 11  8 19 18 42  0.0000000  0  9G17G24G07G08G26G13G19G11G28
   -747266.56647   -548645.93745  22739653.3444                   22739652.7934
  -4741003.32047  -3667839.06645  22213729.3594                   22213729.3874
 -13608942.42248 -10579448.33246  20232229.9144                   20232227.5744
 -23781909.94548 -18511716.32046  20274202.5004                   20274200.8954
   4995170.41846   3922316.05943  23207342.4304                   23207342.2234
  18261610.02346  14248485.05943  23762233.0944                   23762234.9224
  11055856.59846   8640608.04744  23741108.8204                   23741107.1454
 -15627019.57448 -12144237.38745  21424117.6484                   21424115.4884
 -11803039.85548  -9159449.55945  22032992.7194                   22032990.3014
